[[{"header":{"parameterUnit":"m.s-1","parameterCategory":1,"la1":30.6,"la2":28.766,"lo1":-90.7593,"lo2":-88.6598,"dy":0.0162,"dx":0.0183,"nx":116,"ny":114,"refTime":"2023-08-25T12:00:00:Z","depth":0,"parameterNumber":2,"parameterNumberName":"U-component_of_WINDS"},"data":[0.0,0.0,0.0,0.0,0.0,0.0,0.0,0.0,0.0,0.0,0.0,0.0,0.0,0.0,0.0,0.0,0.0,0.0,0.0,0.0,0.0,0.0,0.0,0.0,0.0,0.0,0.0,0.0,0.0,0.0,0.0,0.0,0.0,0.0,0.0,0.0,0.0,0.0,0.0,0.0,0.0,0.0,0.0,0.0,0.0,0.0,0.0,0.0,0.0,0.0,0.0,0.0,0.0,0.0,0.0,0.0,0.0,0.0,0.0,0.0,0.0,0.0,0.0,0.0,0.0,0.0,0.0,0.0,0.0,0.0,0.0,0.0,0.0,0.0,0.0,0.0,0.0,0.0,0.0,0.0,0.0,0.0,0.0,0.0,0.0,0.0,0.0,0.0,0.0,0.0,0.0,0.0,0.0,0.0,0.0,0.0,0.0,0.0,0.0,0.0,0.0,0.0,0.0,0.0,0.0,0.0,0.0,0.0,0.0,0.0,0.0,0.0,0.0,0.0,0.0,0.0,0.0,0.0,0.0,0.0,0.0,0.0,0.0,0.0,0.0,0.0,0.0,0.0,0.0,0.0,0.0,0.0,0.0,0.0,0.0,0.0,0.0,0.0,0.0,0.0,0.0,0.0,0.0,0.0,0.0,0.0,0.0,0.0,0.0,0.0,0.0,0.0,0.0,0.0,0.0,0.0,0.0,0.0,0.0,0.0,0.0,0.0,0.0,0.0,0.0,0.0,0.0,0.0,0.0,0.0,0.0,0.0,0.0,0.0,0.0,0.0,0.0,0.0,0.0,0.0,0.0,0.0,0.0,0.0,0.0,0.0,0.0,0.0,0.0,0.0,0.0,0.0,0.0,0.0,0.0,0.0,0.0,0.0,0.0,0.0,0.0,0.0,0.0,0.0,0.0,0.0,0.0,0.0,0.0,0.0,0.0,0.0,0.0,0.0,0.0,0.0,0.0,0.0,0.0,0.0,0.0,0.0,0.0,0.0,0.0,0.0,0.0,0.0,0.0,0.0,0.0,0.0,0.0,0.0,0.0,0.0,0.0,0.0,0.0,0.0,0.0,0.0,0.0,0.0,0.0,0.0,0.0,0.0,0.0,0.0,0.0,0.0,0.0,0.0,0.0,0.0,0.0,0.0,0.0,0.0,0.0,0.0,0.0,0.0,0.0,0.0,0.0,0.0,0.0,0.0,0.0,0.0,0.0,0.0,0.0,0.0,0.0,0.0,0.0,0.0,0.0,0.0,0.0,0.0,0.0,0.0,0.0,0.0,0.0,0.0,0.0,0.0,0.0,0.0,0.0,0.0,0.0,0.0,0.0,0.0,0.0,0.0,0.0,0.0,0.0,0.0,0.0,0.0,0.0,0.0,0.0,0.0,0.0,0.0,0.0,0.0,0.0,0.0,0.0,0.0,0.0,0.0,0.0,0.0,0.0,0.0,0.0,0.0,0.0,0.0,0.0,0.0,0.0,0.0,0.0,0.0,0.0,0.0,0.0,0.0,0.0,0.0,0.0,0.0,0.0,0.0,0.0,0.0,0.0,0.0,0.0,0.0,0.0,0.0,0.0,0.0,0.0,0.0,0.0,0.0,0.0,0.0,0.0,0.0,0.0,0.0,0.0,0.0,0.0,0.0,0.0,0.0,0.0,0.0,0.0,0.0,0.0,0.0,0.0,0.0,0.0,0.0,0.0,0.0,0.0,0.0,0.0,0.0,0.0,0.0,0.0,0.0,0.0,0.0,0.0,0.0,0.0,0.0,0.0,0.0,0.0,0.0,0.0,0.0,0.0,0.0,0.0,0.0,0.0,0.0,0.0,0.0,0.0,0.0,0.0,0.0,0.0,0.0,0.0,0.0,0.0,0.0,0.0,0.0,0.0,0.0,0.0,0.0,0.0,0.0,0.0,0.0,0.0,0.0,0.0,0.0,0.0,0.0,0.0,0.0,0.0,0.0,0.0,0.0,0.0,0.0,0.0,0.0,0.0,0.0,0.0,0.0,0.0,0.0,0.0,0.0,0.0,0.0,0.0,0.0,0.0,0.0,0.0,0.0,0.0,0.0,0.0,0.0,0.0,0.0,0.0,0.0,0.0,0.0,0.0,0.0,0.0,0.0,0.0,0.0,0.0,0.0,0.0,0.0,0.0,0.0,0.0,0.0,0.0,0.0,0.0,0.0,0.0,0.0,0.0,0.0,0.0,0.0,0.0,0.0,0.0,0.0,0.0,0.0,0.0,0.0,0.0,0.0,0.0,0.0,0.0,0.0,0.0,0.0,0.0,0.0,0.0,0.0,0.0,0.0,0.0,0.0,0.0,0.0,0.0,0.0,0.0,0.0,0.0,0.0,0.0,0.0,0.0,0.0,0.0,0.0,0.0,0.0,0.0,0.0,0.0,0.0,0.0,0.0,0.0,0.0,0.0,0.0,0.0,0.0,0.0,0.0,0.0,0.0,0.0,0.0,0.0,0.0,0.0,0.0,0.0,0.0,0.0,0.0,0.0,0.0,0.0,0.0,0.0,0.0,0.0,0.0,0.0,0.0,0.0,0.0,0.0,0.0,0.0,0.0,0.0,0.0,0.0,0.0,0.0,0.0,0.0,0.0,0.0,0.0,0.0,0.0,0.0,0.0,0.0,0.0,0.0,0.0,0.0,0.0,0.0,0.0,0.0,0.0,0.0,0.0,0.0,0.0,0.0,0.0,0.0,0.0,0.0,0.0,0.0,0.0,0.0,0.0,0.0,0.0,0.0,0.0,0.0,0.0,0.0,0.0,0.0,0.0,0.0,0.0,0.0,0.0,0.0,0.0,0.0,0.0,0.0,0.0,0.0,0.0,0.0,0.0,0.0,0.0,0.0,0.0,0.0,0.0,0.0,0.0,0.0,0.0,0.0,0.0,0.0,0.0,0.0,0.0,0.0,0.0,0.0,0.0,0.0,0.0,0.0,0.0,0.0,0.0,0.0,0.0,0.0,0.0,0.0,0.0,0.0,0.0,0.0,0.0,0.0,0.0,0.0,0.0,0.0,0.0,0.0,0.0,0.0,0.0,0.0,0.0,0.0,0.0,0.0,0.0,0.0,0.0,0.0,0.0,0.0,0.0,0.0,0.0,0.0,0.0,0.0,0.0,0.0,0.0,0.0,0.0,0.0,0.0,0.0,0.0,0.0,0.0,0.0,0.0,0.0,0.0,0.0,0.0,0.0,0.0,0.0,0.0,0.0,0.0,0.0,0.0,0.0,0.0,0.0,0.0,0.0,0.0,0.0,0.0,0.0,0.0,0.0,0.0,0.0,0.0,0.0,0.0,0.0,0.0,0.0,0.0,0.0,0.0,0.0,0.0,0.0,0.0,0.0,0.0,0.0,0.0,0.0,0.0,0.0,0.0,0.0,0.0,0.0,0.0,0.0,0.0,0.0,0.0,0.0,0.0,0.0,0.0,0.0,0.0,0.0,0.0,0.0,0.0,0.0,0.0,0.0,0.0,0.0,0.0,0.0,0.0,0.0,0.0,0.0,0.0,0.0,0.0,0.0,0.0,0.0,0.0,0.0,0.0,0.0,0.0,0.0,0.0,0.0,0.0,0.0,0.0,0.0,0.0,0.0,0.0,0.0,0.0,0.0,0.0,0.0,0.0,0.0,0.0,0.0,0.0,0.0,0.0,0.0,0.0,0.0,0.0,0.0,0.0,0.0,0.0,0.0,0.0,0.0,0.0,0.0,0.0,0.0,0.0,0.0,0.0,0.0,0.0,0.0,0.0,0.0,0.0,0.0,0.0,0.0,0.0,0.0,0.0,0.0,0.0,0.0,0.0,0.0,0.0,0.0,0.0,0.0,0.0,0.0,0.0,0.0,0.0,0.0,0.0,0.0,0.0,0.0,0.0,0.0,0.0,0.0,0.0,0.0,0.0,0.0,0.0,0.0,0.0,0.0,0.0,0.0,0.0,0.0,0.0,0.0,0.0,0.0,0.0,0.0,0.0,0.0,0.0,0.0,0.0,0.0,0.0,0.0,0.0,0.0,0.0,0.0,0.0,0.0,0.0,0.0,0.0,0.0,0.0,0.0,0.0,0.0,0.0,0.0,0.0,0.0,0.0,0.0,0.0,0.0,0.0,0.0,0.0,0.0,0.0,0.0,0.0,0.0,0.0,0.0,0.0,0.0,0.0,0.0,0.0,0.0,0.0,0.0,0.0,0.0,0.0,0.0,0.0,0.0,0.0,0.0,0.0,0.0,0.0,0.0,0.0,0.0,0.0,0.0,0.0,0.0,0.0,0.0,0.0,0.0,0.0,0.0,0.0,0.0,0.0,0.0,0.0,0.0,0.0,0.0,0.0,0.0,0.0,0.0,0.0,0.0,0.0,0.0,0.0,0.0,0.0,0.0,0.0,0.0,0.0,0.0,0.0,0.0,0.0,0.0,0.0,0.0,0.0,0.0,0.0,0.0,0.0,0.0,0.0,0.0,0.0,0.0,0.0,0.0,0.0,0.0,0.0,0.0,0.0,0.0,0.0,0.0,0.0,0.0,0.0,0.0,0.0,0.0,0.0,0.0,0.0,0.0,0.0,0.0,0.0,0.0,0.0,0.0,0.0,0.0,0.0,0.0,0.0,0.0,0.0,0.0,0.0,0.0,0.0,0.0,0.0,0.0,0.0,0.0,0.0,0.0,0.0,0.0,0.0,0.0,0.0,0.0,0.0,0.0,0.0,0.0,0.0,0.0,0.0,0.0,0.0,0.0,0.0,0.0,0.0,0.0,0.0,0.0,0.0,0.0,0.0,0.0,0.0,0.0,0.0,0.0,0.0,0.0,0.0,0.0,0.0,0.0,0.0,0.0,0.0,0.0,0.0,0.0,0.0,0.0,0.0,0.0,0.0,0.0,0.0,0.0,0.0,0.0,0.0,0.0,0.0,0.0,0.0,0.0,0.0,0.0,0.0,0.0,0.0,0.0,0.0,0.0,0.0,0.0,0.0,0.0,0.0,0.0,0.0,0.0,0.0,0.0,0.0,0.0,0.0,0.0,0.0,0.0,0.0,0.0,0.0,0.0,0.0,0.0,0.0,0.0,0.0,0.0,0.0,0.0,0.0,0.0,0.0,0.0,0.0,0.0,0.0,0.0,0.0,0.0,0.0,0.0,0.0,0.0,0.0,0.0,0.0,0.0,0.0,0.0,0.0,0.0,0.0,0.0,0.0,0.0,0.0,0.0,0.0,0.0,0.0,0.0,0.0,0.0,0.0,0.0,0.0,0.0,0.0,0.0,0.0,0.0,0.0,0.0,0.0,0.0,0.0,0.0,0.0,0.0,0.0,0.0,0.0,0.0,0.0,0.0,0.0,0.0,0.0,0.0,0.0,0.0,0.0,0.0,0.0,0.0,0.0,0.0,0.0,0.0,0.0,0.0,0.0,0.0,0.0,0.0,0.0,0.0,0.0,0.0,0.0,0.0,0.0,0.0,0.0,0.0,0.0,0.0,0.0,0.0,0.0,0.0,0.0,0.0,0.0,0.0,0.0,0.0,0.0,0.0,0.0,0.0,0.0,0.0,0.0,0.0,0.0,0.0,0.0,0.0,0.0,0.0,0.0,0.0,0.0,0.0,0.0,0.0,0.0,0.0,0.0,0.0,0.0,0.0,0.0,0.0,0.0,0.0,0.0,0.0,0.0,0.0,0.0,0.0,0.0,0.0,0.0,0.0,0.0,0.0,0.0,0.0,0.0,0.0,0.0,0.0,0.0,0.0,0.0,0.0,0.0,0.0,0.0,0.0,0.0,0.0,0.0,0.0,0.0,0.0,0.0,0.0,0.0,0.0,0.0,0.0,0.0,0.0,0.0,0.0,0.0,0.0,0.0,0.0,0.0,0.0,0.0,0.0,0.0,0.0,0.0,0.0,0.0,0.0,0.0,0.0,0.0,0.0,0.0,0.0,0.0,0.0,0.0,0.0,0.0,0.0,0.0,0.0,0.0,0.0,0.0,0.0,0.0,0.0,0.0,0.0,0.0,0.0,0.0,0.0,0.0,0.0,0.0,0.0,0.0,0.0,0.0,0.0,0.0,0.0,0.0,0.0,0.0,0.0,0.0,0.0,0.0,0.0,0.0,0.0,0.0,0.0,0.0,-1.9034,-2.205,0.0,0.0,0.0,0.0,0.0,0.0,0.0,0.0,0.0,0.0,0.0,0.0,0.0,0.0,0.0,0.0,0.0,0.0,0.0,0.0,0.0,0.0,0.0,0.0,0.0,0.0,0.0,0.0,0.0,0.0,0.0,0.0,0.0,0.0,0.0,0.0,0.0,3.438,3.3668,3.2681,3.1422,3.2189,3.3388,3.4699,0.0,0.0,0.0,0.0,0.0,0.0,0.0,0.0,0.0,0.0,0.0,0.0,0.0,0.0,0.0,0.0,0.0,0.0,0.0,0.0,0.0,0.0,0.0,0.0,0.0,0.0,0.0,0.0,0.0,0.0,0.0,0.0,0.0,0.0,0.0,0.0,0.0,0.0,0.0,0.0,0.0,0.0,0.0,0.0,0.0,0.0,0.0,0.0,0.0,0.0,0.0,0.0,0.0,0.0,0.0,0.0,0.0,0.0,0.0,0.0,0.0,0.0,0.0,0.0,0.0,0.0,0.0,0.0,0.0,0.0,-1.7445,-1.952,0.0,0.0,0.0,0.0,0.0,0.0,0.0,0.0,0.0,0.0,0.0,0.0,0.0,0.0,0.0,0.0,0.0,0.0,0.0,0.0,0.0,0.0,0.0,0.0,3.6211,3.6677,3.6554,3.6461,0.0,0.0,0.0,0.0,0.0,0.0,0.0,3.4356,3.3699,3.2434,3.1243,2.9871,2.8294,2.8252,2.972,3.2327,3.1947,0.0,0.0,0.0,0.0,0.0,0.0,0.0,0.0,0.0,0.0,0.0,0.0,0.0,0.0,0.0,0.0,0.0,0.0,0.0,0.0,0.0,0.0,0.0,0.0,0.0,0.0,0.0,0.0,0.0,0.0,0.0,0.0,0.0,0.0,0.0,0.0,0.0,0.0,0.0,0.0,0.0,0.0,0.0,0.0,0.0,0.0,0.0,0.0,0.0,0.0,0.0,0.0,0.0,0.0,0.0,0.0,0.0,0.0,0.0,0.0,0.0,0.0,0.0,-1.4657,-1.4632,-1.4232,-1.4956,-1.4899,-1.4264,-1.4282,-1.5136,-1.6443,-1.8904,0.0,0.0,0.0,0.0,0.0,0.0,0.0,0.0,0.0,0.0,0.0,0.0,0.0,0.0,0.0,0.0,0.0,0.0,0.0,0.0,0.0,3.6085,3.6211,3.6677,3.5879,3.5752,0.0,0.0,0.0,0.0,0.0,0.0,3.4128,3.3548,3.2536,3.1243,2.9299,2.7992,2.7308,2.6447,2.6147,2.652,2.8463,3.0351,3.2082,0.0,0.0,0.0,0.0,0.0,0.0,0.0,0.0,0.0,0.0,0.0,0.0,0.0,0.0,0.0,0.0,0.0,0.0,0.0,0.0,0.0,0.0,0.0,0.0,0.0,0.0,0.0,0.0,0.0,0.0,0.0,0.0,0.0,0.0,0.0,0.0,0.0,0.0,0.0,0.0,0.0,0.5038,0.6845,0.0,0.0,0.0,0.0,0.0,0.0,0.0,0.0,0.0,0.0,0.0,0.0,0.0,-1.6053,-1.6047,-1.3951,-1.3039,-1.3318,-1.2743,-1.2061,-1.1339,-1.0824,-1.0213,-0.9303,-0.8498,0.0,-1.6118,-1.8667,0.0,0.0,0.0,0.0,0.0,0.0,0.0,0.0,0.0,0.0,0.0,0.0,0.0,0.0,0.0,0.0,0.0,0.0,0.0,0.0,0.0,3.5524,3.5444,3.5672,3.5118,3.492,3.5335,3.4787,0.0,0.0,0.0,3.3659,3.3339,3.2676,3.1114,2.856,2.7485,2.6173,2.4882,2.4544,2.4364,2.4366,2.5532,2.7174,2.9238,3.0673,0.0,0.0,0.0,0.0,0.0,0.0,0.0,0.0,0.0,0.0,0.0,0.0,0.0,0.0,0.0,0.0,0.0,0.0,0.0,0.0,0.0,0.0,0.0,0.0,0.0,0.0,0.0,0.0,0.0,0.0,0.0,0.0,0.0,0.0,0.0,0.0,0.0,0.0,0.0,0.5563,0.3783,0.5894,0.3992,0.3098,0.0,0.0,0.0,0.0,0.0,0.0,0.0,0.0,0.0,-1.2325,-1.4835,-1.5184,-1.2894,-1.2899,-1.3017,-1.3352,-1.2957,-1.2299,-1.136,-1.1155,-1.0125,-0.8481,-0.8066,-0.8954,-1.0877,-1.4081,-1.6508,-1.8414,0.0,0.0,0.0,0.0,-1.9866,-1.9213,0.0,0.0,0.0,0.0,0.0,0.0,0.0,0.0,0.0,0.0,0.0,0.0,3.5359,3.4935,3.4721,3.4721,3.4399,3.4124,3.4033,3.3965,0.0,3.3436,3.3121,3.2694,3.2164,3.1083,2.9185,2.6405,2.5608,2.4372,2.2687,2.2766,2.2621,2.2446,2.2872,2.4493,2.7024,2.8941,3.0397,3.1446,0.0,0.0,0.0,0.0,0.0,0.0,0.0,0.0,0.0,0.0,0.0,0.0,0.0,0.0,0.0,0.0,0.0,0.0,0.0,0.0,0.0,0.0,0.0,0.0,0.0,0.0,0.0,0.0,0.0,0.0,0.0,0.0,0.0,0.0,0.0,0.0,0.0,0.399,0.2198,0.4312,0.18,0.04,0.0,0.0,0.0,0.0,0.0,0.0,-0.8975,-1.1895,-1.3019,-1.1889,-1.4184,-1.3895,-1.0602,-1.2264,-1.3292,-1.348,-1.348,-1.2982,-1.1983,-1.1671,-1.0414,-0.8632,-0.8319,-0.7611,-0.6958,-1.0426,-1.3048,-1.5119,-1.6494,-1.7044,-1.7212,-1.6817,-1.6394,-1.5853,0.0,0.0,0.0,0.0,0.0,0.0,0.0,0.0,0.0,0.0,0.0,3.4935,3.4935,3.4438,3.4153,3.4153,3.3825,3.3445,3.2997,3.2819,3.2348,3.1688,3.1084,3.0746,3.0788,2.8375,2.6554,2.5492,2.378,2.2422,2.1418,2.1047,2.0351,1.9558,2.07,2.3138,2.6386,2.6467,2.7528,2.9277,3.061,0.0,0.0,0.0,0.0,0.0,0.0,0.0,0.0,0.0,0.0,0.0,0.0,0.0,0.0,0.0,0.0,0.0,0.0,0.0,0.0,0.0,0.0,0.0,0.0,0.0,0.0,0.0,0.0,0.0,0.0,0.0,0.0,0.0,0.0,0.0,0.0,0.0,0.0,0.0301,-0.1706,0.0,0.0,0.0,0.0,-0.5447,-0.6747,-0.6839,-0.5429,-0.9669,-1.1211,-0.933,-1.2314,-1.3733,-1.3351,-1.3459,-1.347,-1.348,-1.348,-1.2961,-1.2101,-1.0928,-0.9754,-0.8682,-0.751,-0.7014,-0.6987,-0.9932,-1.1741,-1.2814,-1.578,-1.7251,-1.7689,-1.6641,-1.5029,-1.3297,0.0,0.0,0.0,0.0,0.0,0.0,0.0,0.0,3.6429,3.6226,3.5285,3.4691,3.4691,3.4016,3.3618,3.3618,3.3269,3.3031,3.296,3.2664,3.2286,3.179,3.1115,3.009,2.849,2.6959,2.5386,2.3803,2.3018,2.2201,2.1267,2.1127,2.1031,2.1213,2.1644,2.2705,2.433,2.546,2.6386,2.7185,2.8859,3.0085,0.0,0.0,0.0,0.0,0.0,0.0,0.0,0.0,0.0,0.0,0.0,0.0,0.0,0.0,0.0,0.0,0.0,0.0,0.0,0.0,0.0,0.0,0.0,0.0,0.0,0.0,0.0,0.0,0.0,0.0,0.0,0.0,0.0,0.0,0.0,0.0,0.0,-0.2296,-0.5579,0.0,-0.5852,-0.6254,-0.6747,-0.7125,-0.9014,-0.9759,-0.9042,-1.1969,-1.3441,-1.2749,-1.3491,-1.3946,-1.4014,-1.3805,-1.3776,-1.3938,-1.3938,-1.3331,-1.2309,-1.1877,-1.0574,-0.8838,-0.8407,-0.7677,-0.702,-0.8008,-0.8649,-0.9095,-1.0452,-1.1142,-1.1115,-1.0052,-0.9158,-0.8452,0.0,0.0,0.0,0.0,0.0,0.0,0.0,0.0,3.6289,3.5752,3.4942,3.4327,3.4192,3.3451,3.2988,3.2988,3.2704,3.2467,3.2333,3.1875,3.135,3.0801,2.9957,2.8451,2.6315,2.5477,2.4259,2.2646,2.2227,2.1744,2.1099,2.0957,2.1125,2.1493,2.1578,2.1899,2.2405,2.3731,2.4597,2.5187,2.6806,2.826,2.9425,0.0,0.0,0.0,0.0,0.0,0.0,0.0,0.0,0.0,0.0,0.0,0.0,0.0,0.0,0.0,0.0,0.0,0.0,0.0,0.0,0.0,0.0,0.0,0.0,0.0,0.0,0.0,0.0,0.0,0.0,0.0,0.0,0.0,0.0,-0.0792,-0.3658,-0.3593,-0.727,-0.9449,-0.8532,-0.9327,-1.0036,-1.0476,-1.1991,-1.2801,-1.2609,-1.4165,-1.5046,-1.4818,-1.4596,-1.441,-1.4367,-1.4155,-1.4131,-1.4196,-1.411,-1.3408,-1.2313,-1.1809,-1.0597,-0.8662,-0.8339,-0.775,-0.6923,-0.6923,-0.6912,-0.6933,-0.734,-0.7256,-0.6836,-0.6132,-0.5629,-0.5227,0.0,0.0,0.0,0.0,0.0,0.0,0.0,3.6693,3.6148,3.5255,3.4528,3.3879,3.3339,3.2775,3.2417,3.2417,3.2228,3.1809,3.0937,3.0364,2.9632,2.8641,2.7351,2.5987,2.4532,2.3808,2.3055,2.2165,2.1237,2.082,2.082,2.041,2.0223,2.0242,2.0485,2.0738,2.0928,2.1332,2.2155,2.3221,2.4458,2.5531,2.6521,0.0,0.0,0.0,0.0,0.0,0.0,0.0,0.0,0.0,0.0,0.0,0.0,0.0,0.0,0.0,0.0,0.0,0.0,0.0,0.0,0.0,0.0,0.0,0.0,0.0,0.0,0.0,0.0,0.0,0.0,0.0,0.0,0.0,0.2291,-0.1767,-0.4411,-0.3902,-0.6892,-0.9371,-1.0445,-1.1706,-1.3283,-1.5366,-1.5496,-1.5518,-1.5493,-1.5772,-1.5609,-1.5192,-1.5347,-1.5256,-1.4589,-1.4595,-1.4487,-1.4169,-1.3927,-1.3172,-1.1995,-1.0741,-0.9518,-0.8374,-0.722,-0.6801,-0.6801,-0.6801,-0.673,-0.6516,-0.683,-0.6441,-0.5625,-0.5532,-0.483,-0.3924,0.0,0.0,0.0,0.0,0.0,0.0,0.0,3.6554,3.6163,3.5103,3.4356,3.3728,3.3339,3.2646,3.2241,3.2241,3.1603,3.1269,3.1322,3.0346,2.9225,2.8026,2.6364,2.4981,2.4022,2.2821,2.184,2.1007,2.0203,1.9802,1.9972,1.986,2.0123,2.0719,2.0799,2.1144,2.1699,2.2381,2.2808,2.3134,2.314,2.4061,2.5385,0.0,0.0,0.0,0.0,0.0,0.0,0.0,0.0,0.0,0.0,0.0,0.0,0.0,0.0,0.0,0.0,0.0,0.0,0.0,0.0,0.0,0.0,0.0,0.0,0.0,0.0,0.0,0.0,0.0,0.0,0.0,0.1053,-0.1528,-0.1754,-0.413,-0.6732,-0.8856,-1.0937,-1.2711,-1.3968,-1.4453,-1.5063,-1.6051,-1.5692,-1.57,-1.6074,-1.5981,-1.5799,-1.5671,-1.5541,-1.5275,-1.4972,-1.4556,-1.4262,-1.3991,-1.3708,-1.2941,-1.1789,-1.0581,-0.9518,-0.8374,-0.722,-0.6695,-0.6479,-0.6695,-0.61,-0.5279,-0.6521,-0.6342,-0.5227,-0.4628,-0.3425,-0.2018,0.0,0.0,0.0,0.0,0.0,0.0,0.0,3.6739,3.6211,3.4824,3.4274,3.3713,3.2931,3.2458,3.2182,3.2182,3.1535,3.1191,3.1254,2.9684,2.8082,2.6539,2.5475,2.4504,2.3694,2.2596,2.1776,2.1262,2.0469,2.0235,2.0401,2.0401,2.0684,2.1312,2.1302,2.1609,2.2109,2.2642,2.3071,2.3282,2.3072,2.3678,2.4703,2.4252,2.4637,2.5419,2.5355,2.5407,2.5622,2.6166,0.0,0.0,0.0,0.0,0.0,0.0,0.0,0.0,0.0,0.0,0.0,0.0,0.0,0.0,0.0,0.0,0.0,0.0,0.0,0.0,0.0,0.0,0.0,0.0,-0.0474,-0.3228,-0.5041,-0.6276,-0.772,-0.9678,-1.1165,-1.2533,-1.3794,-1.4376,-1.503,-1.6025,-1.5965,-1.591,-1.6156,-1.6088,-1.5897,-1.5411,-1.5211,-1.4978,-1.4602,-1.4297,-1.4023,-1.3685,-1.3373,-1.2908,-1.2186,-1.0459,-0.9407,-0.8798,-0.7264,-0.6543,-0.6336,-0.613,-0.5476,0.0,0.0,0.0,0.0,0.0,-0.1916,-0.101,0.0,0.0,0.0,0.0,0.0,0.0,0.0,3.7105,3.6336,3.4581,3.438,3.3782,3.2372,3.2241,3.2255,3.2182,3.167,3.1157,3.0555,2.8612,2.6663,2.4909,2.4743,2.4299,2.3593,2.2852,2.2327,2.2101,2.1482,2.1308,2.1538,2.1538,2.169,2.1918,2.2048,2.2264,2.2499,2.2702,2.3112,2.3689,2.3765,2.4015,2.4287,2.3799,2.3632,2.3751,2.3924,2.3939,2.3919,2.4437,0.0,0.0,0.0,0.0,0.0,0.0,0.0,0.0,0.0,0.0,0.0,0.0,0.0,0.0,0.0,0.0,0.0,0.0,0.0,0.0,0.0,0.0,0.0,0.0,-0.1129,-0.3612,-0.7298,-0.7824,-0.7885,-0.8219,-0.9312,-1.0489,-1.1658,-1.2829,-1.4217,-1.5764,-1.6085,-1.6005,-1.5819,-1.6031,0.0,0.0,0.0,-1.4401,-1.3931,-1.3824,-1.3716,-1.3496,-1.2867,-1.2662,-1.2752,-1.0173,-0.9114,-0.9213,-0.7229,-0.6337,-0.6137,-0.5133,-0.4634,-0.4438,-0.461,-0.3369,-0.1412,-0.0606,-0.0505,-0.0707,0.0,0.0,0.0,0.0,0.0,0.0,0.0,3.7105,3.6476,3.5008,3.4662,3.4056,3.2775,3.2431,3.2286,3.2182,3.1168,2.9913,2.8417,2.6798,2.566,2.5181,2.4587,2.4032,2.3372,2.2927,2.2478,2.2101,2.1482,2.1395,2.1766,2.1907,2.2145,2.2542,2.2734,2.2872,2.2957,2.3526,2.3875,2.405,2.4594,2.455,2.4157,2.3774,2.3223,2.2652,2.2332,2.1814,2.1424,2.2766,2.2727,2.2351,2.2989,2.3223,0.0,0.0,0.0,0.0,0.0,0.0,0.0,0.0,0.0,0.0,0.0,0.0,0.0,0.0,0.0,0.0,0.0,0.0,0.0,0.0749,-0.2546,-0.5536,-0.7498,-0.7919,-0.8396,-0.9505,-0.9801,-1.0877,-1.2926,-1.3318,-1.4217,-1.5764,-1.5395,-1.5206,-1.5547,-1.5056,-1.4613,-1.4356,-1.4356,-1.4236,-1.3885,-1.3679,-1.348,-1.3193,0.0,0.0,-1.1526,-0.9023,-0.7925,-0.7925,-0.6434,-0.5636,-0.5338,-0.4732,-0.3624,-0.2218,-0.2226,-0.182,-0.121,-0.0404,-0.0101,-0.0202,0.0,0.0,0.0,0.0,0.0,0.0,0.0,3.7464,3.6831,3.5449,3.5175,3.4647,3.3381,3.3171,3.2919,3.243,3.1075,2.9384,2.7451,2.6502,2.566,2.4707,2.4394,2.397,2.3593,2.3372,2.315,2.2852,2.2542,2.2606,2.2979,2.3128,2.3361,2.3751,2.3936,2.407,2.407,2.4492,2.4707,2.4707,2.5099,2.4976,2.46,2.3755,2.2896,2.2036,2.1322,2.0771,2.0367,2.0742,2.059,2.0276,2.1213,2.145,2.1403,0.0,0.0,0.0,0.0,0.0,0.0,0.0,0.0,0.0,0.0,0.0,0.0,0.0,0.0,0.8301,0.7862,0.0,0.1844,-0.0375,-0.3146,-0.5625,-0.7609,-0.7991,-0.8237,-0.892,-0.9019,-0.9899,-1.2145,-1.2344,-1.3177,-1.5177,-1.4967,-1.4766,-1.4865,-1.4555,-1.4123,-1.369,-1.3685,-1.3574,-1.3335,-1.3232,-1.2774,-1.216,-1.137,-1.0779,-1.0288,-0.8322,-0.7431,-0.7531,-0.6134,-0.5233,-0.4531,-0.312,-0.1612,-0.0202,-0.03,-0.05,-0.0504,-0.0101,0.0,0.0,0.0,0.0,0.0,0.0,0.0,0.0,0.0,3.7759,3.7254,3.5961,3.5691,3.524,3.4056,3.3919,3.3496,3.2567,3.1016,2.9222,2.7324,2.6828,2.5963,2.4478,2.4406,2.4261,2.3897,2.3897,2.3824,2.3593,2.3593,2.3824,2.42,2.4273,2.449,2.4861,2.5052,2.5111,2.5182,2.5241,2.5312,2.5312,2.5312,2.5241,2.4969,2.3998,2.3032,2.1983,2.1068,2.0682,2.043,1.9381,1.8913,1.8895,1.9668,1.9592,1.9634,2.0895,2.047,0.0,0.0,0.0,0.0,0.0,0.0,0.0,0.0,1.0989,0.9756,0.8289,0.6802,0.5582,0.526,0.3447,0.1203,-0.1512,-0.3281,-0.5216,-0.7617,-0.8038,-0.8038,-0.8038,-0.8038,-0.8726,-1.0681,-1.0881,-1.1752,-1.3987,-1.415,-1.4132,-1.3988,-1.3751,-1.3428,-1.2736,-1.2532,-1.2345,-1.217,-1.217,-1.177,-1.0877,-1.0485,-0.9895,-0.9213,-0.763,-0.6936,-0.6828,-0.5429,-0.4227,-0.3118,-0.1405,0.01,0.1103,0.0885,0.0591,0.01,0.01,0.0297,0.0488,0.0,0.0,0.0,0.0,0.0,0.0,0.0,0.0,3.7389,3.643,3.6039,3.5514,3.4595,3.4274,3.3595,3.2349,3.0578,2.9129,2.8403,2.7232,2.6158,2.5241,2.517,2.4743,2.3897,2.3897,2.3824,2.3593,2.3593,2.3824,2.42,2.4345,2.4706,2.5052,2.5182,2.5312,2.5312,2.5312,2.5312,2.5312,2.5312,2.5241,2.5123,2.4969,2.4143,2.3032,2.1983,2.1821,2.1725,1.9687,1.952,2.0041,1.8975,1.9011,1.9594,1.9604,1.9938,2.0292,1.9855,1.7814,1.5688,1.5079,1.3206,1.1343,0.0,0.9091,0.7774,0.7516,0.6028,0.4739,0.4647,0.3028,0.0931,-0.1538,-0.3307,-0.5216,-0.7617,-0.8038,-0.8038,-0.8038,-0.8038,-0.8432,-0.9706,-0.9805,-1.0371,-1.1864,-1.2216,-1.2407,-1.263,-1.1944,-1.1526,-1.1404,-1.052,-1.0019,-1.0002,-1.0002,-0.9903,-0.9805,-0.8814,-0.8219,-0.8124,-0.6736,-0.5534,-0.4325,-0.2718,-0.1612,-0.0805,-0.0297,0.0295,0.0885,0.0964,0.0862,0.0576,0.0576,0.1149,0.1911,0.0,0.0,0.0,0.0,0.0,0.0,0.0,0.0,0.0,3.6937,3.6569,3.6117,3.5479,3.4682,3.3768,3.2718,3.1276,2.9873,2.8698,2.7762,2.6909,2.6102,2.5975,2.5779,2.537,2.537,2.5288,2.5264,2.5217,2.5358,2.5639,2.5709,2.5931,2.622,2.6277,2.6277,2.6277,2.6277,2.6277,2.6277,2.5943,2.5734,2.5523,2.5182,2.4611,2.3948,2.3316,2.301,0.0,2.0623,2.0081,2.0012,1.8576,1.8825,1.9599,1.9678,1.958,1.907,1.6887,1.5614,1.4414,1.3031,1.1417,1.0048,0.9196,0.7516,0.5931,0.4982,0.3301,0.1889,0.1928,0.1117,-0.0095,-0.1941,-0.2957,-0.4287,-0.6728,-0.7039,-0.7338,-0.7939,-0.8038,-0.8432,-0.9509,-0.9608,-1.013,-1.1293,-1.1325,-1.1315,-1.15,-1.0829,-1.0485,-1.0485,-0.9899,-0.9608,-0.9608,-0.9608,-0.9312,-0.8616,-0.8219,-0.7627,-0.703,-0.6339,-0.5135,-0.3626,-0.1713,-0.0605,-0.0101,0.0593,0.1079,0.1273,0.1328,0.1593,0.1969,0.1612,0.1796,0.2245,0.0,0.0,0.0,0.0,0.0,0.0,0.0,0.0,0.0,0.0,3.7013,3.6646,3.6037,3.5052,3.4137,3.3458,3.2178,3.0797,2.9519,2.8716,2.7907,2.7031,2.6909,2.6786,2.6526,2.6471,2.6458,2.6433,2.6458,2.6539,2.6731,2.6799,2.6947,2.704,2.7095,2.7095,2.704,2.704,2.704,2.704,2.6564,2.6358,2.6139,2.5594,2.5324,2.5099,2.4348,2.3963,2.3588,2.1803,2.1187,2.0891,1.9256,1.9274,1.9904,2.006,1.9728,1.8665,1.5734,1.4358,1.3233,1.1348,0.9643,0.8345,0.7643,0.6216,0.4712,0.3489,0.1704,0.0362,0.0371,0.0,-0.0768,-0.2063,-0.2495,-0.3522,-0.5932,-0.6334,-0.6734,-0.7839,-0.8038,-0.8333,-0.9118,-0.9118,-0.9509,-1.0293,-1.0391,-1.0293,-1.0293,-0.9805,-0.9509,-0.9406,-0.9011,-0.8715,-0.8715,-0.8715,-0.8319,-0.7528,-0.7528,-0.703,-0.5937,-0.5031,-0.4028,-0.272,-0.0806,0.0201,0.05,0.1276,0.1554,0.1637,0.1768,0.2292,0.2937,0.3071,0.3059,0.3293,0.0,0.0,0.0,0.0,0.0,0.0,0.0,0.0,0.0,0.0,0.0,0.0,0.0,3.5381,3.4848,3.4505,3.2924,3.1743,3.1219,3.0273,2.9219,2.7986,2.792,2.7644,2.6883,2.6693,2.6557,2.6557,2.6557,2.6705,2.6921,2.7124,2.7204,2.7229,2.7417,2.7351,2.7162,2.7162,2.7162,2.7162,2.7027,2.6973,2.6905,2.6358,2.6414,2.6582,2.4755,2.4707,2.5229,2.3187,2.3176,2.3616,2.139,2.0566,2.0508,2.0547,2.0411,1.9854,1.7963,1.5061,1.2187,1.0883,0.8158,0.5822,0.5822,0.5013,0.4297,0.4297,0.2688,0.1362,0.1322,0.0381,-0.0772,-0.18,-0.2213,-0.3219,-0.5627,-0.6029,-0.6531,-0.7839,-0.8038,-0.8038,-0.8038,-0.8038,-0.8038,-0.8137,-0.8825,-0.9118,-0.892,-0.8627,-0.8329,-0.8021,-0.703,-0.6534,-0.6534,-0.6534,-0.6434,-0.6437,-0.6437,-0.5934,-0.4734,-0.2417,-0.121,-0.0806,0.0606,0.13,0.157,0.154,0.151,0.1572,0.2534,0.2869,0.3138,0.4926,0.5549,0.5636,0.0,0.0,0.0,0.0,0.0,0.0,0.0,0.0,0.0,0.0,0.0,0.0,0.0,0.0,0.0,0.0,3.4038,3.2867,3.1801,3.0922,3.0108,2.9233,2.8931,2.861,2.8403,2.8274,2.8274,2.8274,2.8274,2.8274,2.8352,2.8812,2.9052,2.9066,2.9129,2.9129,2.9002,2.8597,2.8365,2.8235,2.7842,2.7643,2.7443,2.6905,2.6756,2.6731,0.0,2.6389,2.6239,2.4826,2.4255,2.3895,2.2125,2.1628,2.1659,2.1471,2.0605,1.9316,1.7293,1.4766,1.224,0.9981,0.8177,0.67,0.5911,0.5015,0.43,0.43,0.3755,0.3256,0.3016,0.2277,0.1537,0.0799,-0.0302,-0.1713,-0.342,-0.4223,-0.5127,-0.6531,-0.7338,-0.7882,-0.8184,-0.8099,-0.8038,-0.8038,-0.8237,-0.8333,-0.8041,-0.7736,-0.7434,-0.7238,-0.6637,-0.6437,-0.6437,-0.6437,-0.6337,-0.6139,-0.5231,-0.483,-0.4734,-0.2317,-0.1109,-0.1007,0.0199,0.0889,0.1371,0.1232,0.1768,0.2764,0.2977,0.3931,0.5265,0.5802,0.6343,0.6881,0.0,0.0,0.0,0.0,0.0,0.0,0.0,0.0,0.0,0.0,0.0,0.0,0.0,0.0,0.0,0.0,0.0,3.4102,3.2826,3.2029,3.1253,3.0433,3.0115,2.9931,2.9931,2.9856,2.9856,2.9856,2.9623,2.9623,2.9856,3.0086,3.0254,3.0421,3.0495,3.0495,3.0421,3.0025,2.9827,2.9799,2.9192,2.8989,2.8961,2.8168,2.7855,0.0,2.7749,2.7617,2.7258,2.6271,2.5496,2.4791,2.3481,2.285,2.2349,2.1298,2.0265,1.8894,1.63,1.4296,1.2269,0.9657,0.8277,0.7312,0.6169,0.5458,0.5008,0.5008,0.5085,0.4952,0.4479,0.3865,0.3345,0.277,0.1794,0.04,-0.1406,-0.221,-0.3422,-0.5677,-0.6535,-0.7316,-0.813,-0.7952,-0.7994,-0.8197,-0.815,-0.7922,-0.762,-0.7366,-0.7039,-0.6542,-0.6339,-0.6237,-0.6137,-0.6137,-0.5834,-0.5236,-0.3623,-0.302,-0.3323,-0.1411,-0.0404,-0.0302,0.0396,0.088,0.1357,0.1594,0.23,0.3191,0.3952,0.5085,0.6331,0.6602,0.7316,0.7937,0.0,0.0,0.0,0.0,0.0,0.0,0.0,0.0,0.0,0.0,0.0,0.0,0.0,0.0,0.0,0.0,0.0,0.0,3.4181,3.3465,3.2649,3.1625,3.1537,3.1537,3.1537,3.1362,3.1232,3.1232,3.0659,3.0719,3.1232,3.0852,3.0911,3.1289,3.1507,3.1507,3.1289,3.1289,3.1474,3.1769,3.1042,3.0969,3.1142,3.0029,2.9656,2.9685,2.8634,2.826,2.8222,2.7523,2.6782,2.5943,2.5075,2.3925,2.2371,2.0081,1.9376,1.8567,1.5245,1.3562,1.2275,0.9826,0.8532,0.757,0.6605,0.6428,0.6428,0.6517,0.6502,0.6355,0.5775,0.5227,0.4662,0.3992,0.3718,0.266,0.0,-0.0201,-0.1414,-0.5259,-0.5775,-0.6368,-0.7861,-0.7762,-0.7871,-0.8397,-0.836,-0.8064,-0.7446,-0.7315,-0.6839,-0.6042,-0.5942,-0.5839,-0.5636,-0.5536,-0.4931,-0.3924,-0.1813,-0.0806,-0.0806,0.0303,0.0909,0.1209,0.1187,0.1358,0.1616,0.2514,0.2918,0.3223,0.5267,0.6157,0.6334,0.7496,0.8372,0.8803,0.0,0.0,0.0,0.0,0.0,0.0,0.0,0.0,0.0,0.0,0.0,0.0,0.0,0.0,0.0,0.0,0.0,0.0,3.5462,3.4527,3.3692,3.2928,3.2407,3.2084,3.2084,3.2069,3.2013,3.2013,3.1901,3.1886,3.2013,3.2454,3.2671,3.2687,3.2864,3.2902,3.2833,3.2299,3.2143,3.2222,3.1713,3.1444,3.1215,3.0526,2.995,2.9518,2.9156,2.8725,2.8222,2.7776,2.6514,2.4648,2.268,2.1314,2.0139,1.8991,1.7454,1.5898,1.4859,1.3171,1.1386,0.9836,0.8794,0.783,0.6691,0.6428,0.6688,0.7727,0.8257,0.8488,0.8657,0.706,0.5405,0.4467,0.2473,0.0706,0.0,-0.072,-0.1964,-0.4105,-0.4978,-0.6083,-0.7672,-0.7788,-0.7834,-0.8153,-0.7842,-0.7443,-0.6824,-0.6707,-0.6337,-0.5737,-0.5737,-0.5636,-0.5636,-0.4632,-0.3626,-0.2819,-0.1007,-0.0403,-0.0806,0.0505,0.1003,0.0889,0.0872,0.1424,0.2232,0.2459,0.3685,0.5359,0.5891,0.6691,0.7584,0.8368,0.8715,0.9065,0.0,0.0,0.0,0.0,0.0,0.0,0.0,0.0,0.0,0.0,0.0,0.0,0.0,0.0,0.0,0.0,0.0,0.0,0.0,3.5701,3.4889,3.4237,3.3471,3.3066,3.3077,3.3077,3.3077,3.3077,3.2848,3.2848,3.3077,3.3411,3.3582,3.3681,3.3919,3.3969,3.3885,3.3463,3.3431,0.0,0.0,3.2732,3.2392,3.1747,3.1013,3.0179,2.9794,2.8607,2.7206,2.6357,2.5085,2.3531,2.1866,2.0623,1.9487,1.8089,1.6472,1.492,1.4028,1.2857,1.1666,1.0626,0.9666,0.8873,0.8428,0.7826,0.7742,0.9209,0.9826,1.0139,0.999,0.8299,0.6611,0.5653,0.3331,0.1407,0.0827,0.0311,-0.0731,-0.2679,-0.3895,-0.5017,-0.6048,-0.6498,-0.6636,-0.6248,-0.6973,-0.722,-0.67,-0.6532,-0.6137,-0.5438,-0.5436,-0.5135,-0.4529,-0.2819,-0.1813,-0.1309,0.0,0.0504,0.0303,0.101,0.13,0.1177,0.1635,0.2072,0.2768,0.3609,0.4736,0.5983,0.6517,0.7143,0.7852,0.8715,0.924,0.9676,0.0,0.0,0.0,0.0,0.0,0.0,0.0,0.0,0.0,0.0,0.0,0.0,0.0,0.0,0.0,0.0,0.0,0.0,0.0,0.0,3.6095,3.5399,3.4743,3.43,3.4201,3.4201,3.4201,3.4201,3.3681,3.3732,3.4284,3.4021,3.4186,3.4578,3.4785,3.4833,3.4675,3.4643,3.4835,3.5135,3.4594,3.4218,3.3935,0.0,3.217,3.1102,3.0297,2.8295,2.5758,2.4389,2.3341,2.251,2.1649,2.0613,1.939,1.734,1.5973,1.483,1.3112,1.2705,1.2443,1.1494,1.0712,1.0178,1.0763,0.974,0.9144,1.0778,1.1225,1.1154,1.0636,0.9337,0.7902,0.6886,0.5108,0.3279,0.165,0.1765,0.1052,-0.1413,-0.2658,-0.3467,-0.3799,-0.4697,-0.4808,-0.4023,-0.5847,-0.6904,-0.6482,-0.6261,-0.5636,-0.4836,-0.4736,-0.413,-0.282,-0.0907,0.0101,0.0202,0.1111,0.1617,0.1617,0.1613,0.1694,0.1857,0.268,0.3095,0.3399,0.5044,0.5808,0.5985,0.7058,0.7503,0.7764,0.8886,0.9758,1.0549,0.0,0.0,0.0,0.0,0.0,0.0,0.0,0.0,0.0,0.0,4.0238,3.9986,0.0,0.0,0.0,0.0,0.0,0.0,0.0,0.0,0.0,3.639,3.5927,3.5398,3.4756,3.4739,3.4739,3.4739,3.4643,3.4818,3.5195,3.527,3.5481,3.5776,3.5694,3.565,3.5644,3.5396,3.5412,3.5487,3.5135,3.4578,3.3935,3.3355,0.0,0.0,2.9856,2.7971,2.5758,2.4412,2.2985,2.139,1.9904,1.8868,1.7794,1.6339,1.5267,1.4273,1.3039,1.2705,1.2443,1.1494,1.1149,1.0971,1.0692,1.0178,1.0178,1.1986,1.1832,1.1413,1.1929,1.0682,0.8729,0.6029,0.4667,0.3217,0.0931,0.0946,0.0534,-0.0871,-0.144,-0.2126,-0.3131,-0.3691,-0.3804,-0.3691,-0.4008,-0.4247,-0.4676,-0.4521,-0.3828,-0.2621,-0.2319,-0.1713,-0.0605,-0.0202,0.0403,0.1313,0.1515,0.1617,0.1616,0.1591,0.205,0.2775,0.2906,0.0,0.5211,0.5549,0.6163,0.6874,0.7054,0.7669,0.8456,0.9405,1.0361,1.1214,0.0,0.0,0.0,0.0,0.0,0.0,0.0,4.103,4.0814,4.0717,4.0474,4.0206,3.9952,3.9817,3.9731,0.0,0.0,0.0,0.0,0.0,0.0,0.0,3.629,3.5629,3.4916,3.4899,3.4899,3.4899,0.0,3.5241,3.5424,3.5898,3.6156,3.6199,3.6343,3.6259,3.6011,3.5871,3.5711,3.5577,3.5396,3.4785,3.3969,0.0,0.0,0.0,3.0054,2.8231,2.6058,2.5526,2.3598,2.1227,1.9678,1.8487,1.7496,1.6355,1.5365,1.4371,1.33,1.3052,1.2966,1.2363,1.1843,1.1666,1.2419,1.1729,1.1472,1.319,1.2948,1.2448,1.2534,1.1127,0.9376,0.798,0.564,0.3626,0.2471,0.1473,0.0644,0.0109,-0.0665,-0.1119,-0.1007,-0.1679,-0.1895,-0.1327,-0.1618,-0.2339,-0.3296,-0.2981,-0.242,-0.1815,-0.1109,-0.0504,0.0,0.0504,0.1111,0.1617,0.1617,0.1617,0.1615,0.2078,0.2619,0.3045,0.4005,0.4922,0.5719,0.6251,0.6697,0.7139,0.7665,0.8105,0.8715,1.0101,1.0885,1.1397,0.0,0.0,0.0,0.0,0.0,0.0,0.0,4.1385,4.1251,4.1069,4.0771,4.0424,4.0086,3.9935,3.9868,0.0,0.0,0.0,0.0,0.0,0.0,0.0,0.0,0.0,3.4916,0.0,0.0,3.5024,3.5258,0.0,0.0,0.0,0.0,0.0,3.6811,3.6673,3.6182,3.6114,3.5898,0.0,0.0,3.488,3.3986,0.0,0.0,0.0,0.0,2.8707,2.6697,2.6511,2.4661,2.2093,2.0566,1.9256,1.8132,1.7058,1.607,1.5094,1.3802,1.3398,1.3392,1.3228,1.2619,1.2528,1.4139,1.336,1.2681,1.4139,1.3808,1.3137,1.279,1.1583,1.0499,1.003,0.7468,0.5214,0.418,0.2719,0.1605,0.1085,0.0221,-0.0112,0.0897,0.0112,-0.0111,0.0876,0.0322,-0.0634,-0.2103,-0.1536,-0.121,-0.1009,-0.0101,0.0303,0.0303,0.1212,0.1617,0.1617,0.1617,0.1714,0.1906,0.2653,0.3178,0.3685,0.5177,0.5899,0.6074,0.7048,0.7404,0.7489,0.8452,0.889,0.924,1.0717,1.1408,1.1746,0.0,0.0,0.0,0.0,0.0,0.0,0.0,4.2008,4.1648,4.164,4.118,4.0745,4.0468,4.0136,3.9885,0.0,0.0,0.0,0.0,0.0,0.0,0.0,0.0,0.0,0.0,0.0,0.0,3.5333,3.5211,0.0,0.0,0.0,0.0,0.0,0.0,3.6696,3.6533,3.6174,0.0,0.0,0.0,0.0,0.0,0.0,0.0,0.0,0.0,2.9233,2.792,2.6697,2.5644,2.459,2.308,2.1628,2.0178,1.8417,1.7772,1.6993,1.4203,1.3398,1.3398,1.3398,1.3307,1.3555,1.472,1.3971,1.33,1.4482,1.3633,1.279,1.2705,1.2963,1.2472,1.0219,1.017,0.9045,0.4906,0.4448,0.3817,0.1813,0.1319,0.1121,0.1234,0.0897,0.0779,0.0876,0.0955,0.062,-0.0507,-0.0303,0.0202,0.0909,0.1313,0.1414,0.1414,0.1516,0.1617,0.1617,0.1617,0.2,0.2845,0.2986,0.3964,0.5542,0.57,0.6174,0.0,0.8017,0.8368,0.8452,0.9405,1.0274,1.1063,1.1241,1.1843,1.2668,0.0,0.0,0.0,0.0,0.0,0.0,4.2609,4.2391,4.2169,4.1959,4.1596,4.1255,4.0888,4.0549,4.0269,4.002,0.0,0.0,0.0,0.0,0.0,0.0,0.0,0.0,0.0,0.0,3.4977,3.5211,3.535,0.0,0.0,0.0,0.0,0.0,0.0,3.6736,3.6284,3.6114,0.0,0.0,0.0,0.0,0.0,0.0,0.0,0.0,0.0,0.0,2.8365,2.7855,2.6667,2.5402,2.5344,2.399,2.192,1.9321,1.8356,1.7565,1.5123,1.4159,1.3743,1.3652,1.3977,1.4552,1.5137,1.5144,1.5061,1.4887,1.4384,1.3633,1.2875,1.3151,1.3229,1.2188,1.1527,1.0524,0.8648,0.7038,0.5432,0.381,0.3148,0.2436,0.1681,0.1556,0.142,0.1381,0.1451,0.1221,0.0808,0.0908,0.1111,0.1415,0.1516,0.1617,0.1617,0.1617,0.1919,0.2521,0.2521,0.3111,0.4074,0.4681,0.526,0.5996,0.6521,0.6866,0.0,0.8105,0.8544,0.8627,1.0193,1.0971,1.1413,1.1929,1.2693,1.3522,0.0,0.0,0.0,0.0,0.0,4.2862,4.2862,4.2747,4.2591,4.2269,4.1941,4.1613,4.114,4.0953,4.0648,4.0271,4.0221,0.0,0.0,0.0,0.0,0.0,0.0,0.0,0.0,0.0,3.5088,3.5321,3.5503,3.5684,0.0,0.0,3.6609,3.6402,0.0,0.0,0.0,0.0,0.0,0.0,0.0,0.0,0.0,0.0,0.0,0.0,0.0,0.0,0.0,0.0,0.0,2.5995,2.6471,2.5296,2.3218,2.0463,1.9141,1.8099,1.5896,1.4754,1.4082,1.3913,1.4413,1.5,1.5337,1.5748,1.5904,1.5068,1.474,1.4139,1.2954,1.3151,1.3513,1.3513,1.2692,1.1808,1.1215,0.9594,0.7817,0.6059,0.543,0.466,0.33,0.2931,0.2662,0.2701,0.2548,0.2521,0.2521,0.222,0.1919,0.1617,0.1617,0.1717,0.212,0.212,0.2622,0.3624,0.3624,0.4212,0.528,0.5899,0.6263,0.6482,0.7407,0.7728,0.0,0.8803,0.9323,0.9497,1.1063,1.1671,1.1843,1.2784,1.3457,1.4041,0.0,0.0,0.0,0.0,0.0,0.0,4.3479,4.3142,4.2806,4.2609,4.2187,4.1675,4.114,4.1093,4.0935,4.0534,4.0485,0.0,0.0,0.0,0.0,0.0,0.0,0.0,0.0,0.0,3.5475,3.5773,3.5611,3.5656,3.6019,3.6071,3.6097,3.6114,0.0,0.0,0.0,0.0,0.0,0.0,0.0,0.0,0.0,0.0,0.0,0.0,0.0,0.0,0.0,0.0,0.0,0.0,0.0,2.5045,2.3897,2.2006,2.0492,1.887,1.642,1.496,1.4088,1.4088,1.4434,1.4933,1.5408,1.5481,1.5313,1.4904,1.4413,1.3711,1.2875,1.3151,1.3513,1.3513,1.3954,1.3499,1.1414,1.1762,1.1174,0.8275,0.8193,0.7874,0.6545,0.5527,0.4858,0.4858,0.4774,0.4724,0.4724,0.3725,0.2722,0.1617,0.1617,0.212,0.3123,0.3224,0.3723,0.4824,0.4824,0.5275,0.6158,0.6155,0.6602,0.7464,0.8355,0.8702,0.0,1.0544,1.1241,1.1413,1.2357,1.2705,1.2784,1.3626,1.3957,1.4294,0.0,0.0,0.0,0.0,0.0,0.0,0.0,4.3375,4.316,4.267,4.2472,4.2086,4.138,4.1307,4.1215,4.0935,4.0631,0.0,0.0,0.0,0.0,0.0,0.0,0.0,0.0,0.0,3.5383,3.5566,3.5537,3.5566,3.5711,3.5985,3.5985,3.5783,3.6071,3.5941,0.0,0.0,0.0,0.0,0.0,0.0,3.1233,0.0,0.0,0.0,0.0,0.0,0.0,0.0,0.0,0.0,0.0,0.0,0.0,2.2684,2.1261,1.9683,1.7893,1.6613,1.5717,1.5489,1.5818,1.6285,1.6686,1.6909,1.6905,1.6411,1.5471,1.453,1.3806,1.3894,1.4113,1.4302,1.4916,1.5051,1.4447,1.3147,1.1668,0.9887,0.7498,0.5894,0.5415,0.5076,0.4832,0.4873,0.4841,0.4824,0.4824,0.4524,0.4124,0.3825,0.3124,0.3224,0.4323,0.4323,0.4826,0.5932,0.5932,0.6369,0.7324,0.7324,0.7641,0.8355,0.8713,0.9055,0.9579,1.0799,1.1327,1.1408,1.2357,1.3039,1.3626,1.3873,1.4789,1.5951,0.0,0.0,0.0,0.0,0.0,0.0,0.0,4.3463,4.3251,4.2688,4.2552,4.2251,4.1453,4.138,4.1307,4.1093,4.0888,0.0,0.0,0.0,0.0,0.0,0.0,0.0,3.7398,3.6134,3.552,3.552,3.552,3.5549,3.5622,3.581,3.5827,3.5622,3.5694,3.5453,0.0,0.0,0.0,0.0,0.0,0.0,3.0807,0.0,0.0,0.0,0.0,0.0,0.0,0.0,0.0,0.0,0.0,0.0,0.0,0.0,2.1855,2.0535,1.8701,1.7365,1.648,1.6102,1.6445,1.6843,1.7139,1.7544,1.7692,1.679,1.6129,1.5322,1.4349,1.4477,1.4676,1.4778,1.535,1.5635,1.5146,1.3974,1.2554,1.0996,0.8414,0.6613,0.6441,0.6233,0.6002,0.6034,0.6029,0.6029,0.6029,0.5627,0.5627,0.6027,0.4526,0.4325,0.5427,0.5427,0.5909,0.6961,0.6961,0.7189,0.7729,0.8104,0.843,0.88,0.9521,1.0032,0.0,1.1408,1.1843,1.1929,1.2448,1.3209,1.4041,1.4384,1.5455,1.678,0.0,0.0,0.0,0.0,0.0,0.0,0.0,4.3446,4.3233,4.2688,4.2494,4.2151,4.1498,4.1426,4.1335,4.114,0.0,0.0,0.0,0.0,0.0,0.0,0.0,0.0,3.8282,3.6695,3.5779,3.5622,3.5622,3.5622,3.5622,3.5622,3.5577,3.5532,3.5211,3.4913,0.0,0.0,0.0,0.0,0.0,0.0,0.0,0.0,0.0,0.0,0.0,0.0,0.0,0.0,0.0,0.0,0.0,0.0,0.0,0.0,0.0,0.0,0.0,1.7706,1.6758,1.6447,1.6611,1.6919,1.6904,1.7544,0.0,1.6539,1.6346,1.6111,1.4802,1.5109,1.5424,1.518,1.5645,1.5527,1.4166,1.4148,1.3561,1.1531,1.0186,0.9316,0.8825,0.8333,0.8038,0.8038,0.8038,0.8038,0.8038,0.7135,0.7036,0.8038,0.6119,0.5615,0.6523,0.6523,0.6955,0.789,0.789,0.7815,0.7768,0.8687,0.9046,0.905,1.0761,1.1444,1.1494,1.2357,1.2705,1.2705,1.279,1.3294,1.421,1.5137,1.6049,1.6944,0.0,0.0,0.0,0.0,0.0,0.0,0.0,0.0,0.0,0.0,4.267,4.2351,4.1849,4.1648,4.1453,0.0,0.0,0.0,0.0,0.0,0.0,0.0,0.0,0.0,3.8299,3.7285,3.6367,3.5622,3.5622,3.5622,3.5622,3.5622,3.5441,3.5228,3.4944,3.4382,0.0,0.0,0.0,0.0,0.0,0.0,0.0,0.0,0.0,0.0,2.8079,2.7456,0.0,0.0,0.0,0.0,0.0,0.0,0.0,0.0,2.3029,2.2139,2.0344,0.0,1.9374,1.8924,1.8313,1.7845,0.0,1.802,1.7874,1.7834,1.745,1.6969,1.67,1.7024,1.7259,1.7057,1.7647,1.7404,1.5285,1.2973,1.0756,0.9011,0.8528,0.8333,0.8237,0.8038,0.8038,0.8333,0.8333,0.8432,0.8627,0.8329,0.8329,0.8627,0.8496,0.8139,0.7472,0.7472,0.788,0.8761,0.8761,0.9043,0.9596,0.9772,1.0201,1.0707,1.1147,1.1721,1.2357,1.2619,1.2705,1.279,1.3222,1.4139,1.5137,1.5891,1.6804,1.7708,0.0,0.0,0.0,0.0,0.0,0.0,0.0,0.0,0.0,0.0,0.0,0.0,0.0,0.0,0.0,0.0,0.0,0.0,0.0,0.0,0.0,0.0,0.0,3.9358,3.8794,3.7672,3.6752,3.6146,3.5791,3.5532,3.535,3.5287,3.5038,3.4691,3.4284,3.3479,0.0,0.0,0.0,0.0,3.0162,0.0,0.0,0.0,0.0,0.0,2.7536,2.6985,0.0,2.6151,2.5734,2.5193,0.0,0.0,0.0,0.0,2.3224,2.2576,2.1707,2.0927,2.0216,1.9364,1.8761,1.8419,1.8743,1.8664,1.8531,1.8742,1.8505,1.8112,1.8105,1.8144,1.812,1.8003,1.749,1.6525,1.488,1.3329,1.1594,0.9866,0.9575,0.9193,0.8134,0.8038,0.8137,0.8333,0.8432,0.8531,0.8825,0.8758,0.8717,0.8717,0.8936,0.8882,0.8671,0.8882,0.9222,0.9592,0.9592,0.9759,1.0097,1.0543,1.0917,1.1322,1.1757,1.2272,1.2705,1.2705,1.2875,1.3215,1.3561,1.4566,1.5891,1.6312,1.7049,1.804,0.0,0.0,0.0,0.0,0.0,0.0,0.0,0.0,0.0,0.0,0.0,0.0,0.0,0.0,0.0,0.0,0.0,0.0,0.0,0.0,0.0,0.0,4.0233,3.9743,3.9392,3.8065,3.7165,3.6848,3.6081,3.5525,3.516,3.4967,3.4611,3.4084,3.3303,3.2485,0.0,0.0,0.0,0.0,2.9456,0.0,0.0,0.0,0.0,0.0,0.0,0.0,0.0,2.5746,2.5465,2.5228,2.4656,0.0,0.0,0.0,0.0,0.0,2.2584,2.1418,2.0099,1.9155,1.8883,1.883,1.9082,1.9182,1.9268,1.9431,1.9423,1.935,1.9289,1.8962,1.8741,1.8748,1.6605,1.4601,1.3718,1.3593,1.2912,1.1201,1.1007,1.0249,0.8233,0.8137,0.8237,0.8531,0.8531,0.8718,0.9079,0.8949,0.896,0.9124,0.9039,0.9291,1.0013,1.0134,1.0313,1.0464,1.0375,1.0367,1.0356,1.1144,1.1499,1.1585,1.2357,0.0,1.2875,1.2875,1.3222,1.3899,1.3984,1.4977,1.6394,1.6476,1.7131,1.7951,0.0,0.0,0.0,0.0,0.0,0.0,0.0,0.0,0.0,0.0,0.0,0.0,0.0,0.0,0.0,0.0,0.0,0.0,0.0,0.0,0.0,4.0404,4.0625,4.0311,3.9392,3.8766,3.8017,3.7136,3.6637,3.6056,3.5415,3.5298,3.4516,3.3161,3.2336,3.1679,3.1218,3.0086,0.0,0.0,2.8403,0.0,0.0,0.0,0.0,0.0,0.0,0.0,0.0,2.5688,2.5465,2.53,2.5216,0.0,0.0,0.0,0.0,0.0,2.1832,2.0718,2.0005,1.9965,1.9603,1.932,1.9661,1.9625,1.9678,1.9955,2.017,2.028,2.0254,2.0625,2.0854,2.0619,1.7194,1.4165,1.3052,1.0649,0.8909,0.8619,0.8718,0.8718,0.8333,0.8528,0.8829,0.9034,0.9034,0.9453,1.0345,1.0405,1.0693,1.1354,1.1754,1.1998,1.2126,1.0215,1.0013,1.1467,1.1207,1.1532,1.2272,1.2443,1.2534,1.2534,0.0,1.3045,1.3568,1.3568,1.3984,1.4566,1.5151,1.5726,1.6221,1.6976,1.7465,1.7861,0.0,0.0,0.0,0.0,0.0,0.0,0.0,0.0,0.0,0.0,0.0,0.0,0.0,0.0,0.0,0.0,0.0,0.0,0.0,0.0,4.0221,3.9952,4.0087,3.9935,3.9295,3.8689,3.8066,3.7477,3.679,3.6222,3.5756,3.4701,3.3482,3.2185,3.1507,3.0866,3.024,2.9366,2.8826,0.0,0.0,0.0,0.0,0.0,0.0,0.0,0.0,0.0,0.0,0.0,2.5465,2.5312,2.5312,0.0,0.0,0.0,0.0,0.0,2.1471,2.0537,1.9794,1.9379,1.8615,1.8002,1.8354,1.8277,1.8609,1.9679,1.9937,2.0197,2.1015,2.0523,1.933,1.7238,1.6289,1.5347,1.3921,1.3437,1.2855,1.1711,1.1808,1.1526,1.0293,1.0391,1.0583,1.0886,1.0784,1.0875,1.1532,1.1296,1.1395,1.1748,1.1866,1.2175,1.2614,1.1308,1.1255,1.2448,1.2363,1.2443,1.2705,1.2705,1.2705,1.2705,0.0,1.3392,1.3737,1.4068,1.4657,1.5235,1.5567,1.6147,1.6894,1.7465,1.8031,1.8434,0.0,0.0,0.0,0.0,0.0,0.0,0.0,0.0,0.0,0.0,0.0,0.0,0.0,0.0,0.0,0.0,0.0,0.0,0.0,4.0121,3.9816,3.9454,3.9437,3.9401,3.9206,3.8553,3.806,3.7791,3.7075,3.6448,3.5792,3.3994,3.2568,3.1485,3.0937,3.0168,2.9268,2.8607,2.813,0.0,0.0,0.0,0.0,0.0,0.0,0.0,0.0,0.0,0.0,0.0,0.0,0.0,0.0,0.0,0.0,2.3897,2.2916,2.1711,2.1252,2.0313,1.9393,1.8633,1.7962,1.75,1.7328,1.7515,1.801,1.9173,1.9331,1.9712,2.1266,2.0339,1.838,1.5448,1.5846,1.6048,1.4512,1.5461,1.5745,1.4124,1.422,1.3657,1.1945,1.195,1.2119,1.2261,1.2099,1.2141,1.2406,1.2136,1.1993,1.2207,1.2025,1.2272,1.3052,1.2613,1.2619,1.3143,1.3052,1.2881,1.2705,1.2875,1.296,1.296,1.3646,1.3984,1.4237,1.4734,1.5318,1.5899,1.5899,1.6566,1.7473,1.787,1.8434,1.9002,0.0,0.0,0.0,0.0,0.0,0.0,0.0,0.0,0.0,0.0,0.0,0.0,0.0,0.0,0.0,0.0,0.0,0.0,0.0,4.0188,3.9747,3.9082,3.9028,3.9082,3.9206,3.8745,3.8342,3.8092,3.7616,3.6664,3.5232,3.3756,3.2547,3.1438,3.0595,2.9697,2.8789,2.7617,2.6973,2.6782,2.6564,0.0,0.0,0.0,0.0,0.0,0.0,0.0,0.0,0.0,0.0,0.0,0.0,0.0,2.3519,2.3001,2.2456,2.1842,2.0867,1.9678,1.8656,1.8568,1.9168,1.9353,1.8033,1.8669,1.9343,1.8661,1.8488,1.8972,2.0683,2.1123,2.0738,1.9521,1.7101,1.4975,1.3788,1.2721,1.2037,1.2134,1.2334,1.2431,1.2242,1.2533,1.2544,1.2325,1.2293,1.2466,1.2904,1.2927,1.3237,1.3867,1.3926,1.3913,1.4004,1.3737,1.3476,1.3398,1.296,1.2705,1.2705,1.3307,1.3652,1.3652,1.4314,1.4985,1.5567,1.5567,1.5982,1.6648,1.6648,1.6976,1.7473,1.8023,1.8585,1.9152,0.0,0.0,0.0,0.0,0.0,0.0,0.0,0.0,0.0,0.0,0.0,0.0,0.0,0.0,0.0,0.0,0.0,0.0,0.0,3.9487,3.9061,3.8528,3.8472,3.8415,3.8303,3.8059,3.7902,3.7743,3.727,3.623,3.4678,3.3716,3.2543,3.1124,3.0069,2.9187,2.8425,2.7182,2.6633,2.6645,2.6082,0.0,0.0,0.0,0.0,0.0,0.0,0.0,0.0,0.0,2.4874,2.4599,2.4238,2.3886,2.3446,2.2852,2.208,2.1242,2.0867,1.9668,1.8539,1.9019,1.9268,1.9059,1.7348,1.7241,1.7505,1.726,1.7196,1.7747,1.9472,1.9115,1.8464,1.8249,1.6504,1.5038,1.4586,1.41,1.3806,1.3908,1.4094,1.4214,1.4045,1.4221,1.4303,1.4031,1.3767,1.376,1.3905,1.3732,1.3848,1.4088,1.4088,1.4088,1.4088,1.4243,1.4314,1.423,1.3802,1.3717,1.3971,1.4237,1.4321,1.4321,1.5068,1.5484,1.5733,1.6154,1.6484,1.673,1.6894,1.7139,1.7473,1.8264,1.8975,1.9687,0.0,0.0,0.0,0.0,0.0,0.0,0.0,0.0,0.0,0.0,0.0,0.0,0.0,0.0,0.0,0.0,0.0,0.0,3.9575,3.899,3.8455,3.8033,3.7844,3.761,3.7345,3.727,3.721,3.7225,3.6507,3.5574,3.4535,3.3607,3.2348,3.0879,2.9645,2.8657,2.7812,2.6728,2.6302,2.6383,2.5816,2.5535,0.0,0.0,0.0,0.0,0.0,0.0,0.0,0.0,2.4957,2.4671,2.4082,2.3655,2.3224,2.2628,2.1711,2.0867,2.0867,1.9913,1.8986,1.9277,1.9384,1.8902,1.7061,1.6857,1.6821,1.6271,1.6633,1.736,1.8632,1.801,1.7274,1.7524,1.6257,1.5267,1.5267,1.5267,1.5267,1.5267,1.5373,1.5424,1.5127,1.5219,1.5137,1.4843,1.4636,1.4482,1.4389,1.4195,1.4088,1.4088,1.4088,1.4088,1.4088,1.4573,1.4894,1.5144,1.4894,1.481,1.4817,1.4985,1.4985,1.5068,1.5733,1.5982,1.6064,1.6484,1.6894,1.7115,1.7162,1.751,1.8167,1.884,1.9565,2.0294,0.0,0.0,0.0,0.0,0.0,0.0,0.0,0.0,0.0,0.0,0.0,0.0,0.0,0.0,0.0,0.0,0.0,0.0,3.9484,3.8717,3.8067,3.7637,3.7147,3.6799,3.6492,3.6274,3.6321,3.6662,3.5464,3.4876,3.4861,3.3367,3.1985,3.0624,2.9517,2.8247,2.6973,2.6245,2.591,2.591,2.5688,2.5606,2.5606,0.0,0.0,0.0,0.0,0.0,0.0,0.0,2.4093,2.3519,2.2927,2.2703,2.2628,2.1949,2.1415,2.0944,2.0867,2.0566,2.014,1.9539,1.9554,1.9212,1.7335,1.7863,1.8141,1.5913,1.6821,1.8087,1.8257,1.808,1.8087,1.8249,1.672,1.554,1.5737,1.5635,1.5534,1.573,1.5571,1.5391,1.5391,1.513,1.4836,1.4536,1.4516,1.4389,1.4102,1.4088,1.4088,1.4088,1.4088,1.4088,1.4088,1.4727,1.5379,1.6139,1.6304,1.5974,1.5137,1.5567,1.5733,1.5733,1.6402,1.673,1.673,1.6738,1.7204,1.7954,1.7499,1.8205,1.9621,1.9831,2.0338,2.1011,0.0,0.0,0.0,0.0,0.0,0.0,0.0,0.0,0.0,0.0,0.0,0.0,0.0,0.0,0.0,0.0,0.0,0.0,3.8399,3.7927,3.746,3.7013,3.6815,3.6646,3.6492,3.5943,3.5672,3.5623,3.5299,3.4457,3.3154,3.2471,3.1293,2.9701,2.869,2.7838,2.7145,2.628,2.591,2.584,2.5535,2.5253,2.5064,0.0,0.0,0.0,0.0,0.0,0.0,0.0,0.0,0.0,2.4154,2.3936,2.379,2.2767,2.2176,2.1863,2.1272,1.9747,1.8565,1.9437,1.8501,1.7386,1.7165,1.7311,1.7117,1.5724,1.5906,1.6633,1.7902,1.7188,1.6821,1.7902,1.6727,1.573,1.5825,1.5558,1.5431,1.5524,1.5271,1.501,1.4803,1.4703,1.4529,1.4242,1.4215,1.4175,1.4088,1.4088,1.4419,1.4992,1.4985,1.5311,1.5884,1.6535,1.7033,1.7204,1.7619,1.7456,1.6722,1.6484,1.6402,1.6402,1.6648,1.673,1.673,1.7367,1.7923,1.8386,1.8261,1.8348,1.8751,1.9609,2.0141,2.0516,0.0,0.0,0.0,0.0,0.0,0.0,0.0,0.0,0.0,0.0,4.0103,3.9851,0.0,0.0,0.0,0.0,0.0,0.0,0.0,3.7401,3.6937,3.6523,3.6352,3.6037,3.5638,3.4957,3.4345,3.3978,3.4112,3.3509,3.2123,3.1309,3.0263,2.9009,2.8055,2.7379,2.6801,2.6186,2.5828,2.5758,2.5453,2.5182,2.5052,0.0,0.0,0.0,0.0,0.0,0.0,0.0,0.0,0.0,2.4599,2.4515,2.4227,2.299,2.2478,2.2025,2.0779,1.9423,1.8313,1.8396,1.7541,1.6588,1.6707,1.6574,1.6285,1.573,1.5635,1.5913,1.6915,1.6372,1.6096,1.7008,1.6372,1.5792,1.5671,1.5504,1.5351,1.5237,1.4963,1.4716,1.4536,1.4416,1.4446,1.4594,1.4664,1.4741,1.5151,1.5151,1.5394,1.5884,1.5884,1.6214,1.6698,1.744,1.7853,1.7853,1.8273,1.8282,1.7797,1.7221,1.6902,1.6894,1.7131,1.7448,1.7747,1.8082,1.8587,1.9117,1.8714,1.8739,1.9131,1.9855,2.0286,2.0646,0.0,0.0,0.0,0.0,0.0,0.0,0.0,0.0,0.0,0.0,3.9082,3.8936,0.0,0.0,0.0,0.0,0.0,0.0,0.0,3.7027,3.6492,3.607,3.5589,3.5016,3.4332,3.3644,3.2835,3.2082,3.2424,3.2272,3.1502,3.0113,2.9151,2.8499,2.7615,2.6872,2.6201,2.598,2.5758,2.5606,2.5382,2.5312,2.5312,2.5312,0.0,0.0,0.0,0.0,0.0,0.0,0.0,0.0,2.4611,2.4527,2.4238,2.2916,2.2327,2.1624,1.9806,1.9177,1.8628,1.7023,1.6712,1.6647,1.598,1.5832,1.5832,1.5832,1.5832,1.5832,1.5832,1.5832,1.5832,1.5832,1.5805,1.5698,1.5431,1.5351,1.5217,1.4957,1.4663,1.4482,1.4482,1.4327,1.458,1.5311,1.5477,1.5884,1.6698,1.6698,1.678,1.678,1.678,1.6862,1.6944,1.7755,1.8078,1.8158,1.8514,1.8692,1.8434,1.7716,1.7392,1.7212,1.7764,1.8532,1.934,1.8911,1.9184,1.9791,1.8926,1.9324,2.0317,2.0389,2.069,2.1124,0.0,0.0,0.0,0.0,0.0,0.0,0.0,0.0,0.0,0.0,0.0,0.0,0.0,0.0,0.0,0.0,0.0,0.0,0.0,3.6133,3.5816,3.4993,3.4476,3.4085,3.3948,3.3203,3.24,3.1626,3.1903,3.1213,2.9849,2.9349,2.8515,2.7327,2.6972,2.6703,2.6396,2.605,2.591,2.5828,2.5453,2.5312,2.5312,2.5312,2.5312,0.0,0.0,0.0,0.0,0.0,0.0,0.0,2.4718,2.4706,2.4562,2.3824,2.2489,2.1074,2.009,1.8257,1.666,1.6598,1.6357,1.6033,1.5798,1.5832,1.5832,1.5832,1.5832,1.5832,1.5832,1.5832,1.5832,1.5832,1.5638,1.5471,1.5404,1.4997,1.4683,1.4623,1.4355,1.4182,1.4182,1.4783,1.5235,1.5394,1.6049,1.6535,1.6698,1.6698,1.7025,1.7674,1.7755,1.8078,1.8727,1.8895,1.9054,1.9054,1.9143,1.9073,1.8843,1.8031,1.7781,1.8014,1.8006,1.8698,1.9726,1.9639,1.9732,1.9817,1.9622,1.9455,1.9448,2.0162,2.0483,2.069,0.0,0.0,0.0,0.0,0.0,0.0,0.0,0.0,0.0,0.0,0.0,0.0,0.0,0.0,0.0,0.0,0.0,0.0,0.0,0.0,3.481,3.4259,3.3728,3.3254,3.3027,3.2249,3.1392,3.0309,3.0309,2.9793,2.8864,2.8437,2.7743,2.7024,2.6794,2.6589,2.6339,2.605,2.5828,2.5758,2.5382,2.5312,2.5312,2.5312,2.5312,2.517,2.4467,0.0,0.0,0.0,0.0,0.0,0.0,0.0,2.4345,2.3666,2.2883,2.178,1.9515,1.8089,1.6966,1.6089,1.5734,1.5658,1.5798,1.5832,1.5792,1.5651,1.6108,1.6438,1.6285,1.6629,1.6849,1.669,1.653,1.6371,1.6212,1.5901,1.5726,1.558,1.5413,1.5311,1.5311,1.5718,1.6206,1.6617,1.7107,1.7513,1.7917,1.7917,1.8158,1.8647,1.8647,1.8816,1.9301,1.9301,1.9301,1.9301,1.9301,1.9381,1.9371,1.8665,1.8505,1.8966,1.9116,1.9667,2.0426,2.0206,2.0022,1.9806,1.9588,1.9349,1.9178,2.0089,2.042,2.0555,0.0,0.0,0.0,0.0,0.0,0.0,0.0,0.0,0.0,0.0,0.0,0.0,0.0,0.0,0.0,0.0,0.0,0.0,0.0,0.0,0.0,3.3659,3.3017,3.2458,3.1958,3.114,3.0153,2.9013,2.8716,2.846,2.8284,2.7624,2.7214,2.7011,2.6807,2.6602,2.627,2.598,2.5828,2.5606,2.5382,2.5312,2.5312,2.5312,2.5312,2.5241,2.4478,2.42,2.4116,2.3677,0.0,0.0,0.0,0.0,2.397,2.3298,2.3139,2.2414,1.9279,1.8452,1.7924,1.5696,1.5458,1.5831,1.6078,1.6133,1.6064,1.5817,1.638,1.6865,1.6715,1.7289,1.7822,1.7612,1.751,1.7454,1.7162,1.7075,1.6933,1.673,1.6698,1.6698,1.6698,1.6862,1.7188,1.7917,1.8158,1.8567,1.9222,1.9301,1.9301,1.9301,1.9301,1.9301,1.9301,1.9301,1.9301,1.9301,1.9381,1.9687,1.9982,1.9618,1.9618,1.9913,2.0382,2.0711,2.0969,2.0586,2.012,1.9671,1.922,1.9075,1.9178,2.0089,2.042,2.0555,0.0,0.0,0.0,0.0,0.0,0.0,0.0,0.0,0.0,0.0,3.6569,3.6258,0.0,0.0,0.0,0.0,0.0,0.0,3.4249,0.0,0.0,3.3129,3.2079,3.151,3.1428,3.0256,2.9511,2.9147,2.8519,2.8053,2.7894,2.7629,2.7268,2.7024,2.6943,2.6739,2.6465,2.605,2.591,2.584,2.5453,2.5312,2.5312,2.5312,2.5312,2.5241,2.4622,2.4345,2.4116,2.3519,2.3457,0.0,0.0,0.0,2.3677,2.3519,2.2435,2.1028,2.0556,1.9307,1.7721,1.6078,1.6518,1.7293,1.7339,1.7347,1.7339,1.7293,1.6404,1.5817,1.6299,1.6418,1.675,1.7486,1.7399,1.7178,1.713,1.687,1.6746,1.6698,1.6698,1.6698,1.6698,1.7342,1.7836,1.7997,1.8727,1.9143,1.9301,1.9301,1.9301,1.9301,1.9301,1.9301,1.9301,1.9301,1.9301,1.9301,1.9854,2.0235,2.0459,2.0944,2.1108,2.1001,2.0847,2.0692,2.0514,2.0452,1.9924,1.9158,1.9096,1.9075,1.9178,2.0089,2.042,2.0555,0.0,0.0,0.0,0.0,0.0,0.0,0.0,0.0,0.0,0.0,0.0,3.6006,0.0,0.0,0.0,3.4787,3.4356,3.3796,3.3086,3.2731,3.2437,3.2093,3.1564,3.0975,3.0296,2.9754,2.924,2.8704,2.8265,2.8,2.7776,2.759,2.7335,2.7024,2.7024,2.6807,2.6452,2.605,2.591,2.5828,2.5453,2.4779,2.4013,2.4933,2.4767,2.4024,2.4394,2.4345,2.4116,2.3519,2.3298,2.3298,2.3298,0.0,0.0,0.0,2.282,2.2113,2.0921,1.939,1.7893,1.6814,1.6908,1.7407,1.7518,1.7565,1.751,1.7399,1.6786,1.6585,1.7383,1.7965,1.8406,1.8528,1.843,1.8327,1.8327,1.8262,1.8158,1.8158,1.8158,1.8158,1.8158,1.8487,1.8727,1.8727,1.9054,1.9301,1.9301,1.9301,1.9301,1.9301,1.9301,1.9301,1.9301,1.9618,2.0001,2.0391,2.1011,2.1328,2.1405,2.1949,2.1787,2.1011,2.1252,2.0971,2.042,2.042,1.9893,1.9075,1.9075,1.923,1.9599,2.0182,2.0586,2.0907,0.0,0.0,0.0,0.0,0.0,0.0,0.0,0.0,0.0,0.0,0.0,0.0,0.0,0.0,0.0,0.0,3.3839,3.3072,3.2241,3.2105,3.1748,3.1016,3.0918,3.0405,2.9349,2.9319,2.8955,2.8365,2.8197,2.8,2.7855,2.759,2.7335,2.7024,2.7024,2.682,2.6396,2.605,2.584,2.5758,2.5004,2.394,2.3029,2.4241,2.394,2.304,2.4227,2.449,2.4139,2.375,2.3411,2.3187,2.3187,2.3187,0.0,0.0,0.0,2.3191,2.1273,2.0169,1.9219,1.8034,1.7888,1.8046,1.8,1.8066,1.7992,1.7713,1.7664,1.783,1.849,1.9091,1.9417,1.9347,1.9301,1.9301,1.9301,1.9301,1.9301,1.9301,1.9301,1.9301,1.9301,1.9301,1.9301,1.9301,1.9301,1.9301,1.9301,1.9301,1.9301,1.9301,1.9301,1.9301,1.9301,1.9932,2.0624,2.1395,2.1873,2.2176,2.2252,2.2553,2.2166,2.1252,2.1645,2.1342,2.0596,2.0472,1.9955,1.9251,1.9251,1.9458,1.9831,2.0389,2.0824,2.1176,0.0,0.0,0.0,0.0,0.0,0.0,0.0,0.0,0.0,0.0,0.0,0.0,3.4481,3.4414,3.4481,3.4698,3.4128,3.3269,3.22,3.1782,3.1159,3.023,2.9818,0.0,2.8905,2.8716,2.8627,2.8587,2.8276,2.8079,2.8079,2.7669,2.7335,2.7024,2.7024,2.6683,2.6201,2.598,2.5758,2.5453,2.3711,2.2944,2.287,2.3029,2.2944,2.3103,2.4576,2.4694,2.4196,2.4453,2.4158,2.3689,2.3689,2.3689,2.3602,0.0,0.0,0.0,2.2168,2.2424,2.2467,1.9984,1.9963,2.0333,1.9427,1.9197,1.9197,1.917,1.917,1.917,1.925,1.8603,1.8345,1.9143,1.9301,1.9301,1.9301,1.9301,1.9301,1.9301,1.9301,1.9301,1.9301,1.9301,1.9301,1.9301,1.9301,1.9301,1.9301,1.9301,1.9301,1.9301,1.9301,1.9301,1.9301,1.9932,2.0779,2.2025,2.2111,2.2327,2.2703,2.2703,2.2478,2.2025,2.2101,2.1678,2.1041,2.0607,2.0151,1.9796,1.9796,1.9806,1.9862,2.0752,2.1093,2.1176,0.0,0.0,0.0,0.0,0.0,0.0,0.0,0.0,0.0,0.0,0.0,0.0,0.0,3.4563,3.4563,3.4481,3.3686,3.2885,3.2124,3.1502,3.0651,2.9571,2.9497,2.916,2.8385,2.85,2.8587,2.8587,2.8276,2.8079,2.8079,2.7669,2.7335,2.7024,2.7024,2.6683,2.6213,2.598,2.5758,2.5453,2.3627,2.2584,2.2136,2.2435,2.206,2.1628,2.3327,2.3813,2.3671,2.3927,2.3941,2.3886,2.3974,2.3821,2.3635,2.3442,2.3801,2.4131,2.3334,2.37,2.3918,2.2104,2.1456,2.1038,2.0372,1.9766,1.9301,1.9301,1.9301,1.9301,1.9301,1.9054,1.8975,1.9222,1.9301,1.9301,1.9301,1.9301,1.9301,1.9301,1.9301,1.9301,1.9301,1.9301,1.9301,1.9301,1.9301,1.9301,1.9301,1.9301,1.9301,1.9301,1.9301,1.9687,2.0547,2.0692,2.1471,2.2703,2.2703,2.2703,2.2703,2.2703,2.2478,2.2101,2.2101,2.1688,2.1104,2.0938,2.0596,2.0193,2.0193,2.0369,2.0669,2.1,2.13,2.158,0.0,0.0,0.0,0.0,0.0,0.0,0.0,0.0,0.0,3.6258,0.0,0.0,0.0,0.0,3.4595,3.4176,3.3489,3.2744,3.1912,3.1124,3.0278,2.9215,2.9279,2.8994,2.8197,2.8522,2.8651,2.8587,2.8327,2.8131,2.8079,2.7736,2.7403,2.7024,2.7024,2.6683,2.6062,2.598,2.5758,2.53,2.3007,2.1889,2.1683,2.1652,2.1293,2.1028,2.2872,2.3434,2.3301,2.3449,2.3459,2.3414,2.3667,2.3624,2.3492,2.3767,2.4227,2.4636,2.4564,2.4969,2.5087,2.3906,2.3154,2.2414,2.1257,2.0508,1.9894,1.9371,1.9301,1.9301,1.9301,1.9301,1.9301,1.9301,1.9301,1.9301,1.9301,1.9301,1.9301,1.9301,1.9301,1.9301,1.9301,1.9301,1.9301,1.9301,1.9301,1.9301,1.9301,1.9301,1.9381,1.9618,1.9844,2.0469,2.1482,2.1471,2.2014,2.3001,2.3001,2.2927,2.2777,2.2777,2.2553,2.2176,2.2176,2.1858,2.1331,2.1176,2.0938,2.0659,2.0659,2.0845,2.1135,2.1364,2.1613,2.1959,0.0,0.0,0.0,0.0,0.0,0.0,0.0,0.0,3.7203,3.6784,0.0,0.0,0.0,0.0,0.0,3.3812,3.3514,3.2752,3.1401,3.0746,3.0086,2.9147,2.908,2.883,2.8287,2.8638,2.8716,2.8587,2.843,2.8235,2.8079,2.7855,2.7523,2.7024,2.7024,2.6602,2.591,2.591,2.5676,2.4992,2.1761,2.0958,2.1607,2.0708,2.0728,2.1542,2.3356,2.3632,2.3227,2.3144,2.2694,2.2402,2.297,2.3102,2.315,2.397,2.4455,2.4933,0.0,0.0,0.0,2.5216,2.5121,2.459,2.205,2.1597,2.1217,1.9668,1.9381,1.9381,1.9301,1.9301,1.9301,1.9301,1.9301,1.9301,1.9301,1.9301,1.9301,1.9301,1.9301,1.9301,1.9301,1.9301,1.9301,1.9301,1.9301,1.9301,1.9301,1.9301,1.9618,2.0235,2.0857,2.1482,2.2101,2.2101,2.2402,2.3001,2.3001,2.3001,2.3001,2.3001,2.2777,2.2402,2.2402,2.2176,2.1766,2.1321,2.1135,2.1135,2.1135,2.1135,2.1186,2.1868,2.2101,2.2176,0.0,0.0,0.0,0.0,0.0,3.9152,3.8788,3.8311,3.7838,0.0,0.0,0.0,3.6228,3.522,3.4416,3.409,3.2825,3.185,3.1297,3.0495,2.9701,2.9141,2.9118,2.8908,2.8522,2.8716,2.878,2.8716,2.843,2.8235,2.8079,2.7855,2.759,2.7214,2.7079,2.6726,2.622,2.5968,2.5758,2.53,2.2488,2.1445,2.1532,1.974,1.9386,1.9982,2.0575,2.1375,2.2022,2.2148,2.2993,2.3921,2.4246,2.3984,2.3751,2.4116,2.4886,2.5639,2.6151,0.0,0.0,0.0,0.0,0.0,2.4364,2.3498,2.2552,2.1217,2.0787,2.0353,1.945,1.9301,1.9301,1.9301,1.9301,1.9301,1.9301,1.9301,1.9301,1.9301,1.9301,1.9301,1.9301,1.9301,1.9301,1.9301,1.9301,1.9301,1.9301,1.9696,2.0235,2.0934,2.1088,2.1482,2.2101,2.2101,2.2402,2.3001,2.3001,2.2927,2.2777,2.2927,2.2703,2.2176,2.2327,2.2176,2.1797,2.1662,2.1621,2.1611,2.1761,2.1837,2.1847,2.2209,2.2402,2.2553,0.0,0.0,0.0,0.0,0.0,3.9919,3.9644,3.9169,3.8678,0.0,0.0,0.0,3.7144,3.5753,3.4636,3.4332,3.2944,3.1883,3.1346,3.0635,3.0068,2.954,2.9463,2.9275,2.8908,2.9035,2.8972,2.878,2.8573,2.8379,2.8197,2.8,2.7736,2.7403,2.7079,2.6794,2.6496,2.6107,2.5758,2.537,2.2339,2.1273,2.1273,1.9034,1.8435,1.8939,1.9483,2.0129,2.0722,2.1076,2.22,2.3455,2.3434,2.3665,2.397,2.4273,2.5099,2.6,2.6277,2.6905,2.7456,2.7377,0.0,0.0,2.4862,2.4077,2.3058,2.1074,2.0488,2.0119,1.945,1.9301,1.9301,1.9301,1.9608,1.9687,1.9381,1.9608,1.9766,1.9766,2.0148,2.0226,1.9844,1.9766,1.9687,1.9301,1.9301,1.9381,1.9696,2.0235,2.0934,2.1558,2.1852,2.209,2.2478,2.2478,2.2628,2.3001,2.2927,2.2852,2.2852,2.2777,2.2628,2.2327,2.2327,2.2176,2.2025,2.2025,2.2035,2.1959,2.2252,2.2327,2.2402,2.2703,2.2852,2.3001,0.0,0.0,4.1959,4.122,4.099,4.0802,4.0614,4.0037,3.9609,0.0,3.9086,3.8603,3.7882,3.6362,3.5118,3.4531,3.3459,3.24,3.1424,3.1146,3.0807,3.0233,3.0021,2.9761,2.954,2.9477,2.9226,2.8844,2.8844,2.8638,2.8287,2.8131,2.7881,2.7523,2.7146,2.6875,2.6726,2.6107,2.5676,2.5052,2.1837,2.0765,2.0851,1.8382,1.7607,1.808,1.9043,1.9367,1.9483,2.0215,2.1148,2.1949,2.1828,2.2639,2.3813,2.4345,2.517,2.5918,2.6277,2.6973,2.759,2.7776,2.8,0.0,2.4908,2.44,2.367,2.0757,2.01,2.01,1.9944,1.9944,1.9944,1.9944,2.043,2.0527,1.9529,2.0148,2.0615,2.0615,2.1298,2.1538,2.0692,2.0615,2.0382,1.9608,1.9608,1.9844,2.0469,2.1011,2.1634,2.2176,2.2703,2.3001,2.3001,2.3001,2.3001,2.3001,2.2852,2.2852,2.3001,2.2628,2.2553,2.2703,2.2327,2.2327,2.2402,2.2478,2.2402,2.2176,2.2628,2.2777,2.2777,2.3224,2.3372,2.3372,0.0,4.2752,4.2378,4.1692,4.1516,4.1383,4.0943,4.0802,4.0611,4.0334,4.0069,3.9527,3.8603,3.7009,3.5712,3.4847,3.326,3.217,3.1977,3.1495,3.1161,3.1058,3.0493,3.019,3.0144,2.9727,2.9463,2.9184,2.8958,2.8638,2.8287,2.8131,2.8,2.7723,2.7214,2.6943,2.6875,2.6188,2.5028,2.3453,2.1826,2.0755,1.9956,1.7357,1.6347,1.6437,1.6445,1.7496,1.9073,2.0947,2.1389,2.1379,2.3036,2.2961,2.2649,2.4261,2.4992,2.5496,2.6195,2.704,2.7842,2.8091,2.8379,0.0,2.8103,2.7946,2.7419,2.5797,2.5314,2.4825,2.4059,2.3904,2.3904,2.3904,2.3262,2.2254,2.0527,2.1001,2.1538,2.1538,2.168,2.1756,2.1538,2.1538,2.1451,2.1298,2.1298,2.1614,2.2166,2.2166,2.2467,2.3075,2.3001,2.3001,2.3001,2.3001,2.3001,2.3001,2.2927,2.2927,2.3001,2.2927,2.2852,2.2703,2.2777,2.2777,2.2703,2.3001,2.2927,2.2628,2.3001,2.315,2.3224,2.3446,2.3666,2.3824,4.3656,4.3371,4.2977,4.2386,4.218,4.1924,4.1578,4.1338,4.1139,4.1139,4.0767,4.0334,3.98,3.7934,3.6544,3.6002,3.4218,3.2949,3.2664,3.2241,3.1864,3.1537,3.0955,3.0613,3.0447,3.0144,2.9775,2.9449,2.9275,2.8972,2.8573,2.8392,2.8131,2.7656,2.7268,2.6998,2.6645,2.6037,2.4708,2.297,2.1343,1.9801,1.8241,1.5996,1.5137,1.5068,1.5401,1.678,1.8656,2.0159,2.1035,2.1578,2.2102,2.2465,2.2968,2.4009,2.4624,2.524,2.6402,2.704,2.7577,2.8235,2.8444,0.0,0.0,2.7958,2.7591,2.6316,2.5909,2.5635,2.516,2.5021,2.5021,2.5021,2.4413,2.3838,2.338,2.2818,2.2381,2.2381,2.2745,2.283,2.2456,2.2381,2.222,2.1832,2.1832,2.2069,2.2703,2.2478,2.2703,2.3298,2.3075,2.3001,2.3001,2.3001,2.2927,2.2852,2.2852,2.2852,2.2852,2.2777,2.2777,2.3001,2.2927,2.2927,2.315,2.3372,2.3372,2.3298,2.3519,2.3593,2.3593,2.3824,2.397,2.4043,4.4213,4.3949,4.3609,4.3193,4.2886,4.2637,4.2418,4.2021,4.1775,4.1888,4.1216,4.0671,4.0578,3.8267,3.6604,3.6317,3.4426,3.3135,3.2992,3.2579,3.2266,3.1946,3.1422,3.1029,3.0807,3.0553,3.019,2.9789,2.9727,2.9477,2.8958,2.878,2.8314,2.7656,2.7082,2.6663,2.6277,2.5429,2.4028,2.2285,2.0552,1.8707,1.6668,1.5032,1.4243,1.4166,1.5068,1.6527,1.8141,1.9036,2.045,2.1756,2.1298,2.1993,2.3128,2.3902,2.4325,2.4826,2.6471,2.6973,2.731,2.8379,2.8495,2.8182,0.0,0.0,0.0,2.6413,2.6131,2.6131,2.632,2.6253,2.6093,2.5992,2.5735,2.5753,2.6521,2.5095,2.3963,2.3891,2.4082,2.4032,2.3632,2.3559,2.3191,2.2295,2.2424,2.2649,2.3001,2.2777,2.2927,2.3372,2.315,2.3075,2.3001,2.3001,2.2927,2.2703,2.2777,2.2777,2.2777,2.2628,2.2852,2.3372,2.3075,2.3224,2.3677,2.3666,2.3824,2.397,2.397,2.397,2.397,2.4116,2.42,2.42,4.4499,4.4448,4.4173,4.3906,4.3781,4.3652,4.3468,4.3382,4.3175,4.2754,4.1446,4.0333,3.9709,3.6572,3.4356,3.3842,3.1511,3.0587,3.1986,3.1285,3.1444,3.2772,3.2033,3.1552,3.1422,3.1087,3.0792,3.0507,3.019,2.9946,2.9699,2.9275,2.8766,2.8143,2.6009,2.5505,2.6082,2.3979,2.1955,2.0072,1.9637,1.84,1.6676,1.488,1.4088,1.4166,1.5068,1.6041,1.718,1.8912,2.0032,2.0991,2.2947,2.2274,2.1441,2.4264,2.4506,2.4221,2.5951,2.6973,2.7643,2.8546,2.861,2.8675,2.956,0.0,2.9808,2.9936,0.0,3.0058,3.0375,0.0,0.0,2.9446,2.9097,2.8726,2.814,2.7675,2.7274,2.7128,2.5368,2.4587,2.5554,2.5521,2.5063,2.4032,2.485,2.4981,2.4116,2.3824,2.3677,2.3593,2.3372,2.315,2.3001,2.3001,2.2927,2.2703,2.2852,2.3001,2.3001,2.315,2.3298,2.3593,2.3677,2.3824,2.3897,2.4043,2.4127,2.42,2.42,2.42,2.42,2.42,2.42,2.42,4.3479,4.336,4.3076,4.2883,4.3069,4.3206,4.3082,4.3439,4.3605,4.3246,4.2464,4.16,4.0754,3.8384,3.6384,3.5067,3.2749,3.1673,3.2517,3.1626,3.1713,3.3087,3.2547,3.216,3.2048,3.1838,3.1495,3.1146,3.0955,3.0644,3.0222,2.9946,2.9373,2.8468,2.6163,2.5047,2.4932,2.3216,2.1525,1.986,1.9275,1.8108,1.6522,1.4803,1.4088,1.4166,1.5068,1.5636,1.6124,1.7398,1.914,2.0623,2.0546,2.14,2.2638,2.3526,2.394,2.4506,2.6126,2.6577,2.685,2.796,2.8208,2.8454,2.9449,2.996,3.0326,3.0642,0.0,0.0,0.0,0.0,0.0,0.0,2.99,2.9624,2.9849,2.8795,2.7893,2.7814,2.6899,2.6246,2.6027,2.5983,2.5451,2.4261,2.5264,2.5392,2.4261,2.397,2.3824,2.3751,2.3593,2.3446,2.3372,2.3372,2.3224,2.3075,2.3224,2.3298,2.315,2.3372,2.3593,2.3751,2.3897,2.397,2.4043,2.42,2.42,2.42,2.42,2.42,2.42,2.42,2.42,2.42,4.219,4.2393,4.2512,4.2574,4.2913,4.3227,4.3334,4.3703,4.3893,4.3689,4.288,4.2032,4.1232,3.8734,3.654,3.515,3.2562,3.1419,3.254,3.1483,3.1354,3.2732,3.2664,3.2296,3.1717,3.2074,3.212,3.1766,3.1709,3.1364,3.0718,3.0658,2.9917,2.8648,2.6531,2.4975,2.3853,2.2424,2.0831,1.9196,1.8593,1.7574,1.6226,1.4727,1.4088,1.4166,1.4824,1.5235,1.5553,1.6347,1.8152,1.979,1.8982,2.0536,2.2616,2.2553,2.2988,2.394,2.5697,2.5861,2.5931,2.7377,2.7947,2.8312,2.9107,2.987,3.0447,3.0762,3.0702,0.0,0.0,0.0,3.0881,3.0705,0.0,3.0242,3.0822,2.9746,2.8856,2.887,2.8538,2.7879,2.6629,2.6819,2.6302,2.4791,2.5763,2.5763,2.4261,2.4043,2.397,2.3897,2.3751,2.3677,2.3593,2.3593,2.3519,2.3298,2.3519,2.3519,2.3372,2.3604,2.3824,2.397,2.397,2.4043,2.42,2.42,2.42,2.42,2.42,2.42,2.42,2.42,2.42,2.42,4.0898,4.2014,4.3192,4.3905,4.4097,4.4365,4.4925,4.4651,4.4299,4.4121,4.2087,4.0577,4.0275,3.5779,3.2663,3.2332,2.881,2.7994,3.1328,2.9949,2.974,3.1359,3.2198,3.1732,2.9949,3.1687,3.2547,3.2398,3.2247,3.1853,3.1278,3.1379,3.0389,2.8454,2.688,2.5135,2.3307,2.1463,1.9422,1.7374,1.7374,1.683,1.5876,1.458,1.4088,1.4088,1.4173,1.4657,1.5553,1.6308,1.7251,0.0,0.0,2.0062,1.9778,2.1714,2.1941,2.1985,2.4135,2.4874,2.5356,2.7095,2.8012,2.8634,2.917,2.9993,3.0642,3.0762,3.0821,3.0881,3.1219,3.1278,3.107,3.0446,3.0934,0.0,0.0,3.0949,3.1351,3.1219,3.0286,2.9185,2.7958,2.8793,2.8397,2.6096,2.694,2.6549,2.4334,2.4189,2.4127,2.3897,2.3897,2.3824,2.3593,2.3593,2.3519,2.3298,2.3519,2.3593,2.3593,2.3824,2.397,2.42,2.42,2.4189,2.42,2.42,2.42,2.42,2.42,2.42,2.42,2.42,2.42,2.42,4.0887,4.1267,4.1816,4.2447,4.3049,4.3841,4.5093,4.4557,4.37,4.2891,4.1825,4.0396,3.8485,3.6007,3.3899,3.2628,3.0228,2.9647,3.1693,3.0865,3.0543,3.114,3.2524,3.2299,3.01,3.1886,3.2703,3.2523,3.2468,3.2064,3.1248,3.119,3.0524,2.9282,2.6959,2.4797,2.2692,2.1261,1.9412,1.7607,1.8391,1.792,1.648,1.5838,1.5365,1.5054,1.4328,1.425,0.0,1.4887,1.639,1.8054,1.8089,1.9515,2.1257,2.1278,2.1725,2.2392,0.0,0.0,2.3627,2.5356,2.6152,2.686,2.8556,2.956,3.019,3.0568,3.0807,3.0925,3.094,3.1278,3.1435,3.1153,3.1432,3.158,0.0,3.1675,3.1811,3.1467,3.0421,2.951,2.9122,2.8666,2.7749,2.6096,2.6357,2.5832,2.4261,2.42,2.42,2.4127,2.4127,2.4043,2.397,2.397,2.397,2.3897,2.397,2.397,2.397,2.4043,2.4116,2.42,2.42,2.42,2.42,2.42,2.42,2.42,2.42,2.42,2.42,2.42,2.42,2.42,4.0967,4.094,4.113,4.1763,4.2541,4.3404,4.436,4.4172,4.3417,4.2094,4.1469,4.0258,3.7928,3.5838,3.4093,3.2817,3.0476,2.9978,3.2143,3.0617,2.9774,3.025,3.1189,3.066,2.8302,3.0558,3.1702,3.1573,3.1788,3.1549,3.0866,3.0674,3.0072,2.9233,2.7734,2.5237,2.2187,2.1445,1.9462,1.6985,1.8788,1.8779,1.7662,1.7429,1.6798,1.5846,0.0,1.4088,1.4088,1.4088,1.5282,1.6708,1.6355,1.8098,2.0227,1.9875,2.0575,2.1486,2.1941,2.1941,0.0,2.3822,2.4566,0.0,2.7366,2.8373,2.9136,3.0115,3.0433,3.0613,3.0762,3.1219,3.1509,3.1437,3.1655,3.1784,0.0,3.1811,3.1868,3.1539,3.0984,3.0332,2.9771,2.9324,2.8397,2.6684,2.6549,2.6027,2.4802,2.4406,2.42,2.42,2.42,2.42,2.42,2.42,2.42,2.42,2.42,2.42,2.42,2.42,2.42,2.42,2.42,2.42,2.42,2.42,2.42,2.42,2.42,2.42,2.42,2.42,2.42,2.42,4.1007,4.1003,4.1201,4.1838,4.2628,4.3101,4.2994,4.3578,4.3434,4.1754,4.1052,4.0028,3.8387,3.5114,3.2949,3.2661,2.9526,2.9066,3.2462,2.9265,2.7731,2.8736,2.8443,2.7118,2.4707,2.7998,2.9711,2.9711,3.0306,3.0482,3.0329,2.9879,2.9213,2.8417,2.9044,2.6573,2.1924,2.2083,1.9648,1.5899,1.8479,1.9418,1.927,1.9122,1.8063,1.6374,1.472,1.4088,1.4088,1.4088,1.4173,1.4334,1.5151,1.6049,1.6944,1.7755,1.8647,1.952,2.072,2.1018,2.1314,2.2499,2.3464,0.0,0.0,0.0,2.7564,2.9226,2.9594,2.9842,3.0553,3.097,3.1278,3.1351,3.1597,3.1727,3.1539,3.1539,3.1524,3.1482,3.1925,3.1564,2.9954,3.0689,3.0211,2.7787,2.7591,2.702,2.5812,2.4802,2.4261,2.42,2.42,2.42,2.42,2.42,2.42,2.42,2.42,2.42,2.42,2.42,2.42,2.42,2.42,2.42,2.42,2.42,2.42,2.42,2.42,2.42,2.42,2.42,2.42,2.42,4.0994,4.0991,4.1046,4.1229,4.1927,4.2807,4.3863,4.3566,4.2614,4.0924,4.0491,3.9088,3.5707,3.3713,3.2441,3.1881,3.0101,2.9538,3.0661,2.9918,2.8685,2.6922,2.8157,2.7522,2.4614,2.7731,2.9464,2.9647,3.0079,3.0406,3.0644,2.9771,2.9476,2.9747,2.9435,2.7773,2.5208,2.467,2.2619,1.9773,2.0178,2.0207,1.9936,0.0,1.7527,1.6887,1.5137,1.4489,1.4321,1.4321,1.465,1.5068,1.5311,1.6453,1.7674,1.7917,1.8647,1.9371,1.9678,1.9747,2.0129,2.1466,2.1964,2.2594,0.0,0.0,0.0,0.0,0.0,0.0,0.0,2.9732,3.069,3.1524,3.1727,3.1727,3.1539,3.191,3.2023,3.1524,3.2023,3.1992,3.1131,3.063,2.9714,2.7944,2.7565,2.6655,2.4743,2.5075,2.5004,2.42,2.42,2.42,2.42,2.42,2.42,2.42,2.42,2.42,2.42,2.42,2.42,2.42,2.42,2.42,2.42,2.42,2.42,2.42,2.42,2.42,2.42,2.42,2.42,2.42,4.0971,4.1004,4.1123,4.1493,4.1629,4.1931,4.2656,4.3173,4.2769,4.0818,4.0102,3.8586,3.5513,3.3277,3.1789,3.1092,2.9624,2.9038,2.9949,2.8795,2.7511,2.6181,2.6563,2.561,2.2963,2.5404,2.6959,2.7498,2.7459,2.8393,3.0101,2.863,2.8451,2.9282,2.917,2.7826,2.5568,2.3432,2.203,2.1055,1.9782,1.9275,0.0,1.7912,1.7066,1.6363,1.5318,1.4824,1.4566,1.4566,1.4817,1.5151,1.5477,1.646,1.7594,1.7917,1.8647,1.9301,1.9301,1.9301,1.9529,2.0275,2.0498,2.0931,2.2572,2.3014,2.3274,0.0,2.5416,2.6316,0.0,0.0,3.0317,3.1597,3.1799,3.1727,3.167,3.1981,3.2079,3.1754,3.2176,3.2327,3.2007,3.1188,3.0047,2.873,2.841,2.7762,2.6438,2.6052,2.5603,2.4945,2.4874,2.4671,2.42,2.4671,2.4671,2.42,2.42,2.42,2.42,2.42,2.42,2.42,2.42,2.42,2.42,2.42,2.42,2.42,2.42,2.42,2.42,2.42,2.42,2.42,4.1085,4.1169,4.1466,4.2315,4.1837,4.1231,4.0946,4.2538,4.3056,4.0975,3.9799,3.8321,3.6291,3.3468,3.1401,3.0572,2.8754,2.8244,2.9614,2.7141,2.5656,2.584,2.4661,2.3054,2.1021,2.2552,2.3864,2.4837,2.4223,2.5697,2.9156,2.7272,2.6938,2.7959,2.8712,2.7499,2.4671,2.1254,2.033,2.0979,1.8655,1.7823,1.7894,1.7446,1.6519,1.5431,1.5431,1.5082,1.4741,1.4741,1.4817,1.4901,1.5484,1.6386,1.7277,1.7836,1.8647,1.9301,1.9301,1.9301,1.9301,1.9301,1.9301,1.9599,2.0874,2.1084,2.1587,2.3201,2.4223,2.4943,0.0,0.0,3.0104,3.1336,3.1524,3.1467,3.1321,3.1422,3.1537,3.1682,3.2033,0.0,3.2532,3.1936,3.097,2.9789,2.9803,2.9572,2.8919,0.0,2.6133,2.5712,2.5652,2.5241,2.4499,2.5241,2.5205,2.4406,2.4261,2.42,2.42,2.42,2.42,2.42,2.42,2.42,2.42,2.42,2.42,2.42,2.42,2.42,2.42,2.42,2.42,2.42,4.1797,4.2075,4.2417,4.3235,4.3194,4.2814,4.2047,4.1735,4.1286,4.0418,3.972,3.8117,3.5155,3.3815,3.2416,3.0636,2.9352,2.8454,2.8182,2.7484,2.6308,2.4637,2.4552,2.3463,2.1165,2.2434,2.3724,2.5102,2.4153,2.5371,2.8552,2.7486,2.7207,2.7643,2.9614,2.876,2.5827,2.4484,2.2871,2.1055,1.9091,1.8188,1.7966,1.6363,1.5582,1.5431,1.5431,1.5257,1.5006,1.5006,1.5242,1.5567,1.565,1.6706,1.7836,1.7997,1.8647,1.9301,1.9301,1.9301,1.9301,1.9301,1.9301,1.9381,1.9599,1.9678,1.9747,2.01,2.0787,2.1889,2.3686,0.0,2.9771,3.0029,3.009,2.9709,2.873,2.8702,2.9143,3.0015,3.0334,3.1041,3.2312,3.2477,3.2109,3.0966,3.1516,3.0528,2.7302,0.0,2.704,0.0,2.4676,2.5003,0.0,0.0,2.4802,2.5475,2.4599,2.42,2.42,2.42,2.42,2.42,2.42,2.42,2.42,2.42,2.42,2.42,2.42,2.42,2.42,2.42,2.42,2.42,4.2071,4.2623,4.3097,4.3525,4.3211,4.2733,4.2257,4.0912,3.9974,4.0058,3.9276,3.7615,3.4769,3.329,3.1809,3.0158,2.8981,2.8157,2.7842,2.7175,2.5988,2.4143,2.4348,2.3294,2.0605,2.1532,2.2424,2.3206,2.3178,2.4755,2.7735,2.7552,2.7762,2.8166,2.8136,2.717,2.5399,2.3022,2.121,1.9744,1.7637,1.6814,1.6667,1.5733,1.5431,1.5431,1.5431,1.559,1.5741,1.5741,1.5899,1.6147,1.6878,1.7521,1.8247,1.8567,1.8975,1.9301,1.9301,1.9301,1.9301,1.9301,1.9301,1.9301,1.9301,1.9301,1.9301,1.9301,1.9923,2.1247,2.3781,2.6304,0.0,0.0,2.9372,2.9358,2.8177,2.8085,2.8393,2.8927,2.961,3.0528,3.1543,3.247,3.2703,3.1896,3.217,3.1263,2.8646,0.0,2.7747,0.0,0.0,0.0,2.6107,0.0,2.5397,2.5324,2.4583,2.42,2.42,2.42,2.42,2.42,2.42,2.42,2.42,2.42,2.42,2.42,2.42,2.42,2.42,2.42,2.42,2.42,4.2245,4.2978,4.3537,4.3466,4.2812,4.2182,4.1777,3.9975,3.8891,3.9524,3.8455,3.6737,3.4258,3.2649,3.1127,2.9721,2.8495,2.7776,2.7776,2.6701,2.537,2.3998,2.412,2.2914,2.0216,2.0769,2.1268,2.1611,2.236,2.4091,2.6806,2.7552,2.8153,2.8424,2.6354,2.4987,0.0,0.0,1.921,1.847,1.6667,1.5989,1.5906,1.5748,1.5831,1.5914,1.5665,1.6072,1.6722,1.6796,1.6796,1.696,1.8014,1.8416,1.8656,1.9143,1.9301,1.9301,1.9301,1.9301,1.9301,1.9301,1.9301,1.9301,1.9301,1.9301,1.9301,1.9301,1.9923,2.1324,2.408,2.5485,0.0,0.0,0.0,2.8738,2.7774,2.7486,2.7538,2.7799,2.8886,2.9886,3.047,3.2158,3.2949,3.2266,3.2266,3.1687,3.0263,0.0,0.0,0.0,0.0,2.7174,2.6652,0.0,2.5934,2.5261,2.4595,2.4292,2.42,2.42,2.42,2.42,2.42,2.42,2.42,2.42,2.42,2.42,2.42,2.42,2.42,2.42,2.42,2.42,4.2474,4.3255,4.3546,4.3133,4.2687,4.1878,4.0345,3.8849,3.7995,3.8237,3.7124,3.5384,3.2935,3.2511,3.1632,2.9769,2.8495,2.7776,2.7776,2.6277,2.5016,2.4215,2.3756,2.2776,2.1078,2.0924,2.1476,2.2646,2.2381,2.3464,0.0,2.7261,2.7851,2.76,0.0,0.0,0.0,2.0665,1.9459,1.8284,1.7908,1.7755,1.7674,1.6862,1.7107,1.7602,1.6632,1.6878,1.761,1.8014,1.8095,1.8175,1.8256,1.8736,1.9222,1.9301,1.9301,1.9301,1.9301,1.9301,1.9301,1.9301,1.9301,1.9301,1.9301,1.9301,1.9301,1.9301,1.9923,2.1171,2.3335,2.4401,2.5628,0.0,0.0,2.6357,2.6221,2.524,2.4981,2.6096,2.7446,2.8429,2.89,3.1622,3.287,3.1576,3.1728,3.1317,3.015,0.0,0.0,2.8425,2.8014,2.8356,2.9718,2.7107,2.5965,2.6299,2.5362,2.4613,2.42,2.42,2.42,2.42,2.42,2.42,2.42,2.42,2.42,2.42,2.42,2.42,2.42,2.42,2.42,2.42,4.2002,4.2554,4.2646,4.176,4.1418,4.0789,3.9332,3.8069,3.7165,3.7003,3.6135,3.46,3.2146,3.1955,3.1383,2.9837,2.8739,2.8105,2.8105,2.6458,2.5063,2.4204,2.3599,2.2638,2.1011,2.1252,2.1461,2.1476,2.3475,2.4566,2.4744,2.638,0.0,0.0,0.0,2.2105,2.0959,1.9927,1.9052,1.8443,1.8221,1.8149,1.8149,1.7666,1.7674,1.7917,1.7513,1.7844,1.8487,1.8496,1.8416,1.8336,1.8736,1.9063,1.9301,1.9301,1.9301,1.9301,1.9301,1.9301,1.9301,1.9301,1.9301,1.9301,1.9301,1.9301,1.9301,1.9301,1.9923,2.0904,2.2275,2.3743,2.4967,2.5566,0.0,2.5775,2.5052,2.4527,2.4659,2.5832,2.7141,2.8099,2.8302,3.114,3.2532,3.1698,3.2998,3.311,3.1498,0.0,0.0,3.0225,0.0,2.8106,2.963,2.7353,2.6271,2.6488,2.5425,2.4809,2.4613,2.4326,2.42,2.42,2.42,2.42,2.42,2.42,2.42,2.42,2.42,2.42,2.42,2.42,2.42,2.42,4.1457,4.1877,4.1773,4.0372,4.0166,3.968,3.8165,3.7024,3.6228,3.5869,3.5051,3.3751,3.1853,3.1522,3.0984,2.9699,2.8739,2.8143,2.796,2.6158,2.4767,2.4047,2.3243,2.2285,2.1175,2.1568,2.1415,2.0722,2.357,2.4412,0.0,0.0,0.0,0.0,2.1647,2.104,2.0487,1.9631,1.9335,1.9404,1.9256,1.9107,1.9027,1.8638,1.8559,1.8718,1.8479,1.8807,1.9371,1.9213,1.8984,1.8745,1.9143,1.9301,1.9301,1.9301,1.9301,1.9301,1.9301,1.9301,1.9301,1.9301,1.9301,1.9301,1.9301,1.9301,1.9301,1.9301,1.9923,2.0769,2.1614,2.3165,2.4387,2.4707,0.0,0.0,2.4791,2.4394,2.4659,2.5958,2.722,2.7866,2.7578,3.0321,3.1645,3.0661,3.271,3.3395,0.0,0.0,0.0,0.0,0.0,0.0,2.9282,2.7593,2.6611,2.6462,2.5716,2.521,2.49,2.4418,2.42,2.42,2.42,2.42,2.42,2.42,2.42,2.42,2.42,2.42,2.42,2.42,2.42,2.42,4.0959,4.1426,4.1195,3.9168,3.9209,3.8783,3.6658,3.5588,3.5038,3.5038,3.3716,3.2571,3.1946,3.1334,3.0493,2.9226,2.8403,2.7736,2.704,2.5052,2.3925,2.3925,2.2531,2.1807,2.1807,2.1807,2.1492,2.0867,2.2081,0.0,2.1538,0.0,2.2305,2.1497,2.0984,2.0613,2.0459,2.0235,2.0712,2.1425,2.1282,2.1061,2.0741,1.9932,2.0001,2.0489,1.9618,1.9706,2.0264,2.0264,1.9951,1.9557,1.9381,1.9301,1.9301,1.9301,1.9301,1.9301,1.9301,1.9301,1.9301,1.9301,1.9301,1.9301,1.9301,1.9301,1.9301,1.9301,1.9923,2.0769,2.1614,2.2456,2.3694,2.5693,0.0,0.0,2.5832,2.4909,2.4719,2.6152,2.738,2.7643,2.6413,2.9018,2.9922,2.7832,3.0038,3.1368,0.0,0.0,0.0,2.9412,2.9282,0.0,2.9282,2.7879,2.6967,2.6462,2.645,2.5911,2.49,2.4418,2.42,2.42,2.42,2.42,2.42,2.42,2.42,2.42,2.42,2.42,2.42,2.42,2.42,2.42,4.029,4.0205,3.974,3.844,3.8258,3.7914,3.6643,3.5749,3.5081,3.4607,3.3375,3.2327,3.1694,3.1379,3.0658,2.9373,2.8712,2.8051,2.7351,2.524,2.4047,2.4047,2.2606,2.1807,2.1807,2.1807,2.1492,2.0867,0.0,0.0,0.0,2.106,2.0487,1.9182,2.0168,2.0518,2.0537,2.1098,2.1415,2.1655,2.1512,2.1359,2.1282,2.0731,2.0654,2.0741,2.0508,2.042,2.0489,2.0489,2.0333,2.0029,1.9784,1.9539,1.9301,1.9301,1.9301,1.9301,1.9469,1.9478,1.9478,1.9478,1.9478,1.9469,1.9301,1.9687,2.0148,2.0148,2.1231,2.2306,2.2531,2.3298,2.4032,2.4647,2.4455,0.0,2.4719,2.5181,2.5901,2.722,2.8461,2.8716,2.7486,2.9115,2.9917,2.9357,3.1343,0.0,0.0,0.0,0.0,0.0,2.8839,0.0,2.9282,2.7891,2.7151,2.6978,2.6634,2.5922,2.49,2.4751,2.4499,2.42,2.42,2.42,2.42,2.42,2.42,2.42,2.42,2.42,2.42,2.42,2.4407,2.4682,4.0003,3.9731,3.9226,3.8111,3.7877,3.7524,3.665,3.5881,3.522,3.4703,3.3323,3.2287,3.1879,3.1379,0.0,2.9093,2.8698,2.8117,2.7162,2.5252,2.4108,2.4108,2.2596,2.1807,2.1807,2.1807,0.0,2.0867,2.1456,2.1232,2.0198,2.0062,1.965,1.8948,2.006,2.0702,2.1011,2.1568,2.1807,2.1807,2.1655,2.1589,2.1512,2.1205,2.1061,2.0984,2.1138,2.0974,2.0731,2.0809,2.0576,2.0264,2.0108,1.9784,1.9548,1.9548,1.9548,1.9548,1.9715,1.9715,1.9715,1.9715,1.9872,2.0098,2.0294,2.0672,2.1058,2.1058,2.2069,2.3001,2.3001,2.3677,2.42,2.42,2.42,2.4394,2.4909,2.5566,2.6481,2.7918,2.8702,0.0,0.0,2.8048,2.8511,2.8473,2.9619,0.0,0.0,0.0,0.0,2.9783,2.8119,2.7592,2.8469,2.7672,2.7231,2.7219,2.6703,2.6129,2.5486,2.5084,2.4751,2.4453,2.4281,2.42,2.42,2.42,2.42,2.42,2.42,2.4303,2.4464,2.4464,2.4786,2.521,4.0023,3.9863,3.9397,0.0,3.7767,0.0,3.6493,3.5744,3.5177,3.4964,3.3351,3.2244,3.2133,3.1129,2.994,2.8566,0.0,0.0,2.6589,2.4992,2.4108,2.4108,2.2596,2.1807,2.1807,2.1807,2.1492,2.0867,2.007,1.9599,1.9599,1.9502,1.9816,2.0459,2.0547,2.1011,2.1807,2.1807,2.1807,2.1807,2.1807,2.1655,2.1512,2.1512,2.1359,2.1282,2.1425,2.1282,2.0984,2.1128,2.0819,2.0342,2.0342,2.0177,1.9942,1.9942,1.9863,1.9942,2.002,2.002,2.001,2.0089,2.0557,2.1155,2.1886,2.2027,2.2103,2.2103,2.267,2.3075,2.3075,2.3666,2.42,2.42,2.4261,2.4791,2.6083,2.6221,2.6659,2.8109,0.0,0.0,2.6413,2.6276,2.6135,0.0,2.5847,0.0,0.0,0.0,3.0729,2.7301,2.7231,2.7231,2.7231,2.7231,2.7231,2.7219,2.6817,2.6576,2.6427,2.5539,2.5079,2.4946,2.4453,2.4246,2.4246,2.4212,2.4212,2.4246,2.4246,2.4545,2.4969,2.4969,2.5314,2.5761,0.0,0.0,3.8584,3.7343,3.6653,3.5874,3.4831,3.425,3.3483,3.224,3.1435,3.0586,2.9666,2.9344,2.8767,2.7876,2.8248,2.792,2.6589,2.4992,2.4108,2.4108,2.2596,2.1807,2.1807,2.1807,2.1492,2.0867,2.0148,1.9747,1.9599,2.0226,2.0537,2.0537,2.1175,2.1645,2.1807,2.1807,2.1807,2.1807,2.1807,2.1807,2.1731,2.1578,2.1512,2.1436,2.1502,2.1359,2.1128,2.1205,2.0974,2.0741,2.0576,2.0489,2.0333,2.002,1.9863,2.0098,2.0934,2.1088,2.1231,2.1811,2.1952,2.2038,2.2178,2.2638,2.3021,2.3147,2.3559,2.397,2.4127,2.42,2.42,2.42,2.511,2.5889,2.6276,2.7061,2.7774,0.0,2.8048,2.7486,2.6221,2.6096,2.6474,0.0,0.0,2.7878,2.8885,2.972,2.9297,2.7219,2.7231,2.7231,2.7231,2.7231,2.7231,2.7231,2.7797,2.7446,2.653,2.6877,2.6482,2.5497,2.4969,2.474,2.4717,2.4349,2.4407,2.474,2.474,2.5061,2.552,2.552,2.5842,2.629,3.8936,3.8442,3.7778,3.6614,3.6028,3.5385,3.4254,3.3761,3.305,3.174,3.0982,3.0268,2.9372,2.9002,2.8383,2.7387,2.7773,2.7655,2.6577,2.4992,2.4108,2.4108,2.2596,2.1807,2.1807,2.1807,2.1645,2.1328,2.0934,2.0692,2.0624,2.1098,2.1252,2.1098,2.1568,2.1807,2.1807,2.1807,2.1807,2.1807,2.1807,2.1807,2.1807,2.1655,2.1655,2.1655,2.1655,2.1502,2.1359,2.1205,2.1061,2.0829,2.0654,2.0867,2.1088,2.0857,2.0779,2.0924,2.1461,2.1907,2.236,2.3032,2.3169,2.322,2.3526,2.3841,2.4143,2.4204,2.4311,2.4345,2.449,2.4345,2.42,2.42,2.5368,2.6276,2.6276,2.7314,2.7891,2.7301,2.7128,2.6561,2.531,2.5385,2.5925,2.6868,2.7158,0.0,2.8409,2.8445,2.8096,2.7231,2.7231,2.7231,2.7231,2.7231,2.7383,2.7777,2.7846,2.7693,2.7411,2.7633,2.7073,2.6026,2.5855,2.5622,2.5256,2.4992,2.5038,2.5279,2.5279,2.5589,2.606,2.606,2.6381,2.6818,3.7615,3.7393,3.695,3.5802,3.5527,3.5058,3.389,3.3419,3.2858,3.1847,3.099,3.0231,2.9748,2.9089,2.811,2.6877,2.7142,2.711,2.6425,2.4945,2.4108,2.4108,2.2596,2.1807,2.1807,2.1807,2.1807,2.1807,2.1807,2.1807,2.1807,2.1807,2.1807,2.1807,2.1807,2.1807,2.1807,2.1807,2.1807,2.1807,2.1807,2.1807,2.1807,2.1807,2.1883,2.1959,2.1959,2.1873,2.1807,2.1578,2.1425,2.1205,2.1031,2.1461,2.1983,2.1983,2.2059,2.2134,2.2134,2.2723,2.3475,2.3959,2.4227,2.442,2.5028,2.5111,2.5111,2.5111,2.4849,2.4574,2.4574,2.4418,2.4334,2.4576,2.575,2.6659,2.6646,0.0,2.7682,2.6375,2.5946,2.531,2.4334,2.4636,2.5142,2.567,2.6175,2.6691,2.7196,2.7231,2.7231,2.7231,2.7231,2.7231,2.7231,2.7301,2.7765,2.8462,2.7995,2.8075,2.8688,2.8227,2.7567,2.6769,2.6842,2.6464,2.5819,2.5739,2.5761,2.583,2.583,2.614,2.6588,2.6588,2.6852,2.7231,3.7615,3.6953,3.6138,3.4989,3.4218,3.3355,3.2093,3.1863,3.1381,3.0173,2.9529,2.8933,2.8316,2.7757,2.7136,2.6406,2.6298,2.6094,2.5794,2.4731,2.4108,2.4108,2.2596,2.1807,2.1807,2.1807,2.1807,2.1807,2.1807,2.1807,2.1807,2.1807,2.1807,2.1807,2.1807,2.1807,2.1807,2.1807,2.1807,2.1807,2.1807,2.1807,2.1807,2.1807,2.2101,2.2553,2.2553,2.2852,2.3224,2.3075,2.2927,2.2916,2.267,2.2734,2.2798,2.2798,2.3231,2.3745,2.3745,2.4348,2.4945,2.5087,2.5099,2.5158,2.5241,2.5182,2.5111,2.5241,2.4981,2.4718,2.4718,2.4718,2.5075,2.6145,2.7499,2.8402,2.8348,0.0,2.7889,2.6455,2.524,2.4394,2.4189,2.4636,2.5142,2.567,2.6175,2.6691,2.7196,2.7231,2.7231,2.7231,2.7231,2.7231,2.7231,2.7926,2.8383,2.8542,2.9756,3.0063,2.9549,2.9462,2.8959,2.816,2.7018,2.6493,2.6313,2.5888,2.5968,2.6347,2.6347,2.6657,2.7116,2.7116,2.7162,2.7231,3.6315,3.5905,3.5363,3.4497,3.3853,3.313,3.2161,3.1731,3.1123,3.0107,2.9422,2.8795,2.8192,2.766,2.6905,2.5953,2.6002,2.5915,2.5486,2.4336,2.3833,2.4097,2.2596,2.1807,2.1807,2.1807,2.1807,2.1807,2.1807,2.1807,2.1807,2.1807,2.1807,2.1807,2.1807,2.1807,2.1807,2.1807,2.1807,2.1807,2.1807,2.1949,2.2252,2.2252,2.2628,2.315,2.315,2.3372,2.3593,2.3372,2.3298,2.3287,2.3043,2.3243,2.361,2.361,2.3818,2.4192,2.4636,2.5016,2.5312,2.5312,2.5312,2.5312,2.5312,2.5241,2.5241,2.5312,2.5111,2.4992,2.4992,2.4861,2.5229,2.6566,2.7288,0.0,0.0,2.7433,2.6889,2.5368,2.4587,2.42,2.42,2.49,2.544,2.5693,2.6439,2.6978,2.7219,2.7231,2.7231,2.7231,2.7231,2.7464,2.7926,2.8315,2.8924,2.9833,3.0139,3.0291,3.038,3.038,2.9922,2.9147,2.8954,2.839,2.7549,2.7301,2.7044,2.6875,2.6875,2.7024,2.7231,2.7231,2.7231,2.7231,3.5193,3.5105,3.4889,3.4227,3.3778,3.3277,3.2613,3.195,3.1257,3.0584,2.9689,2.8935,2.8543,2.7845,2.7011,2.596,2.5994,2.5887,2.5426,2.419,2.3735,2.4446,2.2894,2.1949,2.1807,2.1807,2.1807,2.1807,2.1807,2.1807,2.1807,2.1807,2.1807,2.1807,2.1807,2.1807,2.1807,2.1959,2.2025,2.2025,2.2176,2.2478,2.2927,2.2927,2.3298,2.3813,2.3813,2.3886,2.3948,2.3801,2.3728,2.3728,2.3548,2.3902,2.4409,2.4409,2.4409,2.448,2.5158,2.5312,2.5312,2.5312,2.5312,2.5312,2.5312,2.5312,2.5312,2.5312,2.5241,2.5111,2.5111,2.4981,2.5358,2.6659,0.0,0.0,0.0,2.6578,2.5946,2.4394,2.42,2.42,2.42,2.5119,2.5716,2.5716,2.6657,2.7231,2.7231,2.7231,2.7231,2.7231,2.7383,2.7926,2.8767,2.9003,2.9679,3.0895,3.0456,3.062,3.1206,3.097,3.0594,2.9999,3.0443,2.9909,2.8767,2.8542,2.8075,2.7452,2.7301,2.7231,2.7231,2.7231,2.7231,2.7231,3.5193,3.5105,3.4889,3.4227,3.3831,3.3364,3.2709,3.2021,3.1449,3.1083,2.9892,2.9074,2.9028,2.8189,2.7306,2.6669,2.6002,2.5617,2.5579,2.4596,2.4475,2.5438,2.3852,2.2553,2.1807,2.1807,2.1807,2.1807,2.1807,2.1807,2.1807,2.1807,2.1807,2.1807,2.1807,2.1807,2.1807,2.2402,2.2628,2.2703,2.3224,2.3519,2.3519,2.3519,2.3886,2.4443,2.4443,2.4731,2.517,2.517,2.5158,2.5158,2.517,2.5158,2.5229,2.5229,2.5229,2.5229,2.53,2.5312,2.5312,2.5312,2.5312,2.5312,2.5312,2.5312,2.5312,2.5312,2.5312,2.5241,2.5111,2.5182,2.5673,2.6943,0.0,0.0,2.6997,2.6835,2.614,2.4394,2.42,2.42,2.42,2.5119,2.5716,2.5716,2.6657,2.7231,2.7231,2.7231,2.7231,2.7231,2.8007,2.8779,2.9626,3.0367,3.0807,3.0895,3.1629,3.2023,3.2096,3.1294,3.0895,3.0745,3.0075,2.9704,2.9549,2.8767,2.8462,2.8303,2.7534,2.7231,2.7231,2.7231,2.7231,2.7231,3.5289,3.5119,3.4925,3.4591,3.4025,3.3524,3.3277,3.2298,3.1507,3.1283,3.0175,2.9303,2.8997,2.8398,2.761,2.6774,2.6457,2.6104,2.5747,2.5739,2.547,2.4862,2.3756,2.2968,2.2553,2.2035,2.1807,2.1807,2.1807,2.1807,2.1807,2.1807,2.1807,2.1807,2.1807,2.2111,2.2553,2.2777,2.3065,2.3497,2.3717,2.3936,2.4166,2.4166,2.4527,2.5028,2.5028,2.5099,2.5312,2.5312,2.5312,2.5312,2.5312,2.5312,2.5312,2.5312,2.5312,2.5312,2.5312,2.5312,2.5312,2.5312,2.5312,2.5312,2.5312,2.5312,2.5312,2.5312,2.5312,2.5312,2.5241,2.5241,2.5742,2.7048,0.0,2.6246,2.6902,2.6164,2.5288,2.4478,2.4273,2.4315,2.4613,2.5291,2.5842,2.6152,2.6829,2.7231,2.7231,2.7231,2.7696,2.87,2.9081,2.9394,2.9704,3.0519,3.1206,3.169,3.2009,3.2182,3.2182,3.185,3.169,3.169,3.1394,3.0921,3.0443,3.0126,2.9679,2.9238,2.8858,2.8462,2.8007,2.8007,2.7696,2.7231,3.535,3.5136,3.4963,3.4812,3.4171,3.3671,3.3671,3.2464,3.1548,3.1456,3.0344,2.9409,2.8951,2.851,2.7875,2.7034,2.6841,2.6415,2.5821,2.6202,2.5949,2.5004,2.4036,2.339,2.3054,2.2467,2.2025,2.1807,2.2025,2.2025,2.1807,2.1807,2.1949,2.2176,2.2176,2.2617,2.335,2.357,2.3863,2.4288,2.4432,2.4659,2.4957,2.4957,2.5099,2.5382,2.5382,2.5382,2.5312,2.5312,2.5312,2.5312,2.5312,2.5312,2.5312,2.5312,2.5312,2.5312,2.5312,2.5312,2.5312,2.5312,2.5312,2.5312,2.5312,2.5312,2.5312,2.5312,2.5312,2.5312,2.5312,2.5312,2.5627,2.6519,2.5881,2.5557,2.6302,2.5557,2.479,2.4502,2.4345,2.4457,2.4866,2.5406,2.5922,2.6427,2.6932,2.7231,2.7231,2.7464,2.8155,2.9316,2.9845,3.0075,3.0075,3.0908,3.1616,3.2182,3.2182,3.2182,3.2182,3.2182,3.2182,3.2182,3.2182,3.185,3.1294,3.1044,3.0594,3.0075,2.9781,2.9394,2.8858,2.8858,2.8462,2.8007,3.5345,3.5136,3.4963,3.4812,3.4255,3.3807,3.3807,3.2479,3.1497,3.1497,3.0327,2.938,2.8951,2.8494,2.8024,2.7625,2.7049,2.6457,2.5851,2.5807,2.5858,2.6064,2.5052,2.4036,2.322,2.3054,2.2628,2.1807,2.2628,2.2628,2.1807,2.1807,2.2252,2.3001,2.3001,2.3423,2.412,2.4719,2.5016,2.5087,2.5676,2.591,2.591,2.591,2.5758,2.5606,2.5606,2.5453,2.5312,2.5312,2.5312,2.5312,2.5312,2.5312,2.5312,2.5312,2.5312,2.5312,2.5312,2.5312,2.5312,2.5312,2.5312,2.5312,2.5312,2.5312,2.5312,2.5312,2.5312,2.5312,2.5312,2.5312,2.5312,2.5312,2.5312,2.5241,2.5111,2.5123,2.4981,2.4562,2.449,2.4615,2.4877,2.5406,2.5922,2.6427,2.6944,2.7231,2.7231,2.7995,2.8542,2.8542,3.0063,3.0895,3.0895,3.1776,3.2182,3.2182,3.2182,3.2182,3.2182,3.2182,3.2182,3.2182,3.2182,3.2182,3.2096,3.1294,3.0895,3.082,2.9999,2.9704,2.9704,2.9704,2.9704,2.9704,3.5541,3.5216,3.4999,3.4963,3.4307,3.3807,3.3807,3.2809,3.1914,3.1534,3.0858,3.0038,2.8997,2.8716,2.8286,2.7675,2.7458,2.7068,2.6455,2.6036,2.6024,2.6477,2.5903,2.5405,2.4898,2.4264,2.3768,2.339,2.3128,2.3128,2.339,2.2905,2.3054,2.3768,2.3768,2.4204,2.4933,2.5158,2.5453,2.584,2.6062,2.6062,2.591,2.591,2.5828,2.5828,2.5828,2.5688,2.5535,2.5535,2.5382,2.5312,2.5312,2.5312,2.5312,2.5312,2.5312,2.5312,2.5312,2.5312,2.5312,2.5312,2.5312,2.5312,2.5312,2.5312,2.5312,2.5312,2.5312,2.5312,2.5312,2.5312,2.5312,2.5312,2.5312,2.5312,2.5241,2.5182,2.5052,2.4909,2.4778,2.4985,2.5622,2.5854,2.6228,2.6944,2.7151,2.7464,2.8075,2.8383,2.9003,3.0139,3.067,3.1206,3.1776,3.2096,3.2182,3.2182,3.2182,3.2182,3.2182,3.2182,3.2182,3.2182,3.2182,3.2182,3.2182,3.1936,3.1776,3.1776,3.1556,3.1071,3.0519,3.0519,3.0152,2.9704,3.5623,3.5296,3.5034,3.4997,3.4334,3.3807,3.3807,3.2921,3.2056,3.1571,3.1072,3.0377,2.9273,2.8935,2.8511,2.7875,2.7458,2.7091,2.6702,2.6122,2.6078,2.6675,2.6464,2.6176,2.5836,2.5193,2.4624,2.4192,2.3998,2.3998,2.412,2.3621,2.3852,2.4564,2.4564,2.5004,2.5734,2.5734,2.5968,2.6339,2.6339,2.6258,2.6119,2.6119,2.6119,2.598,2.598,2.591,2.5688,2.5606,2.5465,2.5312,2.5312,2.5312,2.5312,2.5312,2.5312,2.5312,2.5312,2.5312,2.5312,2.5312,2.5312,2.5312,2.5312,2.5312,2.5312,2.5312,2.5312,2.5312,2.5312,2.5312,2.5312,2.5312,2.5312,2.5312,2.5312,2.5241,2.5182,2.5111,2.4992,2.5262,2.6071,2.6023,2.6297,2.7151,2.7231,2.7615,2.8462,2.8767,2.9537,3.0895,3.1206,3.169,3.2169,3.2182,3.2182,3.2182,3.2182,3.2182,3.2182,3.2182,3.2182,3.2182,3.2182,3.2182,3.2182,3.2182,3.2182,3.2182,3.2182,3.1863,3.1442,3.1442,3.1084,3.0709,3.5604,3.533,3.5088,3.4997,3.4357,3.3834,3.3788,3.2885,3.2057,3.1588,3.1111,3.0502,2.9605,2.9136,2.8685,2.8235,2.7306,2.6683,2.6683,2.6133,2.6058,2.6681,2.6678,2.6528,2.6239,2.5906,2.5346,2.4636,2.5075,2.5004,2.4337,2.4264,2.4636,2.5382,2.5382,2.5804,2.6533,2.6533,2.6533,2.6533,2.6533,2.6533,2.6533,2.6533,2.6396,2.6201,2.6201,2.6131,2.5898,2.5676,2.5465,2.5312,2.5312,2.5312,2.5312,2.5312,2.5312,2.5312,2.537,2.5382,2.5312,2.537,2.5382,2.537,2.5312,2.5312,2.5312,2.5312,2.5312,2.5312,2.5312,2.5312,2.5312,2.5312,2.5312,2.5312,2.5312,2.5312,2.5241,2.5111,2.5159,2.5504,2.6352,2.64,2.6613,2.7162,2.7301,2.7765,2.8542,2.9394,3.0152,3.097,3.1776,3.2182,3.2182,3.2182,3.2182,3.2182,3.2182,3.2182,3.2182,3.2182,3.2182,3.2182,3.2182,3.2182,3.2182,3.2182,3.2182,3.2182,3.2182,3.2182,3.2182,3.2182,3.2182,3.2182,3.5604,3.533,3.5088,3.4997,3.4508,3.4049,3.3815,3.3361,3.2713,3.177,3.1435,3.0834,2.9705,2.9074,2.8622,2.8235,2.7306,2.6683,2.6683,2.6133,2.6058,2.6681,2.6678,2.687,2.7162,2.704,2.6701,2.6208,2.5779,2.5709,2.5943,2.53,2.5441,2.6245,2.6245,2.6314,2.6533,2.6533,2.6533,2.6533,2.6533,2.6533,2.6533,2.6533,2.6465,2.6396,2.6396,2.6327,2.6062,2.5688,2.5535,2.5535,2.5382,2.5312,2.5312,2.5312,2.5312,2.5453,2.6,2.5721,2.5453,2.6,2.6139,2.6,2.5441,2.5312,2.5312,2.5312,2.5312,2.5312,2.5312,2.5312,2.5312,2.5312,2.5312,2.5312,2.5312,2.5312,2.5312,2.5241,2.5613,2.6324,2.7385,2.8449,2.859,2.729,2.8395,2.9238,2.9394,3.0215,3.1057,3.1863,3.2096,3.2182,3.2182,3.2182,3.2182,3.2182,3.2182,3.2182,3.2182,3.2182,3.2182,3.2182,3.2182,3.2182,3.2182,3.2182,3.2182,3.2182,3.2182,3.2182,3.2182,3.2182,3.2182,3.2096,3.5604,3.5326,3.5066,3.4997,3.4569,3.4124,3.3842,3.3522,3.2983,3.2109,3.1714,3.1206,3.0293,2.9556,2.8889,2.8268,2.756,2.7152,2.7152,2.6583,2.6498,2.7127,2.6857,2.6963,2.7548,2.7459,2.7268,2.6998,2.6427,2.6289,2.6589,2.6094,2.6094,2.6533,2.6533,2.6533,2.6533,2.6533,2.6533,2.6533,2.6533,2.6533,2.6533,2.6533,2.6533,2.6533,2.6533,2.6396,2.6131,2.598,2.5758,2.5606,2.5465,2.5382,2.5312,2.5312,2.5312,2.5453,2.6208,2.6139,2.6,2.6744,2.6947,2.6676,2.5581,2.5581,2.5721,2.5382,2.5312,2.5312,2.5312,2.5312,2.5312,2.5312,2.5312,2.5312,2.5312,2.5581,2.5791,2.5791,2.6611,2.746,2.8126,2.8744,2.8779,2.8007,2.8791,2.9549,3.0228,3.067,3.1294,3.2169,3.2182,3.2182,3.2182,3.2182,3.2182,3.2182,3.2182,3.2182,3.2182,3.2182,3.2182,3.2182,3.2182,3.2182,3.2182,3.2182,3.2182,3.2182,3.2182,3.2182,3.2182,3.2182,3.2182,3.2096,3.5604,3.5321,3.5081,3.5015,3.4591,3.4173,3.386,3.355,3.3124,3.242,3.1932,3.1435,3.0868,3.0038,2.9182,2.8284,2.789,2.7675,2.761,2.7049,2.6958,2.7581,2.7034,2.7054,2.7762,2.7616,2.7403,2.7268,2.6998,2.6782,2.6714,2.6589,2.6521,2.6533,2.6533,2.6589,2.6658,2.6658,2.6714,2.685,2.6714,2.6658,2.6658,2.6521,2.6533,2.6533,2.6533,2.6465,2.6396,2.6533,2.6302,2.6,2.5873,2.5664,2.5511,2.5511,2.5523,2.5652,2.6539,2.6676,2.6744,2.7471,2.767,2.7338,2.5988,2.6139,2.6402,2.5779,2.5581,2.5523,2.5523,2.537,2.5312,2.5441,2.5523,2.5523,2.5523,2.6139,2.6589,2.6553,2.7941,2.8885,2.875,2.8889,2.8937,2.8791,2.9172,2.9845,3.082,3.1044,3.1442,3.2182,3.2182,3.2182,3.2182,3.2182,3.2182,3.2182,3.2182,3.2182,3.2182,3.2182,3.2182,3.2182,3.2182,3.2182,3.2182,3.2182,3.2182,3.2182,3.2182,3.2182,3.2182,3.2182,3.2182,3.2182,3.5604,3.5321,3.5081,3.5015,3.4753,3.4381,3.3868,3.3762,3.3408,3.2454,3.1825,3.1325,3.0828,2.9924,2.9013,2.8284,2.8137,2.7974,2.7625,2.7049,2.6958,2.7581,2.7034,2.7223,2.8335,2.7784,2.7403,2.7268,2.7268,2.7066,2.6714,2.6658,2.6589,2.6533,2.6533,2.685,2.7351,2.7351,2.767,2.8182,2.7604,2.7351,2.7284,2.6714,2.6533,2.6533,2.6533,2.685,2.7417,2.7802,2.792,2.7723,2.6799,2.6514,2.6364,2.6264,2.6277,2.6539,2.7841,2.7789,2.7537,2.8168,2.8363,2.8168,2.7404,2.7271,2.7351,2.7204,2.6676,2.6277,2.6277,2.5721,2.5523,2.6139,2.6277,2.6277,2.6277,2.6879,2.733,2.7208,2.9368,3.048,2.9426,3.1127,3.1341,2.8949,3.0758,3.1589,3.097,3.1616,3.2096,3.2182,3.2182,3.2182,3.2182,3.2182,3.2182,3.2182,3.2182,3.2182,3.2182,3.2182,3.2182,3.2182,3.2182,3.2182,3.2182,3.2182,3.2182,3.2182,3.2182,3.2182,3.2182,3.2182,3.2182,3.2182,3.5604,3.5326,3.5086,3.4997,3.4792,3.4427,3.3868,3.3807,3.3522,3.2719,3.2214,3.1733,3.1206,3.0038,2.9059,2.8527,2.8317,2.8039,2.7625,2.7357,2.7321,2.7617,2.7696,2.7993,2.8554,2.8595,2.8583,2.8519,2.7709,2.7201,2.7066,2.6943,2.6998,2.7255,2.7255,2.7564,2.8051,2.8051,2.8247,2.8492,2.8182,2.8051,2.8051,2.7736,2.7604,2.7604,2.7604,2.7802,2.8117,2.8298,2.8298,2.8117,2.7591,2.7311,2.7165,2.7069,2.7015,2.7204,2.8233,2.8298,2.8247,2.8917,2.9121,2.9058,2.8739,2.8675,2.8481,2.767,2.7217,2.7015,2.7015,2.6744,2.6663,2.6947,2.7015,2.7015,2.7015,2.7946,2.8973,3.0048,3.081,3.1137,3.0891,3.1489,3.1415,3.0519,3.1355,3.1882,3.1723,3.1996,3.2182,3.2182,3.2182,3.2182,3.2182,3.2182,3.2182,3.2182,3.2182,3.2182,3.2182,3.2182,3.2182,3.2182,3.2182,3.2182,3.2182,3.2182,3.2182,3.2182,3.2182,3.2182,3.2182,3.2182,3.2182,3.2182]},{"header":{"parameterUnit":"m.s-1","parameterCategory":1,"la1":30.6,"la2":28.766,"lo1":-90.7593,"lo2":-88.6598,"dy":0.0162,"dx":0.0183,"nx":116,"ny":114,"refTime":"2023-08-25T12:00:00:Z","depth":0,"parameterNumber":3,"parameterNumberName":"V-component_of_WINDS"},"data":[0.0,0.0,0.0,0.0,0.0,0.0,0.0,0.0,0.0,0.0,0.0,0.0,0.0,0.0,0.0,0.0,0.0,0.0,0.0,0.0,0.0,0.0,0.0,0.0,0.0,0.0,0.0,0.0,0.0,0.0,0.0,0.0,0.0,0.0,0.0,0.0,0.0,0.0,0.0,0.0,0.0,0.0,0.0,0.0,0.0,0.0,0.0,0.0,0.0,0.0,0.0,0.0,0.0,0.0,0.0,0.0,0.0,0.0,0.0,0.0,0.0,0.0,0.0,0.0,0.0,0.0,0.0,0.0,0.0,0.0,0.0,0.0,0.0,0.0,0.0,0.0,0.0,0.0,0.0,0.0,0.0,0.0,0.0,0.0,0.0,0.0,0.0,0.0,0.0,0.0,0.0,0.0,0.0,0.0,0.0,0.0,0.0,0.0,0.0,0.0,0.0,0.0,0.0,0.0,0.0,0.0,0.0,0.0,0.0,0.0,0.0,0.0,0.0,0.0,0.0,0.0,0.0,0.0,0.0,0.0,0.0,0.0,0.0,0.0,0.0,0.0,0.0,0.0,0.0,0.0,0.0,0.0,0.0,0.0,0.0,0.0,0.0,0.0,0.0,0.0,0.0,0.0,0.0,0.0,0.0,0.0,0.0,0.0,0.0,0.0,0.0,0.0,0.0,0.0,0.0,0.0,0.0,0.0,0.0,0.0,0.0,0.0,0.0,0.0,0.0,0.0,0.0,0.0,0.0,0.0,0.0,0.0,0.0,0.0,0.0,0.0,0.0,0.0,0.0,0.0,0.0,0.0,0.0,0.0,0.0,0.0,0.0,0.0,0.0,0.0,0.0,0.0,0.0,0.0,0.0,0.0,0.0,0.0,0.0,0.0,0.0,0.0,0.0,0.0,0.0,0.0,0.0,0.0,0.0,0.0,0.0,0.0,0.0,0.0,0.0,0.0,0.0,0.0,0.0,0.0,0.0,0.0,0.0,0.0,0.0,0.0,0.0,0.0,0.0,0.0,0.0,0.0,0.0,0.0,0.0,0.0,0.0,0.0,0.0,0.0,0.0,0.0,0.0,0.0,0.0,0.0,0.0,0.0,0.0,0.0,0.0,0.0,0.0,0.0,0.0,0.0,0.0,0.0,0.0,0.0,0.0,0.0,0.0,0.0,0.0,0.0,0.0,0.0,0.0,0.0,0.0,0.0,0.0,0.0,0.0,0.0,0.0,0.0,0.0,0.0,0.0,0.0,0.0,0.0,0.0,0.0,0.0,0.0,0.0,0.0,0.0,0.0,0.0,0.0,0.0,0.0,0.0,0.0,0.0,0.0,0.0,0.0,0.0,0.0,0.0,0.0,0.0,0.0,0.0,0.0,0.0,0.0,0.0,0.0,0.0,0.0,0.0,0.0,0.0,0.0,0.0,0.0,0.0,0.0,0.0,0.0,0.0,0.0,0.0,0.0,0.0,0.0,0.0,0.0,0.0,0.0,0.0,0.0,0.0,0.0,0.0,0.0,0.0,0.0,0.0,0.0,0.0,0.0,0.0,0.0,0.0,0.0,0.0,0.0,0.0,0.0,0.0,0.0,0.0,0.0,0.0,0.0,0.0,0.0,0.0,0.0,0.0,0.0,0.0,0.0,0.0,0.0,0.0,0.0,0.0,0.0,0.0,0.0,0.0,0.0,0.0,0.0,0.0,0.0,0.0,0.0,0.0,0.0,0.0,0.0,0.0,0.0,0.0,0.0,0.0,0.0,0.0,0.0,0.0,0.0,0.0,0.0,0.0,0.0,0.0,0.0,0.0,0.0,0.0,0.0,0.0,0.0,0.0,0.0,0.0,0.0,0.0,0.0,0.0,0.0,0.0,0.0,0.0,0.0,0.0,0.0,0.0,0.0,0.0,0.0,0.0,0.0,0.0,0.0,0.0,0.0,0.0,0.0,0.0,0.0,0.0,0.0,0.0,0.0,0.0,0.0,0.0,0.0,0.0,0.0,0.0,0.0,0.0,0.0,0.0,0.0,0.0,0.0,0.0,0.0,0.0,0.0,0.0,0.0,0.0,0.0,0.0,0.0,0.0,0.0,0.0,0.0,0.0,0.0,0.0,0.0,0.0,0.0,0.0,0.0,0.0,0.0,0.0,0.0,0.0,0.0,0.0,0.0,0.0,0.0,0.0,0.0,0.0,0.0,0.0,0.0,0.0,0.0,0.0,0.0,0.0,0.0,0.0,0.0,0.0,0.0,0.0,0.0,0.0,0.0,0.0,0.0,0.0,0.0,0.0,0.0,0.0,0.0,0.0,0.0,0.0,0.0,0.0,0.0,0.0,0.0,0.0,0.0,0.0,0.0,0.0,0.0,0.0,0.0,0.0,0.0,0.0,0.0,0.0,0.0,0.0,0.0,0.0,0.0,0.0,0.0,0.0,0.0,0.0,0.0,0.0,0.0,0.0,0.0,0.0,0.0,0.0,0.0,0.0,0.0,0.0,0.0,0.0,0.0,0.0,0.0,0.0,0.0,0.0,0.0,0.0,0.0,0.0,0.0,0.0,0.0,0.0,0.0,0.0,0.0,0.0,0.0,0.0,0.0,0.0,0.0,0.0,0.0,0.0,0.0,0.0,0.0,0.0,0.0,0.0,0.0,0.0,0.0,0.0,0.0,0.0,0.0,0.0,0.0,0.0,0.0,0.0,0.0,0.0,0.0,0.0,0.0,0.0,0.0,0.0,0.0,0.0,0.0,0.0,0.0,0.0,0.0,0.0,0.0,0.0,0.0,0.0,0.0,0.0,0.0,0.0,0.0,0.0,0.0,0.0,0.0,0.0,0.0,0.0,0.0,0.0,0.0,0.0,0.0,0.0,0.0,0.0,0.0,0.0,0.0,0.0,0.0,0.0,0.0,0.0,0.0,0.0,0.0,0.0,0.0,0.0,0.0,0.0,0.0,0.0,0.0,0.0,0.0,0.0,0.0,0.0,0.0,0.0,0.0,0.0,0.0,0.0,0.0,0.0,0.0,0.0,0.0,0.0,0.0,0.0,0.0,0.0,0.0,0.0,0.0,0.0,0.0,0.0,0.0,0.0,0.0,0.0,0.0,0.0,0.0,0.0,0.0,0.0,0.0,0.0,0.0,0.0,0.0,0.0,0.0,0.0,0.0,0.0,0.0,0.0,0.0,0.0,0.0,0.0,0.0,0.0,0.0,0.0,0.0,0.0,0.0,0.0,0.0,0.0,0.0,0.0,0.0,0.0,0.0,0.0,0.0,0.0,0.0,0.0,0.0,0.0,0.0,0.0,0.0,0.0,0.0,0.0,0.0,0.0,0.0,0.0,0.0,0.0,0.0,0.0,0.0,0.0,0.0,0.0,0.0,0.0,0.0,0.0,0.0,0.0,0.0,0.0,0.0,0.0,0.0,0.0,0.0,0.0,0.0,0.0,0.0,0.0,0.0,0.0,0.0,0.0,0.0,0.0,0.0,0.0,0.0,0.0,0.0,0.0,0.0,0.0,0.0,0.0,0.0,0.0,0.0,0.0,0.0,0.0,0.0,0.0,0.0,0.0,0.0,0.0,0.0,0.0,0.0,0.0,0.0,0.0,0.0,0.0,0.0,0.0,0.0,0.0,0.0,0.0,0.0,0.0,0.0,0.0,0.0,0.0,0.0,0.0,0.0,0.0,0.0,0.0,0.0,0.0,0.0,0.0,0.0,0.0,0.0,0.0,0.0,0.0,0.0,0.0,0.0,0.0,0.0,0.0,0.0,0.0,0.0,0.0,0.0,0.0,0.0,0.0,0.0,0.0,0.0,0.0,0.0,0.0,0.0,0.0,0.0,0.0,0.0,0.0,0.0,0.0,0.0,0.0,0.0,0.0,0.0,0.0,0.0,0.0,0.0,0.0,0.0,0.0,0.0,0.0,0.0,0.0,0.0,0.0,0.0,0.0,0.0,0.0,0.0,0.0,0.0,0.0,0.0,0.0,0.0,0.0,0.0,0.0,0.0,0.0,0.0,0.0,0.0,0.0,0.0,0.0,0.0,0.0,0.0,0.0,0.0,0.0,0.0,0.0,0.0,0.0,0.0,0.0,0.0,0.0,0.0,0.0,0.0,0.0,0.0,0.0,0.0,0.0,0.0,0.0,0.0,0.0,0.0,0.0,0.0,0.0,0.0,0.0,0.0,0.0,0.0,0.0,0.0,0.0,0.0,0.0,0.0,0.0,0.0,0.0,0.0,0.0,0.0,0.0,0.0,0.0,0.0,0.0,0.0,0.0,0.0,0.0,0.0,0.0,0.0,0.0,0.0,0.0,0.0,0.0,0.0,0.0,0.0,0.0,0.0,0.0,0.0,0.0,0.0,0.0,0.0,0.0,0.0,0.0,0.0,0.0,0.0,0.0,0.0,0.0,0.0,0.0,0.0,0.0,0.0,0.0,0.0,0.0,0.0,0.0,0.0,0.0,0.0,0.0,0.0,0.0,0.0,0.0,0.0,0.0,0.0,0.0,0.0,0.0,0.0,0.0,0.0,0.0,0.0,0.0,0.0,0.0,0.0,0.0,0.0,0.0,0.0,0.0,0.0,0.0,0.0,0.0,0.0,0.0,0.0,0.0,0.0,0.0,0.0,0.0,0.0,0.0,0.0,0.0,0.0,0.0,0.0,0.0,0.0,0.0,0.0,0.0,0.0,0.0,0.0,0.0,0.0,0.0,0.0,0.0,0.0,0.0,0.0,0.0,0.0,0.0,0.0,0.0,0.0,0.0,0.0,0.0,0.0,0.0,0.0,0.0,0.0,0.0,0.0,0.0,0.0,0.0,0.0,0.0,0.0,0.0,0.0,0.0,0.0,0.0,0.0,0.0,0.0,0.0,0.0,0.0,0.0,0.0,0.0,0.0,0.0,0.0,0.0,0.0,0.0,0.0,0.0,0.0,0.0,0.0,0.0,0.0,0.0,0.0,0.0,0.0,0.0,0.0,0.0,0.0,0.0,0.0,0.0,0.0,0.0,0.0,0.0,0.0,0.0,0.0,0.0,0.0,0.0,0.0,0.0,0.0,0.0,0.0,0.0,0.0,0.0,0.0,0.0,0.0,0.0,0.0,0.0,0.0,0.0,0.0,0.0,0.0,0.0,0.0,0.0,0.0,0.0,0.0,0.0,0.0,0.0,0.0,0.0,0.0,0.0,0.0,0.0,0.0,0.0,0.0,0.0,0.0,0.0,0.0,0.0,0.0,0.0,0.0,0.0,0.0,0.0,0.0,0.0,0.0,0.0,0.0,0.0,0.0,0.0,0.0,0.0,0.0,0.0,0.0,0.0,0.0,0.0,0.0,0.0,0.0,0.0,0.0,0.0,0.0,0.0,0.0,0.0,0.0,0.0,0.0,0.0,0.0,0.0,0.0,0.0,0.0,0.0,0.0,0.0,0.0,0.0,0.0,0.0,0.0,0.0,0.0,0.0,0.0,0.0,0.0,0.0,0.0,0.0,0.0,0.0,0.0,0.0,0.0,0.0,0.0,0.0,0.0,0.0,0.0,0.0,0.0,0.0,0.0,0.0,0.0,0.0,0.0,0.0,0.0,0.0,0.0,0.0,0.0,0.0,0.0,0.0,0.0,0.0,0.0,0.0,0.0,0.0,0.0,0.0,0.0,0.0,0.0,0.0,0.0,0.0,0.0,0.0,0.0,0.0,0.0,0.0,0.0,0.0,0.0,0.0,0.0,0.0,0.0,0.0,0.0,0.0,0.0,0.0,0.0,0.0,0.0,0.0,0.0,0.0,0.0,0.0,0.0,0.0,0.0,0.0,0.0,0.0,0.0,0.0,0.0,0.0,0.0,0.0,0.0,0.0,0.0,0.0,0.0,0.0,0.0,0.0,0.0,0.0,0.0,0.0,0.0,0.0,0.0,0.0,0.0,0.0,0.0,0.0,0.0,0.0,0.0,0.0,0.0,0.0,0.0,0.0,0.0,0.0,0.0,0.0,0.0,0.0,0.0,0.0,0.0,0.0,0.0,0.0,0.0,0.0,0.0,0.0,0.0,0.0,0.0,0.0,0.0,0.0,0.0,0.0,0.0,0.0,0.0,0.0,0.0,0.0,0.0,0.0,0.0,0.0,0.0,0.0,4.1766,4.0611,0.0,0.0,0.0,0.0,0.0,0.0,0.0,0.0,0.0,0.0,0.0,0.0,0.0,0.0,0.0,0.0,0.0,0.0,0.0,0.0,0.0,0.0,0.0,0.0,0.0,0.0,0.0,0.0,0.0,0.0,0.0,0.0,0.0,0.0,0.0,0.0,0.0,3.082,3.1396,3.2256,3.3403,3.2471,3.1409,3.043,0.0,0.0,0.0,0.0,0.0,0.0,0.0,0.0,0.0,0.0,0.0,0.0,0.0,0.0,0.0,0.0,0.0,0.0,0.0,0.0,0.0,0.0,0.0,0.0,0.0,0.0,0.0,0.0,0.0,0.0,0.0,0.0,0.0,0.0,0.0,0.0,0.0,0.0,0.0,0.0,0.0,0.0,0.0,0.0,0.0,0.0,0.0,0.0,0.0,0.0,0.0,0.0,0.0,0.0,0.0,0.0,0.0,0.0,0.0,0.0,0.0,0.0,0.0,0.0,0.0,0.0,0.0,0.0,0.0,0.0,4.2116,4.1389,0.0,0.0,0.0,0.0,0.0,0.0,0.0,0.0,0.0,0.0,0.0,0.0,0.0,0.0,0.0,0.0,0.0,0.0,0.0,0.0,0.0,0.0,0.0,0.0,2.8803,2.8143,2.8303,2.8359,0.0,0.0,0.0,0.0,0.0,0.0,0.0,3.0934,3.1563,3.2861,3.365,3.4667,3.5891,3.5999,3.4797,3.261,3.3227,0.0,0.0,0.0,0.0,0.0,0.0,0.0,0.0,0.0,0.0,0.0,0.0,0.0,0.0,0.0,0.0,0.0,0.0,0.0,0.0,0.0,0.0,0.0,0.0,0.0,0.0,0.0,0.0,0.0,0.0,0.0,0.0,0.0,0.0,0.0,0.0,0.0,0.0,0.0,0.0,0.0,0.0,0.0,0.0,0.0,0.0,0.0,0.0,0.0,0.0,0.0,0.0,0.0,0.0,0.0,0.0,0.0,0.0,0.0,0.0,0.0,0.0,0.0,4.3804,4.373,4.3801,4.3435,4.3268,4.3256,4.3311,4.3041,4.2559,4.1481,0.0,0.0,0.0,0.0,0.0,0.0,0.0,0.0,0.0,0.0,0.0,0.0,0.0,0.0,0.0,0.0,0.0,0.0,0.0,0.0,0.0,2.8961,2.8803,2.8143,2.9184,2.9341,0.0,0.0,0.0,0.0,0.0,0.0,3.1272,3.1836,3.2678,3.365,3.5228,3.6152,3.6404,3.7249,3.7342,3.6669,3.5783,3.4457,3.2933,0.0,0.0,0.0,0.0,0.0,0.0,0.0,0.0,0.0,0.0,0.0,0.0,0.0,0.0,0.0,0.0,0.0,0.0,0.0,0.0,0.0,0.0,0.0,0.0,0.0,0.0,0.0,0.0,0.0,0.0,0.0,0.0,0.0,0.0,0.0,0.0,0.0,0.0,0.0,0.0,0.0,4.509,4.5128,0.0,0.0,0.0,0.0,0.0,0.0,0.0,0.0,0.0,0.0,0.0,0.0,0.0,4.2937,4.2919,4.3911,4.4374,4.425,4.4439,4.5014,4.5905,4.5969,4.6069,4.6241,4.6416,0.0,4.2265,4.1439,0.0,0.0,0.0,0.0,0.0,0.0,0.0,0.0,0.0,0.0,0.0,0.0,0.0,0.0,0.0,0.0,0.0,0.0,0.0,0.0,0.0,2.9677,2.9741,2.9406,3.0126,3.0355,2.9781,3.0508,0.0,0.0,0.0,3.1663,3.2055,3.2676,3.3955,3.5905,3.6808,3.7728,3.8499,3.89,3.899,3.8805,3.8212,3.6892,3.5,3.4066,0.0,0.0,0.0,0.0,0.0,0.0,0.0,0.0,0.0,0.0,0.0,0.0,0.0,0.0,0.0,0.0,0.0,0.0,0.0,0.0,0.0,0.0,0.0,0.0,0.0,0.0,0.0,0.0,0.0,0.0,0.0,0.0,0.0,0.0,0.0,0.0,0.0,0.0,0.0,4.5304,4.5527,4.5538,4.5626,4.5735,0.0,0.0,0.0,0.0,0.0,0.0,0.0,0.0,0.0,4.334,4.3084,4.348,4.4599,4.4984,4.5397,4.5809,4.5942,4.6304,4.6865,4.6915,4.7128,4.7491,4.7563,4.6608,4.4872,4.3336,4.2177,4.1359,0.0,0.0,0.0,0.0,4.0508,4.0281,0.0,0.0,0.0,0.0,0.0,0.0,0.0,0.0,0.0,0.0,0.0,0.0,2.9934,3.0368,3.0583,3.0583,3.0973,3.1132,3.0913,3.0987,0.0,3.1043,3.1294,3.1711,3.2304,3.3479,3.5247,3.771,3.8325,3.9193,4.0303,4.0034,3.9982,4.008,3.9816,3.8632,3.6688,3.5422,3.4207,3.3138,0.0,0.0,0.0,0.0,0.0,0.0,0.0,0.0,0.0,0.0,0.0,0.0,0.0,0.0,0.0,0.0,0.0,0.0,0.0,0.0,0.0,0.0,0.0,0.0,0.0,0.0,0.0,0.0,0.0,0.0,0.0,0.0,0.0,0.0,0.0,0.0,0.0,4.5607,4.5767,4.5833,4.5804,4.5838,0.0,0.0,0.0,0.0,0.0,0.0,4.4116,4.4007,4.3952,4.3988,4.398,4.4748,4.6382,4.6172,4.6354,4.7012,4.7012,4.7212,4.7617,4.7694,4.7964,4.8337,4.8411,4.8053,4.7264,4.516,4.3699,4.2695,4.2141,4.1922,4.1811,4.1887,4.1886,4.1844,0.0,0.0,0.0,0.0,0.0,0.0,0.0,0.0,0.0,0.0,0.0,3.0368,3.0368,3.0872,3.1158,3.1158,3.1542,3.1462,3.077,3.0873,3.0831,3.0335,3.0814,3.1152,3.1193,3.4117,3.6548,3.8332,3.9577,4.0451,4.0926,4.0216,4.0157,4.0549,3.9978,3.8891,3.7508,3.7451,3.6531,3.4891,3.2825,0.0,0.0,0.0,0.0,0.0,0.0,0.0,0.0,0.0,0.0,0.0,0.0,0.0,0.0,0.0,0.0,0.0,0.0,0.0,0.0,0.0,0.0,0.0,0.0,0.0,0.0,0.0,0.0,0.0,0.0,0.0,0.0,0.0,0.0,0.0,0.0,0.0,0.0,4.5975,4.5984,0.0,0.0,0.0,0.0,4.518,4.5143,4.509,4.5025,4.5488,4.5816,4.5857,4.6361,4.6735,4.6947,4.6936,4.6974,4.7012,4.7012,4.7542,4.8534,4.8791,4.9039,4.924,4.9512,4.9131,4.8187,4.623,4.4594,4.3259,4.2205,4.1647,4.142,4.1978,4.2147,4.2172,0.0,0.0,0.0,0.0,0.0,0.0,0.0,0.0,2.859,2.8816,2.9871,3.0558,3.0558,3.1307,3.1763,3.1763,3.2128,3.2177,3.1829,3.1405,3.1178,3.124,3.1115,3.157,3.2919,3.4506,3.6087,3.7543,3.8121,3.8647,3.9169,3.8912,3.9141,3.9686,3.9453,3.9326,3.9126,3.8284,3.7508,3.6739,3.5009,3.3412,0.0,0.0,0.0,0.0,0.0,0.0,0.0,0.0,0.0,0.0,0.0,0.0,0.0,0.0,0.0,0.0,0.0,0.0,0.0,0.0,0.0,0.0,0.0,0.0,0.0,0.0,0.0,0.0,0.0,0.0,0.0,0.0,0.0,0.0,0.0,0.0,0.0,4.5724,4.544,0.0,4.5209,4.5214,4.5143,4.4986,4.4805,4.4949,4.5457,4.5462,4.5742,4.6365,4.6663,4.7079,4.7691,4.7751,4.8044,4.8607,4.8607,4.8899,4.9367,4.9473,4.9748,5.0125,5.0239,4.9881,4.9169,4.8503,4.7242,4.5725,4.5274,4.4687,4.417,4.4424,4.4517,4.4517,0.0,0.0,0.0,0.0,0.0,0.0,0.0,0.0,2.8736,2.9341,3.0241,3.0908,3.1057,3.1882,3.2417,3.2417,3.2704,3.2609,3.1913,3.1598,3.135,3.1071,3.1021,3.2017,3.414,3.4746,3.5796,3.7319,3.7547,3.7851,3.8259,3.8003,3.8111,3.8576,3.8529,3.8707,3.9003,3.8349,3.8241,3.8417,3.6727,3.4743,3.2824,0.0,0.0,0.0,0.0,0.0,0.0,0.0,0.0,0.0,0.0,0.0,0.0,0.0,0.0,0.0,0.0,0.0,0.0,0.0,0.0,0.0,0.0,0.0,0.0,0.0,0.0,0.0,0.0,0.0,0.0,0.0,0.0,0.0,0.0,4.5364,4.5223,4.5659,4.526,4.4935,4.4939,4.4841,4.4808,4.4928,4.4749,4.5012,4.5856,4.5973,4.6308,4.6997,4.7372,4.7878,4.8503,4.8565,4.8877,4.9509,4.9208,4.9181,4.9386,4.9188,4.9324,4.9759,4.9834,4.9633,4.9262,4.9262,4.8415,4.709,4.7008,4.6468,4.5742,4.5802,4.5847,4.5875,0.0,0.0,0.0,0.0,0.0,0.0,0.0,2.8283,2.8882,2.9845,3.0683,3.1455,3.2055,3.2632,3.2988,3.2988,3.3227,3.2653,3.1072,3.1443,3.109,2.9659,3.0644,3.2235,3.4393,3.4804,3.5843,3.7629,3.8116,3.8345,3.8345,3.759,3.7247,3.7281,3.7148,3.703,3.699,3.7704,3.8764,3.9817,3.7843,3.5959,3.4253,0.0,0.0,0.0,0.0,0.0,0.0,0.0,0.0,0.0,0.0,0.0,0.0,0.0,0.0,0.0,0.0,0.0,0.0,0.0,0.0,0.0,0.0,0.0,0.0,0.0,0.0,0.0,0.0,0.0,0.0,0.0,0.0,0.0,4.5626,4.4985,4.4783,4.5752,4.5437,4.5051,4.4794,4.4461,4.4485,4.4946,4.5004,4.5389,4.6305,4.7138,4.7686,4.782,4.8673,4.9131,4.9252,4.927,4.9302,4.9415,4.857,4.8315,4.856,4.7952,4.7851,4.8105,4.8311,4.8392,4.8392,4.8392,4.7889,4.711,4.7105,4.6568,4.5808,4.5879,4.5958,4.6005,0.0,0.0,0.0,0.0,0.0,0.0,0.0,2.8431,2.8895,3.0114,3.0934,3.1589,3.2055,3.2789,3.3241,3.3241,3.3742,3.3386,3.1873,3.1839,3.134,3.0054,3.142,3.2703,3.3678,3.4479,3.5293,3.6202,3.6635,3.6853,3.6783,3.6577,3.6679,3.6996,3.6951,3.7182,3.7584,3.7433,3.7586,3.7936,3.8321,3.7587,3.6254,0.0,0.0,0.0,0.0,0.0,0.0,0.0,0.0,0.0,0.0,0.0,0.0,0.0,0.0,0.0,0.0,0.0,0.0,0.0,0.0,0.0,0.0,0.0,0.0,0.0,0.0,0.0,0.0,0.0,0.0,0.0,4.3854,4.3762,4.4653,4.4947,4.5046,4.5036,4.4697,4.4327,4.3967,4.3831,4.4059,4.4706,4.4936,4.5595,4.7016,4.7418,4.7911,4.859,4.8919,4.8818,4.8217,4.8365,4.8147,4.7616,4.7414,4.7467,4.7726,4.7728,4.7851,4.8105,4.8311,4.8406,4.8396,4.8406,4.7953,4.7245,4.7149,4.6602,4.5875,4.5959,4.6084,4.6225,0.0,0.0,0.0,0.0,0.0,0.0,0.0,2.8191,2.8803,3.0406,3.0996,3.1576,3.2503,3.303,3.3326,3.3326,3.3377,3.2868,3.1666,3.1417,3.1326,3.1349,3.217,3.2964,3.3527,3.4301,3.4849,3.5211,3.5633,3.5766,3.5694,3.5694,3.5825,3.6001,3.5984,3.6142,3.6434,3.6059,3.6041,3.637,3.7103,3.6812,3.5943,3.6296,3.568,3.4668,3.5221,3.5784,3.6254,3.6346,0.0,0.0,0.0,0.0,0.0,0.0,0.0,0.0,0.0,0.0,0.0,0.0,0.0,0.0,0.0,0.0,0.0,0.0,0.0,0.0,0.0,0.0,0.0,0.0,4.3435,4.3435,4.4245,4.4659,4.4927,4.5046,4.4781,4.4438,4.4084,4.3918,4.4276,4.5254,4.5399,4.6205,4.7937,4.8083,4.8208,4.8509,4.8613,4.8236,4.7391,4.7504,4.7342,4.6952,4.6636,4.6544,4.6698,4.6694,4.6758,4.6897,4.7198,4.7303,4.7332,4.7359,4.7144,0.0,0.0,0.0,0.0,0.0,4.6191,4.6297,0.0,0.0,0.0,0.0,0.0,0.0,0.0,2.7708,2.8645,3.0594,3.082,3.1502,3.3086,3.3241,3.3255,3.3326,3.2652,3.1844,3.1093,3.0683,3.1218,3.2757,3.2834,3.314,3.3694,3.4201,3.4546,3.4691,3.5055,3.5115,3.4975,3.4975,3.488,3.4738,3.4609,3.4447,3.4317,3.4137,3.4426,3.4956,3.4904,3.478,3.4686,3.5117,3.4546,3.3607,3.4487,3.4832,3.4965,3.5556,0.0,0.0,0.0,0.0,0.0,0.0,0.0,0.0,0.0,0.0,0.0,0.0,0.0,0.0,0.0,0.0,0.0,0.0,0.0,0.0,0.0,0.0,0.0,0.0,4.311,4.3463,4.4206,4.4374,4.472,4.5454,4.5263,4.4985,4.4676,4.4374,4.4749,4.611,4.6061,4.6812,4.8686,4.8616,0.0,0.0,0.0,4.7473,4.6656,4.6667,4.6679,4.6682,4.6008,4.5659,4.5594,4.5418,4.5303,4.5283,4.5642,4.5814,4.5841,4.5944,4.6017,4.6095,4.6805,4.6714,4.6209,4.6285,4.6306,4.6303,0.0,0.0,0.0,0.0,0.0,0.0,0.0,2.7708,2.8498,3.0165,3.0532,3.1206,3.2632,3.3002,3.3143,3.3326,3.3132,3.2645,3.1839,3.1795,3.1972,3.2376,3.2926,3.3382,3.3848,3.4151,3.4448,3.4691,3.5055,3.5085,3.4833,3.4721,3.4593,3.4382,3.4185,3.407,3.4036,3.3598,3.3471,3.3562,3.3238,3.426,3.5983,3.6261,3.6454,3.6605,3.6984,3.7405,3.7674,3.697,3.7086,3.7382,3.697,3.6985,0.0,0.0,0.0,0.0,0.0,0.0,0.0,0.0,0.0,0.0,0.0,0.0,0.0,0.0,0.0,0.0,0.0,0.0,0.0,4.2884,4.3167,4.3516,4.4212,4.4913,4.5303,4.5203,4.514,4.4872,4.4346,4.425,4.4749,4.611,4.5679,4.6112,4.785,4.7392,4.7061,4.6956,4.6956,4.6564,4.5772,4.5814,4.5506,4.4899,0.0,0.0,4.4972,4.5361,4.5526,4.5526,4.578,4.5905,4.596,4.5988,4.6049,4.6177,4.6333,4.6312,4.6215,4.6287,4.6308,4.6308,0.0,0.0,0.0,0.0,0.0,0.0,0.0,2.7219,2.8007,2.9614,2.9909,3.0519,3.1955,3.2173,3.2208,3.2148,3.176,3.1511,3.144,3.1584,3.1972,3.2788,3.3118,3.345,3.3694,3.3848,3.4,3.4201,3.4382,3.4317,3.4068,3.3968,3.3832,3.3607,3.3403,3.3282,3.3282,3.2949,3.2788,3.2788,3.2563,3.3295,3.4489,3.5053,3.5596,3.6135,3.6561,3.6899,3.7124,3.6848,3.6956,3.7151,3.6557,3.678,3.7259,0.0,0.0,0.0,0.0,0.0,0.0,0.0,0.0,0.0,0.0,0.0,0.0,0.0,0.0,4.1263,4.1409,0.0,4.2245,4.2987,4.3617,4.4214,4.4867,4.5316,4.555,4.5362,4.5342,4.5118,4.4546,4.4511,4.4842,4.569,4.5389,4.5783,4.7146,4.6874,4.6557,4.6218,4.6199,4.5825,4.5019,4.503,4.4918,4.4602,4.477,4.4896,4.5011,4.5455,4.5629,4.5613,4.5822,4.5933,4.6008,4.6066,4.6163,4.621,4.5761,4.5876,4.6247,4.6289,4.6016,4.5644,0.0,0.0,0.0,0.0,0.0,0.0,0.0,2.6809,2.7441,2.8991,2.9291,2.9833,3.1206,3.1355,3.1236,3.077,3.0215,3.0129,3.0615,3.0999,3.1777,3.3081,3.3134,3.324,3.3503,3.3503,3.3555,3.3694,3.3694,3.3555,3.3309,3.3256,3.3096,3.2843,3.2648,3.2578,3.2523,3.2453,3.2398,3.2398,3.2398,3.2453,3.2687,3.3335,3.3986,3.4673,3.5237,3.5464,3.5565,3.6259,3.6527,3.6492,3.6037,3.6655,3.7318,3.6559,3.7312,0.0,0.0,0.0,0.0,0.0,0.0,0.0,0.0,3.9293,3.9496,3.985,4.0111,4.0358,4.0637,4.1478,4.2405,4.3294,4.4155,4.4913,4.5519,4.5586,4.5586,4.5586,4.5586,4.5419,4.4919,4.4891,4.5035,4.5394,4.5221,4.5513,4.6476,4.6424,4.6071,4.5538,4.5574,4.5281,4.464,4.464,4.4707,4.4872,4.4966,4.5099,4.5283,4.5596,4.5727,4.5684,4.5871,4.5998,4.6027,4.5975,4.5996,4.5963,4.5089,4.5172,4.5781,4.5781,4.5331,4.4724,0.0,0.0,0.0,0.0,0.0,0.0,0.0,0.0,2.729,2.8462,2.8924,2.9537,3.0607,3.0996,3.0784,2.9773,3.0049,3.0164,2.967,3.0645,3.1592,3.2453,3.2508,3.2834,3.3503,3.3503,3.3555,3.3694,3.3694,3.3555,3.3309,3.3203,3.2935,3.2648,3.2523,3.2398,3.2398,3.2398,3.2398,3.2398,3.2398,3.2453,3.2594,3.2687,3.323,3.3986,3.4673,3.4752,3.4767,3.6071,3.6139,3.5786,3.6451,3.652,3.6277,3.6294,3.6156,3.6048,3.638,3.714,3.7875,3.8038,3.8625,3.9233,0.0,3.9775,3.9994,4.0063,4.0333,4.08,4.1597,4.1981,4.2646,4.4036,4.4506,4.4913,4.5519,4.5586,4.5586,4.5586,4.5586,4.5495,4.518,4.5159,4.5373,4.5873,4.5195,4.5122,4.5932,4.5368,4.4972,4.4903,4.5118,4.5192,4.5115,4.5115,4.5137,4.5159,4.5343,4.5454,4.5491,4.5757,4.5898,4.5969,4.6092,4.6163,4.6126,4.535,4.5077,4.505,4.4189,4.3917,4.4,4.4,4.3891,4.3767,0.0,0.0,0.0,0.0,0.0,0.0,0.0,0.0,0.0,2.7834,2.8315,2.8858,2.9639,2.9884,2.9744,2.9074,2.9293,2.9484,2.9331,3.0165,3.0955,3.1664,3.1792,3.1977,3.2327,3.2327,3.2367,3.2336,3.2422,3.2312,3.2089,3.2033,3.1879,3.1667,3.1595,3.1595,3.1595,3.1595,3.1595,3.1595,3.1894,3.2064,3.2231,3.2523,3.2958,3.3419,3.3767,3.3953,0.0,3.5363,3.5674,3.5735,3.6655,3.655,3.6097,3.6054,3.6062,3.6246,3.7271,3.7695,3.8045,3.8664,3.9171,3.9564,3.9831,4.0063,4.0288,4.0574,4.0804,4.1207,4.2046,4.2661,4.3418,4.445,4.5118,4.556,4.5699,4.5731,4.5684,4.5603,4.5586,4.5495,4.5222,4.5201,4.5227,4.5293,4.5003,4.4965,4.5281,4.5105,4.4966,4.4966,4.5118,4.5201,4.5201,4.5201,4.5263,4.5381,4.5454,4.5577,4.5673,4.5833,4.5964,4.6068,4.616,4.6207,4.6133,4.5309,4.4967,4.4865,4.3476,4.292,4.2943,4.3447,4.3303,4.2832,0.0,0.0,0.0,0.0,0.0,0.0,0.0,0.0,0.0,0.0,2.7765,2.8247,2.9052,2.9023,2.8899,2.8702,2.8594,2.8718,2.9008,2.9477,3.0058,3.0822,3.0955,3.1087,3.1334,3.1407,3.1392,3.1362,3.1392,3.1349,3.116,3.1102,3.0999,3.097,3.0896,3.0896,3.097,3.097,3.097,3.097,3.1379,3.1552,3.1709,3.2176,3.2413,3.2563,3.3055,3.3287,3.3531,3.4556,3.4914,3.5115,3.6215,3.6249,3.5907,3.582,3.5959,3.6435,3.7751,3.8149,3.843,3.9252,3.9785,4.0118,4.0257,4.0384,4.0567,4.0906,4.1078,4.1483,4.2537,4.3262,4.4017,4.4992,4.5694,4.6037,4.5829,4.5794,4.5737,4.562,4.5586,4.5513,4.5322,4.5322,4.5222,4.503,4.5007,4.503,4.503,4.5159,4.5222,4.5223,4.5304,4.5362,4.5362,4.5362,4.5436,4.5594,4.5594,4.5673,4.5867,4.5936,4.6035,4.6131,4.6204,4.6093,4.5817,4.4982,4.4504,4.413,4.262,4.1988,4.2007,4.2585,4.2409,4.1843,0.0,0.0,0.0,0.0,0.0,0.0,0.0,0.0,0.0,0.0,0.0,0.0,0.0,2.8651,2.8472,2.8825,2.8244,2.8084,2.8607,2.8478,2.8839,3.0011,3.0072,3.03,3.0925,3.1115,3.1232,3.1232,3.1232,3.113,3.097,3.0793,3.0748,3.0777,3.0584,3.0644,3.0837,3.0837,3.0837,3.0837,3.0955,3.1029,3.1087,3.1552,3.148,3.1261,3.2703,3.2788,3.2437,3.3738,3.3721,3.3415,3.4905,3.5442,3.552,3.5588,3.5711,3.6002,3.6829,3.7751,3.8652,3.9242,4.0096,4.0778,4.0778,4.0826,4.0888,4.0888,4.1006,4.1618,4.3261,4.3631,4.4212,4.5804,4.608,4.604,4.5828,4.5796,4.5747,4.562,4.5586,4.5586,4.5586,4.5586,4.5586,4.5568,4.54,4.5322,4.5362,4.5438,4.5494,4.549,4.5673,4.5766,4.5766,4.5766,4.578,4.58,4.58,4.5848,4.6007,4.6128,4.6195,4.6204,4.6265,4.5821,4.4972,4.4094,4.3235,4.2373,4.1426,4.1033,4.1013,4.0856,4.0776,4.0745,0.0,0.0,0.0,0.0,0.0,0.0,0.0,0.0,0.0,0.0,0.0,0.0,0.0,0.0,0.0,0.0,2.8561,2.8697,2.8135,2.8584,2.8822,2.8853,2.9184,2.9498,2.967,2.9794,2.9794,2.9794,2.9794,2.9794,2.9747,2.9192,2.8925,2.8939,2.8876,2.8876,2.9002,2.9484,2.9761,2.9884,3.0251,3.0433,3.0613,3.1087,3.119,3.116,0.0,3.145,3.1549,3.2501,3.2929,3.3192,3.4397,3.4781,3.483,3.5038,3.5509,3.6138,3.7084,3.7972,3.8819,3.9662,4.0192,4.0583,4.0765,4.0846,4.0907,4.0907,4.0863,4.1376,4.3137,4.3456,4.4016,4.5755,4.6151,4.6179,4.6025,4.5959,4.5886,4.5747,4.5684,4.5871,4.6413,4.5932,4.5586,4.5586,4.555,4.5513,4.5605,4.5618,4.5648,4.57,4.5771,4.58,4.58,4.58,4.5814,4.586,4.5914,4.5958,4.6007,4.6133,4.6198,4.6161,4.5664,4.5265,4.4881,4.3439,4.262,4.2175,4.1279,4.0827,4.0676,4.0642,4.0621,4.0573,0.0,0.0,0.0,0.0,0.0,0.0,0.0,0.0,0.0,0.0,0.0,0.0,0.0,0.0,0.0,0.0,0.0,2.8363,2.7666,2.7965,2.8017,2.7643,2.796,2.8157,2.8157,2.8208,2.8208,2.8208,2.8481,2.8481,2.8208,2.7934,2.7723,2.7511,2.7458,2.7458,2.7511,2.7999,2.8182,2.8155,2.8812,2.8989,2.8961,2.9813,3.0133,0.0,3.0283,3.0404,3.0674,3.1447,3.2053,3.2602,3.3534,3.4037,3.4415,3.5098,3.5637,3.6295,3.7488,3.8235,3.8912,3.9842,4.0232,4.0438,4.0668,4.0769,4.0787,4.0787,4.0679,4.107,4.2617,4.3089,4.372,4.5286,4.5648,4.5818,4.6033,4.6002,4.6045,4.6235,4.6496,4.6854,4.7314,4.6889,4.6525,4.649,4.622,4.6102,4.6152,4.5857,4.5731,4.5824,4.5833,4.5827,4.5841,4.5841,4.5861,4.5953,4.6029,4.6073,4.6072,4.6189,4.6248,4.619,4.5369,4.4815,4.4413,4.2959,4.2125,4.1714,4.1041,4.0679,4.0544,4.054,4.0457,4.036,0.0,0.0,0.0,0.0,0.0,0.0,0.0,0.0,0.0,0.0,0.0,0.0,0.0,0.0,0.0,0.0,0.0,0.0,2.7433,2.6858,2.6439,2.6302,2.6346,2.6346,2.6346,2.6433,2.6557,2.6557,2.7245,2.7178,2.6557,2.7056,2.6989,2.6488,2.6321,2.6321,2.6488,2.6488,2.6177,2.5726,2.6748,2.6803,2.6481,2.788,2.839,2.8417,2.9393,2.978,2.987,3.0568,3.1219,3.1894,3.2532,3.3387,3.4448,3.5674,3.6061,3.6441,3.7972,3.8564,3.8931,3.9781,4.0138,4.0351,4.0559,4.0588,4.0588,4.0574,4.0477,4.0698,4.1751,4.2571,4.3442,4.4509,4.4748,4.5097,4.5957,4.6015,4.6287,4.707,4.7895,4.8372,4.827,4.8326,4.8328,4.8239,4.7413,4.6929,4.7012,4.6182,4.5761,4.5893,4.5906,4.5899,4.5905,4.5917,4.5947,4.6005,4.6136,4.6204,4.6204,4.6268,4.628,4.6175,4.5316,4.4432,4.3564,4.2621,4.1734,4.0948,4.0696,4.059,4.0563,4.0444,4.0252,4.012,0.0,0.0,0.0,0.0,0.0,0.0,0.0,0.0,0.0,0.0,0.0,0.0,0.0,0.0,0.0,0.0,0.0,0.0,2.8208,2.6614,2.5389,2.4813,2.5205,2.5521,2.5521,2.5508,2.5578,2.5578,2.5718,2.5706,2.5578,2.5016,2.4732,2.4743,2.4541,2.4457,2.4517,2.5121,2.5226,2.5061,2.5795,2.6152,2.6425,2.7365,2.8051,2.8505,2.8903,2.9359,2.987,3.0312,3.1319,3.271,3.4104,3.4951,3.5596,3.6288,3.7008,3.7682,3.8209,3.8802,3.9383,3.9819,4.0082,4.0281,4.0526,4.0588,4.0506,4.0221,4.0136,4.0367,4.117,4.2187,4.3238,4.4365,4.5304,4.6205,4.707,4.7123,4.7362,4.8126,4.8377,4.8664,4.9131,4.9172,4.9461,5.0063,4.8155,4.6992,4.7066,4.6254,4.5814,4.5893,4.5893,4.5905,4.5905,4.5998,4.6068,4.6086,4.6161,4.6209,4.6204,4.6267,4.5946,4.5284,4.4405,4.3512,4.2598,4.1705,4.1085,4.0703,4.063,4.0526,4.0427,4.0233,4.0139,4.0061,0.0,0.0,0.0,0.0,0.0,0.0,0.0,0.0,0.0,0.0,0.0,0.0,0.0,0.0,0.0,0.0,0.0,0.0,0.0,2.678,2.5348,2.353,2.3875,2.4135,2.4253,2.4253,2.4253,2.4253,2.4529,2.4529,2.4253,2.3722,2.3514,2.3475,2.3095,2.3021,2.318,2.3649,2.3627,0.0,0.0,2.4554,2.4968,2.5938,2.6841,2.7776,2.8274,2.9366,3.0616,3.1273,3.2252,3.3451,3.4655,3.5363,3.5891,3.6681,3.7435,3.8122,3.8542,3.899,3.9383,3.9656,3.988,4.0024,4.008,4.0262,4.0298,3.9888,3.9781,3.9924,4.0444,4.1722,4.2951,4.3679,4.4818,4.6053,4.7375,4.7499,4.7885,4.9067,4.9495,4.9826,5.0164,5.0206,5.0405,5.0887,4.8841,4.76,4.7676,4.6477,4.5841,4.5949,4.5929,4.5964,4.5988,4.6086,4.6136,4.6134,4.6211,4.6247,4.6249,4.6278,4.5821,4.4945,4.4052,4.3134,4.2234,4.1249,4.078,4.0636,4.0574,4.0508,4.0396,4.0139,4.0021,3.9918,0.0,0.0,0.0,0.0,0.0,0.0,0.0,0.0,0.0,0.0,0.0,0.0,0.0,0.0,0.0,0.0,0.0,0.0,0.0,0.0,2.5509,2.2769,2.2562,2.2703,2.2852,2.2852,2.2852,2.2852,2.3475,2.3401,2.2692,2.284,2.2627,2.2241,2.1842,2.1766,2.209,2.2176,2.1873,2.1425,2.2252,2.2756,2.3106,0.0,2.5475,2.6799,2.7762,2.9558,3.1667,3.266,3.3489,3.417,3.4814,3.5346,3.5899,3.6976,3.7629,3.8136,3.8905,3.9101,3.9165,3.9433,3.9632,3.9712,3.9477,3.9802,4.0003,3.9534,3.947,3.9551,3.9693,4.1261,4.2633,4.2868,4.3982,4.5468,4.7256,4.7565,4.8192,4.9804,5.0712,5.1191,5.1128,5.1113,5.1102,5.1111,4.9401,4.8357,4.8416,4.677,4.5905,4.6016,4.6026,4.6046,4.6105,4.6163,4.6191,4.621,4.6276,4.63,4.63,4.6183,4.5652,4.4766,4.3824,4.2916,4.2011,4.1078,4.0681,4.0655,4.0543,4.0482,4.0413,4.0081,3.9878,3.9717,0.0,0.0,0.0,0.0,0.0,0.0,0.0,0.0,0.0,0.0,2.2882,2.3202,0.0,0.0,0.0,0.0,0.0,0.0,0.0,0.0,0.0,2.2739,2.2559,2.2335,2.2035,2.2025,2.2025,2.2025,2.2176,2.1863,2.1252,2.1088,2.0692,2.0138,2.0401,2.0479,2.0372,2.0954,2.0964,2.0799,2.1425,2.2241,2.3106,2.3902,0.0,0.0,2.8208,2.9864,3.1667,3.2692,3.3758,3.4905,3.5907,3.644,3.689,3.7578,3.8026,3.8431,3.897,3.9101,3.9165,3.9433,3.9532,3.9561,3.9557,3.9712,3.9712,3.9205,3.9313,3.9477,3.9324,4.0934,4.2432,4.2899,4.4404,4.6001,4.7393,4.8194,4.8981,4.9895,5.0761,5.1264,5.1193,5.1176,5.1187,5.1176,4.9545,4.8545,4.8564,4.6951,4.6072,4.6156,4.6172,4.616,4.6187,4.6191,4.6229,4.629,4.6284,4.63,4.628,4.5558,4.4719,4.3799,4.2909,0.0,4.0959,4.0776,4.0629,4.0534,4.0523,4.0392,4.0214,3.9943,3.9705,3.9432,0.0,0.0,0.0,0.0,0.0,0.0,0.0,2.1132,2.1587,2.2223,2.2782,2.3096,2.3066,2.3337,2.3637,0.0,0.0,0.0,0.0,0.0,0.0,0.0,2.2677,2.2372,2.1818,2.1807,2.1807,2.1807,0.0,2.1175,2.0867,2.0001,1.9529,1.945,1.9222,1.9381,1.9756,2.0089,2.0411,2.0644,2.0954,2.1842,2.3021,0.0,0.0,0.0,2.8026,2.9619,3.1471,3.1805,3.3236,3.4981,3.6054,3.6678,3.7097,3.7614,3.8029,3.8436,3.8902,3.9007,3.9036,3.921,3.935,3.9383,3.909,3.9282,3.9358,3.8857,3.898,3.9183,3.9156,4.0815,4.2293,4.2539,4.433,4.6068,4.7142,4.822,4.9195,4.9961,5.0796,5.1296,5.1299,5.1281,5.1078,5.0666,4.9427,4.8694,4.8658,4.7054,4.6167,4.6195,4.6198,4.6208,4.6191,4.6228,4.6276,4.63,4.63,4.63,4.6261,4.5323,4.4415,4.3546,4.2566,4.1585,4.0694,4.0615,4.0564,4.0489,4.0372,4.0286,4.0139,3.9772,3.9585,3.9421,0.0,0.0,0.0,0.0,0.0,0.0,0.0,2.0296,2.0567,2.1607,2.2368,2.2871,2.2911,2.3057,2.325,0.0,0.0,0.0,0.0,0.0,0.0,0.0,0.0,0.0,2.1818,0.0,0.0,2.1568,2.1185,0.0,0.0,0.0,0.0,0.0,1.8353,1.8585,1.9441,1.9608,2.0001,0.0,0.0,2.169,2.3032,0.0,0.0,0.0,0.0,2.9213,3.0983,3.104,3.2431,3.4348,3.5442,3.6215,3.6768,3.7214,3.763,3.8074,3.8707,3.891,3.8892,3.8968,3.9129,3.9137,3.8585,3.8799,3.9027,3.8585,3.8725,3.8979,3.9073,4.0729,4.2109,4.2183,4.4039,4.5759,4.661,4.7891,4.9036,4.9734,5.0703,5.1347,5.1398,5.1347,5.0976,5.0168,4.9139,4.8433,4.8177,4.6928,4.6215,4.6219,4.6211,4.6229,4.6229,4.6273,4.63,4.63,4.63,4.6199,4.5956,4.498,4.4065,4.3202,4.2164,4.1319,4.0642,4.0485,4.0441,4.0406,4.0195,4.0101,4.0021,3.9651,3.9458,3.9338,0.0,0.0,0.0,0.0,0.0,0.0,0.0,1.9255,1.9977,2.0085,2.1096,2.2008,2.2432,2.2824,2.3144,0.0,0.0,0.0,0.0,0.0,0.0,0.0,0.0,0.0,0.0,0.0,0.0,2.1021,2.1262,0.0,0.0,0.0,0.0,0.0,0.0,1.8496,1.8816,1.9539,0.0,0.0,0.0,0.0,0.0,0.0,0.0,0.0,0.0,2.8853,3.0072,3.0983,3.181,3.2632,3.374,3.4781,3.5664,3.6342,3.664,3.7072,3.8499,3.891,3.891,3.891,3.8921,3.8815,3.8346,3.8646,3.8902,3.8478,3.8766,3.9073,3.9101,4.0495,4.1771,4.2158,4.3615,4.4958,4.5714,4.7272,4.8502,4.8873,5.0373,5.1394,5.1391,5.1398,5.1029,5.0168,4.8623,4.734,4.6482,4.6288,4.623,4.63,4.629,4.6287,4.6287,4.6303,4.63,4.63,4.63,4.5816,4.491,4.4079,4.3138,4.2098,4.1209,4.0706,0.0,4.0304,4.0233,4.0195,3.9943,3.9728,3.9556,3.9526,3.935,3.899,0.0,0.0,0.0,0.0,0.0,0.0,1.8087,1.8542,1.8996,1.9455,2.0175,2.0907,2.1741,2.2246,2.2668,2.3105,0.0,0.0,0.0,0.0,0.0,0.0,0.0,0.0,0.0,0.0,2.1645,2.1262,2.1031,0.0,0.0,0.0,0.0,0.0,0.0,1.8416,1.9292,1.9608,0.0,0.0,0.0,0.0,0.0,0.0,0.0,0.0,0.0,0.0,2.9761,3.0133,3.1086,3.2078,3.2149,3.3171,3.4574,3.5958,3.6417,3.6826,3.8147,3.864,3.881,3.8822,3.8664,3.841,3.8183,3.8201,3.8234,3.8281,3.8473,3.8766,3.9045,4.0476,4.164,4.1815,4.3397,4.4695,4.5017,4.6403,4.768,4.8405,4.9685,5.0723,5.134,5.0933,5.0058,4.8691,4.7497,4.6644,4.6282,4.6261,4.6276,4.6306,4.6303,4.63,4.63,4.63,4.6269,4.6181,4.6181,4.593,4.5423,4.454,4.3629,4.2667,4.1759,4.1031,0.0,4.0286,4.0196,4.0158,3.9769,3.9561,3.9477,3.9324,3.9064,3.8722,0.0,0.0,0.0,0.0,0.0,1.7426,1.7426,1.7707,1.8079,1.8819,1.9446,2.0184,2.1302,2.166,2.2185,2.2784,2.2872,0.0,0.0,0.0,0.0,0.0,0.0,0.0,0.0,0.0,2.1502,2.1118,2.0809,2.0498,0.0,0.0,1.8754,1.9152,0.0,0.0,0.0,0.0,0.0,0.0,0.0,0.0,0.0,0.0,0.0,0.0,0.0,0.0,0.0,0.0,0.0,3.1675,3.1407,3.2087,3.3313,3.4914,3.5811,3.6501,3.7449,3.8186,3.8689,3.875,3.8295,3.7838,3.7724,3.7554,3.7467,3.7769,3.815,3.8585,3.8998,4.0476,4.159,4.159,4.3193,4.4455,4.4567,4.5623,4.6714,4.7624,4.8604,4.9527,5.0341,4.9699,4.8755,4.756,4.6669,4.6181,4.6181,4.6216,4.6269,4.63,4.63,4.6277,4.624,4.624,4.6176,4.6049,4.6049,4.5842,4.5456,4.4809,4.3871,4.2734,4.2008,4.1195,0.0,4.012,3.9982,3.9941,3.9556,3.9401,3.935,3.9055,3.8807,3.8579,0.0,0.0,0.0,0.0,0.0,0.0,1.5825,1.6669,1.7512,1.8087,1.9004,2.0102,2.1302,2.1392,2.1651,2.2353,2.2441,0.0,0.0,0.0,0.0,0.0,0.0,0.0,0.0,0.0,2.0896,2.0342,2.0664,2.0586,1.9863,1.9687,1.9599,1.9608,0.0,0.0,0.0,0.0,0.0,0.0,0.0,0.0,0.0,0.0,0.0,0.0,0.0,0.0,0.0,0.0,0.0,0.0,0.0,3.1912,3.1857,3.2934,3.4443,3.5866,3.6239,3.7497,3.8707,3.8707,3.7849,3.6961,3.6744,3.6692,3.6741,3.6888,3.7794,3.8718,3.9045,4.0476,4.159,4.159,4.2946,4.4154,4.4537,4.5073,4.5664,4.6337,4.7066,4.7694,4.8092,4.759,4.7212,4.7212,4.6396,4.591,4.591,4.6041,4.615,4.63,4.63,4.624,4.6105,4.6098,4.6021,4.5899,4.5899,4.5417,4.4517,4.4498,4.3525,4.18,4.1531,4.0941,0.0,3.9698,3.9526,3.9477,3.9192,3.9101,3.9055,3.8748,3.8609,3.8486,0.0,0.0,0.0,0.0,0.0,0.0,0.0,1.6109,1.6676,1.7893,1.8357,1.918,2.0744,2.0934,2.1114,2.1651,2.2176,0.0,0.0,0.0,0.0,0.0,0.0,0.0,0.0,0.0,2.1051,2.0741,2.0829,2.0741,2.0411,1.9844,1.9844,2.0245,1.9687,1.9923,0.0,0.0,0.0,0.0,0.0,0.0,2.6676,0.0,0.0,0.0,0.0,0.0,0.0,0.0,0.0,0.0,0.0,0.0,0.0,3.1801,3.2583,3.3583,3.4372,3.5224,3.5932,3.6052,3.5738,3.5528,3.5988,3.6056,3.6252,3.7077,3.7817,3.8606,3.9534,4.064,4.1576,4.2131,4.3014,4.3712,4.3812,4.4383,4.5117,4.602,4.7339,4.7999,4.7524,4.7306,4.6959,4.6366,4.6055,4.5899,4.5899,4.593,4.5987,4.6033,4.6125,4.6098,4.5949,4.5949,4.5919,4.5829,4.5829,4.5316,4.436,4.436,4.3335,4.1531,4.1437,4.0844,3.9901,3.9609,3.9502,3.9458,3.9192,3.897,3.8748,3.864,3.8277,3.7808,0.0,0.0,0.0,0.0,0.0,0.0,0.0,1.5927,1.6494,1.79,1.8172,1.8812,2.0555,2.0744,2.0934,2.1392,2.1741,0.0,0.0,0.0,0.0,0.0,0.0,0.0,2.1159,2.0968,2.0819,2.0819,2.0819,2.0731,2.0566,2.0157,2.0167,2.0566,2.0401,2.0779,0.0,0.0,0.0,0.0,0.0,0.0,2.7136,0.0,0.0,0.0,0.0,0.0,0.0,0.0,0.0,0.0,0.0,0.0,0.0,0.0,3.1358,3.1773,3.2887,3.3897,3.4747,3.5332,3.5066,3.492,3.5731,3.5773,3.5875,3.6843,3.7541,3.8404,3.9693,4.0601,4.1443,4.2318,4.3048,4.3548,4.3679,4.3986,4.4513,4.5366,4.653,4.7057,4.6568,4.6557,4.6371,4.5835,4.5796,4.5796,4.5796,4.5828,4.5828,4.5777,4.5949,4.5969,4.5852,4.5852,4.5654,4.5229,4.5229,4.4758,4.3835,4.3728,4.287,4.1399,4.1239,4.0615,0.0,3.9458,3.935,3.9324,3.9183,3.8913,3.8579,3.8473,3.8013,3.7469,0.0,0.0,0.0,0.0,0.0,0.0,0.0,1.6028,1.6595,1.79,1.8257,1.8988,2.0464,2.0654,2.0835,2.1302,0.0,0.0,0.0,0.0,0.0,0.0,0.0,0.0,2.122,2.0656,2.0449,2.0566,2.0566,2.0566,2.0566,2.0566,2.0644,2.0722,2.1262,2.1711,0.0,0.0,0.0,0.0,0.0,0.0,0.0,0.0,0.0,0.0,0.0,0.0,0.0,0.0,0.0,0.0,0.0,0.0,0.0,0.0,0.0,0.0,0.0,3.33,3.4744,3.5883,3.542,3.4883,3.5842,3.5773,0.0,3.6292,3.7149,3.8186,3.9589,4.0412,4.1254,4.2279,4.2983,4.3545,4.3924,4.3869,4.4013,4.4588,4.5014,4.5282,4.54,4.5513,4.5586,4.5586,4.5586,4.5586,4.5586,4.5696,4.5712,4.5586,4.5705,4.5731,4.5689,4.5689,4.519,4.4184,4.4184,4.3761,4.2956,4.2699,4.2106,4.1245,4.0873,4.024,3.9433,3.9192,3.9101,3.9101,3.9073,3.8884,3.8517,3.8183,3.7809,3.7395,0.0,0.0,0.0,0.0,0.0,0.0,0.0,0.0,0.0,0.0,1.7893,1.8635,1.9737,2.0201,2.0555,0.0,0.0,0.0,0.0,0.0,0.0,0.0,0.0,0.0,2.1229,2.0881,2.068,2.0566,2.0566,2.0566,2.0566,2.0566,2.0876,2.1272,2.1624,2.2435,0.0,0.0,0.0,0.0,0.0,0.0,0.0,0.0,0.0,0.0,3.0111,3.0628,0.0,0.0,0.0,0.0,0.0,0.0,0.0,0.0,3.1407,3.1182,3.2243,0.0,3.322,3.3792,3.4083,3.4463,0.0,3.5558,3.585,3.6566,3.7636,3.8795,3.9824,4.0598,4.1411,4.2485,4.2603,4.2808,4.3465,4.4149,4.4801,4.5304,4.5457,4.5513,4.555,4.5586,4.5586,4.5513,4.5513,4.5495,4.5438,4.5494,4.5494,4.5438,4.4747,4.4456,4.4652,4.4652,4.4126,4.3063,4.3063,4.2545,4.1563,4.1502,4.0915,3.9958,3.9857,3.957,3.9192,3.9129,3.9101,3.9073,3.895,3.8585,3.8183,3.7897,3.7522,3.7126,0.0,0.0,0.0,0.0,0.0,0.0,0.0,0.0,0.0,0.0,0.0,0.0,0.0,0.0,0.0,0.0,0.0,0.0,0.0,0.0,0.0,0.0,0.0,2.137,2.1504,2.099,2.0793,2.0869,2.0664,2.0722,2.1031,2.1098,2.1471,2.2101,2.2585,2.3661,0.0,0.0,0.0,0.0,2.7881,0.0,0.0,0.0,0.0,0.0,3.0582,3.1043,0.0,3.1724,3.2064,3.2391,0.0,0.0,0.0,0.0,3.1966,3.2093,3.3108,3.3007,3.2829,3.388,3.4374,3.4823,3.5624,3.6238,3.6766,3.7184,3.8151,3.9288,4.0192,4.0753,4.1425,4.2411,4.2752,4.305,4.3523,4.3941,4.443,4.4965,4.5048,4.5187,4.5549,4.5586,4.5568,4.5513,4.5495,4.5476,4.54,4.5055,4.4844,4.4844,4.3924,4.3656,4.4097,4.3656,4.2927,4.1965,4.1965,4.1445,4.0498,4.0405,4.0042,3.9483,3.9376,3.9219,3.9101,3.9101,3.9045,3.8931,3.8833,3.8446,3.7897,3.7739,3.7411,3.6987,0.0,0.0,0.0,0.0,0.0,0.0,0.0,0.0,0.0,0.0,0.0,0.0,0.0,0.0,0.0,0.0,0.0,0.0,0.0,0.0,0.0,0.0,2.1392,2.1355,2.1835,2.1208,2.1134,2.1489,2.1253,2.1346,2.1758,2.1956,2.237,2.299,2.3975,2.504,0.0,0.0,0.0,0.0,2.857,0.0,0.0,0.0,0.0,0.0,0.0,0.0,0.0,3.2079,3.2302,3.229,3.1844,0.0,0.0,0.0,0.0,0.0,3.4121,3.3782,3.345,3.4915,3.5328,3.56,3.6461,3.7245,3.7815,3.793,3.8744,3.9673,4.044,4.0896,4.1362,4.2109,4.2978,4.3638,4.3841,4.3778,4.3943,4.4511,4.4559,4.484,4.5531,4.5568,4.555,4.5476,4.5476,4.5381,4.5131,4.448,4.4039,4.3866,4.2986,4.2792,4.3371,4.262,4.1753,4.0829,4.0851,4.045,3.9687,3.9513,3.9452,3.9427,3.9192,0.0,3.9045,3.9045,3.895,3.8713,3.8683,3.8267,3.7703,3.7667,3.7374,3.7009,0.0,0.0,0.0,0.0,0.0,0.0,0.0,0.0,0.0,0.0,0.0,0.0,0.0,0.0,0.0,0.0,0.0,0.0,0.0,0.0,0.0,2.2627,2.1943,2.166,2.1835,2.2269,2.2506,2.2646,2.3116,2.3192,2.2889,2.3033,2.3501,2.4204,2.5264,2.6114,2.6663,2.7934,0.0,0.0,2.967,0.0,0.0,0.0,0.0,0.0,0.0,0.0,0.0,3.215,3.2302,3.2382,3.2275,0.0,0.0,0.0,0.0,0.0,3.4769,3.5172,3.5358,3.565,3.5917,3.6335,3.7172,3.7499,3.7802,3.8538,3.9373,4.0018,4.0184,4.0697,4.115,4.1356,4.2556,4.3596,4.4064,4.4786,4.5304,4.54,4.5381,4.5381,4.5513,4.5457,4.5419,4.5419,4.5419,4.4954,4.3935,4.376,4.3289,4.2372,4.133,4.0832,4.0937,4.1355,4.0921,3.9665,3.9739,3.9564,3.9219,3.9165,3.9156,3.9156,0.0,3.8989,3.8851,3.8851,3.8683,3.8446,3.8219,3.7966,3.7756,3.7466,3.7241,3.7031,0.0,0.0,0.0,0.0,0.0,0.0,0.0,0.0,0.0,0.0,0.0,0.0,0.0,0.0,0.0,0.0,0.0,0.0,0.0,0.0,2.2872,2.3299,2.3028,2.294,2.3262,2.3362,2.3556,2.3761,2.3892,2.3975,2.4004,2.4638,2.5116,2.5487,2.6321,2.7069,2.771,2.8607,2.9205,0.0,0.0,0.0,0.0,0.0,0.0,0.0,0.0,0.0,0.0,0.0,3.2302,3.2398,3.2398,0.0,0.0,0.0,0.0,0.0,3.5038,3.5571,3.6079,3.6834,3.7335,3.7743,3.8051,3.8974,3.9681,3.9686,4.0429,4.0955,4.0585,4.1163,4.1931,4.2665,4.2994,4.3339,4.3818,4.3949,4.4102,4.448,4.4455,4.4569,4.503,4.5007,4.4943,4.491,4.4493,4.4028,4.3416,4.2529,4.1795,4.1311,4.0382,3.9821,3.9704,4.0096,3.9908,3.9183,3.921,3.9165,3.9101,3.9101,3.9101,3.9101,0.0,3.8892,3.8792,3.8652,3.8433,3.8186,3.8052,3.781,3.7503,3.7241,3.697,3.6771,0.0,0.0,0.0,0.0,0.0,0.0,0.0,0.0,0.0,0.0,0.0,0.0,0.0,0.0,0.0,0.0,0.0,0.0,0.0,2.3047,2.357,2.4059,2.4049,2.4145,2.4498,2.4325,2.4481,2.4895,2.4773,2.4933,2.553,2.644,2.6847,2.6891,2.7491,2.8132,2.8762,2.9366,2.9903,0.0,0.0,0.0,0.0,0.0,0.0,0.0,0.0,0.0,0.0,0.0,0.0,0.0,0.0,0.0,0.0,3.3503,3.4134,3.4913,3.5195,3.5722,3.6473,3.7784,3.8302,3.8623,3.9149,4.0282,4.1175,4.0884,4.1456,4.1796,4.1071,4.1472,4.2271,4.3324,4.3243,4.321,4.3688,4.3361,4.3259,4.3794,4.3763,4.3983,4.458,4.4599,4.4452,4.421,4.3627,4.3047,4.2565,4.1301,4.0488,4.024,3.9642,3.9219,3.9007,3.911,3.9129,3.8997,3.9007,3.9064,3.9101,3.9045,3.9017,3.9017,3.8803,3.8683,3.859,3.8382,3.8153,3.7915,3.7915,3.7649,3.7259,3.7048,3.6771,3.6502,0.0,0.0,0.0,0.0,0.0,0.0,0.0,0.0,0.0,0.0,0.0,0.0,0.0,0.0,0.0,0.0,0.0,0.0,0.0,2.2969,2.3647,2.4659,2.4744,2.4659,2.4498,2.5041,2.5619,2.6058,2.6707,2.7254,2.7775,2.8199,2.8292,2.8307,2.916,2.9439,2.9296,3.0404,3.1029,3.1219,3.1379,0.0,0.0,0.0,0.0,0.0,0.0,0.0,0.0,0.0,0.0,0.0,0.0,0.0,3.3745,3.4101,3.4415,3.4785,3.5424,3.6054,3.6812,3.786,3.7823,3.8188,4.0503,4.073,4.0782,4.1912,4.2266,4.2115,4.1258,4.1013,4.1143,4.1626,4.2594,4.349,4.4065,4.4364,4.4535,4.4508,4.4474,4.4447,4.4519,4.4438,4.411,4.334,4.3227,4.2425,4.0617,4.0384,3.9851,3.8891,3.8787,3.875,3.8738,3.8792,3.8862,3.891,3.9017,3.9101,3.9101,3.8921,3.8822,3.8822,3.8541,3.8285,3.8052,3.8052,3.788,3.7613,3.7613,3.7466,3.7259,3.6952,3.6673,3.6402,0.0,0.0,0.0,0.0,0.0,0.0,0.0,0.0,0.0,0.0,0.0,0.0,0.0,0.0,0.0,0.0,0.0,0.0,0.0,2.4079,2.4765,2.5622,2.5706,2.579,2.5957,2.6279,2.6539,2.6798,2.7452,2.8052,2.8586,2.918,2.956,2.9794,3.0201,3.0489,3.075,3.1131,3.1321,3.1336,3.1781,0.0,0.0,0.0,0.0,0.0,0.0,0.0,0.0,0.0,3.2711,3.2942,3.3208,3.3487,3.3797,3.4201,3.4658,3.5178,3.5424,3.6037,3.698,3.8356,3.8646,3.9076,4.1119,4.1883,4.226,4.2719,4.2829,4.2582,4.1757,4.1943,4.2213,4.2221,4.2996,4.3675,4.391,4.4048,4.4121,4.4109,4.403,4.3745,4.3225,4.3126,4.2749,4.1934,4.1445,4.0829,4.0099,3.9601,3.9105,3.8707,3.8707,3.8707,3.8707,3.8609,3.8541,3.8572,3.8707,3.8737,3.8646,3.859,3.8559,3.8559,3.8252,3.8086,3.7984,3.7828,3.7685,3.7577,3.7503,3.7392,3.7259,3.6834,3.6451,3.6071,0.0,0.0,0.0,0.0,0.0,0.0,0.0,0.0,0.0,0.0,0.0,0.0,0.0,0.0,0.0,0.0,0.0,0.0,2.3897,2.484,2.5695,2.6385,2.6622,2.6951,2.7383,2.7452,2.7534,2.7545,2.8395,2.9065,2.9365,3.0393,3.0831,3.0744,3.1239,3.1411,3.1436,3.1573,3.1625,3.1582,3.2023,3.2247,0.0,0.0,0.0,0.0,0.0,0.0,0.0,0.0,3.2672,3.2888,3.3298,3.3626,3.3949,3.4349,3.4913,3.5424,3.5424,3.5924,3.6863,3.8664,3.9091,3.9629,4.1703,4.2523,4.2978,4.3231,4.3051,4.27,4.2096,4.2429,4.2755,4.2569,4.3194,4.3719,4.3719,4.3719,4.3719,4.3719,4.3413,4.2959,4.2423,4.2099,4.1589,4.0781,4.0212,3.979,3.9533,3.9001,3.8707,3.8707,3.8707,3.8707,3.8707,3.8465,3.83,3.8201,3.83,3.8332,3.835,3.8285,3.8285,3.8252,3.7984,3.788,3.7845,3.7685,3.7503,3.7339,3.7016,3.6917,3.6838,3.6191,3.5848,3.5688,0.0,0.0,0.0,0.0,0.0,0.0,0.0,0.0,0.0,0.0,0.0,0.0,0.0,0.0,0.0,0.0,0.0,0.0,2.4196,2.5263,2.6163,2.6846,2.7487,2.7983,2.851,2.8724,2.8633,2.8259,2.9626,3.0317,3.0304,3.1942,3.2124,3.1163,3.2213,3.2068,3.1029,3.1697,3.1996,3.1996,3.215,3.2191,3.2191,0.0,0.0,0.0,0.0,0.0,0.0,0.0,3.3314,3.3745,3.4151,3.43,3.4349,3.4787,3.5118,3.5379,3.5424,3.5622,3.6334,3.8554,3.9006,3.961,4.2372,4.2598,4.248,4.3426,4.2978,4.2354,4.2239,4.2336,4.2354,4.2221,4.2996,4.3582,4.3532,4.3548,4.3563,4.3513,4.2782,4.2286,4.2286,4.157,4.0763,3.9937,3.9882,3.9533,3.8744,3.8707,3.8707,3.8707,3.8707,3.8707,3.8707,3.8364,3.8065,3.7792,3.7721,3.7862,3.8183,3.8052,3.7984,3.7984,3.7721,3.7577,3.7577,3.7594,3.7319,3.6812,3.6078,3.5924,3.5951,3.4873,3.4874,3.5316,0.0,0.0,0.0,0.0,0.0,0.0,0.0,0.0,0.0,0.0,0.0,0.0,0.0,0.0,0.0,0.0,0.0,0.0,2.5779,2.6434,2.7092,2.7765,2.7995,2.8247,2.851,2.9106,2.9406,2.9496,2.9883,3.0351,3.0916,3.1632,3.1983,3.199,3.2145,3.2165,3.2065,3.2022,3.1996,3.2053,3.2247,3.2468,3.2664,0.0,0.0,0.0,0.0,0.0,0.0,0.0,0.0,0.0,3.3245,3.3403,3.3507,3.4234,3.4643,3.4818,3.5228,3.5994,3.7033,3.8562,3.9451,4.0466,4.2484,4.2846,4.2903,4.3495,4.3408,4.3051,4.2433,4.2811,4.2978,4.2433,4.3014,4.3513,4.3479,4.3036,4.2687,4.2653,4.1956,4.124,4.0671,4.0396,3.9918,3.9129,3.9056,3.8946,3.8707,3.8707,3.8564,3.8303,3.8285,3.8135,3.7879,3.7578,3.7376,3.7319,3.7147,3.7223,3.7559,3.7685,3.7721,3.7721,3.7613,3.7577,3.7577,3.7243,3.6545,3.57,3.5456,3.5059,3.4535,3.4482,3.4536,3.4656,0.0,0.0,0.0,0.0,0.0,0.0,0.0,0.0,0.0,0.0,2.2921,2.3357,0.0,0.0,0.0,0.0,0.0,0.0,0.0,2.7174,2.7834,2.8407,2.8657,2.9052,2.9509,3.0254,3.0654,3.0594,3.0446,3.0705,3.143,3.1721,3.1891,3.1936,3.2132,3.2199,3.2225,3.2049,3.2038,3.2094,3.2287,3.2523,3.2648,0.0,0.0,0.0,0.0,0.0,0.0,0.0,0.0,0.0,3.2942,3.298,3.3193,3.4084,3.4448,3.4739,3.5453,3.6147,3.7136,3.9005,3.9866,4.08,4.2687,4.3178,4.3267,4.3513,4.3548,4.3426,4.2941,4.3213,4.3338,4.2904,4.3213,4.3387,4.3057,4.2598,4.2176,4.1864,4.1111,4.0432,3.9937,3.9606,3.9158,3.8519,3.8451,3.8401,3.8219,3.8219,3.8101,3.7879,3.7879,3.7739,3.7505,3.7188,3.7013,3.7013,3.6851,3.6869,3.7105,3.7354,3.7521,3.7503,3.7374,3.7206,3.6999,3.6466,3.5706,3.4846,3.4288,3.3806,3.3473,3.3708,3.3929,3.4191,0.0,0.0,0.0,0.0,0.0,0.0,0.0,0.0,0.0,0.0,2.4659,2.4925,0.0,0.0,0.0,0.0,0.0,0.0,0.0,2.7649,2.8383,2.8949,2.9599,3.0305,3.1048,3.1649,3.1847,3.1527,3.1175,3.1165,3.164,3.1872,3.1674,3.1238,3.2048,3.2167,3.1784,3.194,3.2094,3.2191,3.2342,3.2398,3.2398,3.2398,0.0,0.0,0.0,0.0,0.0,0.0,0.0,0.0,3.2958,3.2996,3.3208,3.4134,3.4546,3.4944,3.5916,3.6256,3.6957,3.9623,4.0347,4.0944,4.3027,4.3497,4.3497,4.3497,4.3497,4.3497,4.3497,4.3497,4.3497,4.3497,4.3424,4.313,4.2396,4.2176,4.1809,4.1093,4.0286,3.979,3.979,3.9098,3.8483,3.8135,3.8068,3.7879,3.7505,3.7505,3.7469,3.7469,3.7469,3.7432,3.7395,3.7017,3.686,3.6821,3.6731,3.6684,3.6771,3.7143,3.7297,3.7337,3.7034,3.6568,3.5993,3.538,3.4787,3.4107,3.278,3.232,3.2514,3.263,3.311,3.3806,0.0,0.0,0.0,0.0,0.0,0.0,0.0,0.0,0.0,0.0,0.0,0.0,0.0,0.0,0.0,0.0,0.0,0.0,0.0,2.887,2.9263,3.0152,3.0771,3.1233,3.1381,3.1235,3.1425,3.1903,3.1626,3.1349,3.0909,3.1062,3.1118,3.116,3.1442,3.1543,3.1597,3.1883,3.1996,3.2038,3.2287,3.2398,3.2398,3.2398,3.2398,0.0,0.0,0.0,0.0,0.0,0.0,0.0,3.2951,3.2935,3.3043,3.3555,3.4301,3.5073,3.5691,3.6619,3.7864,3.9824,4.1523,4.2882,4.3406,4.3497,4.3497,4.3497,4.3497,4.3497,4.3497,4.3497,4.3497,4.3497,4.2965,4.2506,4.2323,4.1203,4.0341,4.0175,3.9441,3.8964,3.8964,3.851,3.8186,3.8101,3.7809,3.7578,3.7505,3.7505,3.7358,3.7055,3.7017,3.686,3.6557,3.6492,3.6409,3.6409,3.6385,3.6444,3.6585,3.697,3.7069,3.6935,3.6917,3.611,3.4865,3.4712,3.3667,3.2181,3.1865,3.144,3.1123,3.2266,3.2779,3.311,0.0,0.0,0.0,0.0,0.0,0.0,0.0,0.0,0.0,0.0,0.0,0.0,0.0,0.0,0.0,0.0,0.0,0.0,0.0,0.0,3.0393,3.0983,3.1589,3.1834,3.1478,3.1691,3.1667,3.1523,3.1523,3.1395,3.1088,3.0898,3.0947,3.1087,3.1234,3.1409,3.167,3.1883,3.2038,3.2094,3.2342,3.2398,3.2398,3.2398,3.2398,3.2508,3.3065,0.0,0.0,0.0,0.0,0.0,0.0,0.0,3.3203,3.3642,3.4086,3.4686,3.5942,3.6681,3.7664,4.0074,4.1805,4.302,4.3406,4.3497,4.3387,4.3002,4.3083,4.3105,4.2703,4.2487,4.2232,4.1833,4.1434,4.1034,4.0635,3.9855,3.9168,3.8805,3.8389,3.8135,3.8135,3.7948,3.7721,3.7542,3.7321,3.7132,3.6939,3.6939,3.6821,3.6597,3.6597,3.6533,3.6301,3.6301,3.6301,3.6301,3.6301,3.6259,3.6241,3.6632,3.6713,3.6433,3.6333,3.548,3.4164,3.3795,3.2834,3.1543,3.1196,3.0815,3.0692,3.215,3.268,3.2895,0.0,0.0,0.0,0.0,0.0,0.0,0.0,0.0,0.0,0.0,0.0,0.0,0.0,0.0,0.0,0.0,0.0,0.0,0.0,0.0,0.0,3.1663,3.2164,3.2176,3.1681,3.2106,3.1914,3.0976,3.1065,3.1195,3.1275,3.095,3.0895,3.1073,3.1249,3.1424,3.1727,3.194,3.2038,3.2191,3.2342,3.2398,3.2398,3.2398,3.2398,3.2453,3.3081,3.3309,3.3346,3.3658,0.0,0.0,0.0,0.0,3.345,3.3899,3.3984,3.435,3.6069,3.6609,3.7369,4.0104,4.1345,4.2061,4.2719,4.2865,4.2682,4.2024,4.2395,4.2541,4.1633,4.1229,4.0745,4.0027,3.9795,3.9435,3.8774,3.8577,3.8256,3.7577,3.7505,3.7505,3.7505,3.7432,3.7283,3.6939,3.6821,3.6638,3.6343,3.6301,3.6301,3.6301,3.6301,3.6301,3.6301,3.6301,3.6301,3.6301,3.6259,3.6071,3.5864,3.6131,3.6131,3.5924,3.5661,3.4813,3.3557,3.2945,3.2199,3.1328,3.0758,3.0526,3.0692,3.215,3.268,3.2895,0.0,0.0,0.0,0.0,0.0,0.0,0.0,0.0,0.0,0.0,2.8315,2.8712,0.0,0.0,0.0,0.0,0.0,0.0,3.111,0.0,0.0,3.2273,3.2361,3.2345,3.2261,3.1331,3.0827,3.0849,3.0449,3.0348,3.0441,3.0551,3.0821,3.1087,3.1132,3.1307,3.1539,3.1883,3.1996,3.2053,3.2287,3.2398,3.2398,3.2398,3.2398,3.2453,3.2973,3.3203,3.3346,3.3745,3.3813,0.0,0.0,0.0,3.3658,3.3745,3.4382,3.517,3.5425,3.6696,3.822,3.9299,3.9878,4.0251,4.0359,4.0376,4.0359,4.0251,4.1379,4.2024,4.0853,4.0637,4.0438,3.9976,3.931,3.881,3.8702,3.8113,3.7612,3.7505,3.7505,3.7505,3.7505,3.719,3.6978,3.69,3.6557,3.6385,3.6301,3.6301,3.6301,3.6301,3.6301,3.6301,3.6301,3.6301,3.6301,3.6301,3.6002,3.5766,3.5616,3.5379,3.5304,3.5299,3.5391,3.4437,3.2829,3.2729,3.1885,3.0659,3.0559,3.0526,3.0692,3.215,3.268,3.2895,0.0,0.0,0.0,0.0,0.0,0.0,0.0,0.0,0.0,0.0,0.0,2.9028,0.0,0.0,0.0,3.0508,3.0934,3.1516,3.2372,3.2731,3.2721,3.2374,3.2401,3.2075,3.1373,3.0811,3.0411,3.0247,3.0178,3.0158,3.0312,3.0507,3.0762,3.1087,3.1087,3.1249,3.1524,3.1883,3.1996,3.2038,3.2287,3.2734,3.3203,3.2641,3.2718,3.3219,3.3118,3.3203,3.3346,3.3745,3.3899,3.3899,3.3899,0.0,0.0,0.0,3.4152,3.4544,3.5165,3.6276,3.7514,3.867,3.9119,3.9328,3.9812,3.992,3.9795,3.931,3.9787,4.0041,3.9274,3.8968,3.8589,3.7988,3.7579,3.7369,3.7369,3.7031,3.6821,3.6821,3.6821,3.6821,3.6821,3.6678,3.6557,3.6557,3.6409,3.6301,3.6301,3.6301,3.6301,3.6301,3.6301,3.6301,3.6301,3.6131,3.5898,3.5677,3.5316,3.5148,3.5102,3.4787,3.4866,3.5316,3.5195,3.4222,3.268,3.268,3.1835,3.0526,3.0526,3.0775,3.1212,3.2299,3.2945,3.3458,0.0,0.0,0.0,0.0,0.0,0.0,0.0,0.0,0.0,0.0,0.0,0.0,0.0,0.0,0.0,0.0,3.1556,3.2359,3.3241,3.3101,3.2876,3.2684,3.2157,3.1485,3.0658,3.0361,3.0115,2.9761,2.9974,3.0158,3.0266,3.0507,3.0762,3.1087,3.1087,3.1264,3.1597,3.1883,3.2053,3.2094,3.2586,3.3255,3.3822,3.3061,3.3255,3.3838,3.3193,3.3096,3.3377,3.3918,3.4223,3.4376,3.4376,3.4376,0.0,0.0,0.0,3.3901,3.4885,3.5467,3.6146,3.7598,3.7927,3.8047,3.8823,3.8965,3.8805,3.8203,3.8096,3.8019,3.7702,3.7467,3.7101,3.6387,3.6301,3.6301,3.6301,3.6301,3.6301,3.6301,3.6301,3.6301,3.6301,3.6301,3.6301,3.6301,3.6301,3.6301,3.6301,3.6301,3.6301,3.6301,3.6301,3.6301,3.6301,3.5958,3.5543,3.5085,3.4835,3.4643,3.4594,3.4399,3.4626,3.5195,3.4977,3.4154,3.2961,3.2762,3.1934,3.0808,3.0808,3.1139,3.1735,3.263,3.3326,3.3889,0.0,0.0,0.0,0.0,0.0,0.0,0.0,0.0,0.0,0.0,0.0,0.0,3.0911,3.0986,3.0911,3.0698,3.1272,3.2128,3.3199,3.2625,3.2549,3.3281,3.1559,0.0,3.0997,3.0128,2.9645,2.9602,2.9927,3.0111,3.0111,3.0462,3.0762,3.1087,3.1087,3.138,3.1784,3.194,3.2094,3.2287,3.3395,3.3856,3.3906,3.3822,3.3856,3.3772,3.2911,3.292,3.3456,3.4282,3.4824,3.5121,3.5121,3.5121,3.4991,0.0,0.0,0.0,3.43,3.4203,3.4268,3.5684,3.583,3.5756,3.6345,3.6488,3.6488,3.6437,3.6437,3.6437,3.6395,3.6708,3.6794,3.6385,3.6301,3.6301,3.6301,3.6301,3.6301,3.6301,3.6301,3.6301,3.6301,3.6301,3.6301,3.6301,3.6301,3.6301,3.6301,3.6301,3.6301,3.6301,3.6301,3.6301,3.6301,3.5958,3.5453,3.4739,3.4707,3.4546,3.43,3.43,3.4448,3.4739,3.4691,3.4358,3.3673,3.2978,3.2249,3.1527,3.1527,3.1543,3.1785,3.321,3.3756,3.3889,0.0,0.0,0.0,0.0,0.0,0.0,0.0,0.0,0.0,0.0,0.0,0.0,0.0,3.0849,3.0849,3.0911,3.1003,3.1343,3.2124,3.164,3.1464,3.1711,3.0948,3.0461,3.044,2.9902,2.9602,2.9602,2.9927,3.0111,3.0111,3.0462,3.0762,3.1087,3.1087,3.138,3.1799,3.194,3.2094,3.2287,3.3431,3.4121,3.4414,3.4219,3.4462,3.4781,3.3783,3.3539,3.3806,3.4651,3.4997,3.5082,3.5045,3.515,3.504,3.4108,3.3523,3.3214,3.3636,3.338,3.3224,3.4364,3.4841,3.5186,3.5644,3.6028,3.6301,3.6301,3.6301,3.6301,3.6301,3.6409,3.6451,3.6343,3.6301,3.6301,3.6301,3.6301,3.6301,3.6301,3.6301,3.6301,3.6301,3.6301,3.6301,3.6301,3.6301,3.6301,3.6301,3.6301,3.6301,3.6301,3.6301,3.6071,3.5588,3.5481,3.5038,3.43,3.43,3.43,3.43,3.43,3.4448,3.4691,3.4691,3.4374,3.3773,3.3508,3.2961,3.2315,3.2315,3.2597,3.3077,3.3607,3.4087,3.4535,0.0,0.0,0.0,0.0,0.0,0.0,0.0,0.0,0.0,2.8712,0.0,0.0,0.0,0.0,3.0607,3.0637,3.0553,3.0668,3.1087,3.0719,3.0543,3.0786,3.0319,3.0024,2.9974,2.9665,2.954,2.9602,2.9851,3.0036,3.0111,3.0401,3.0702,3.1087,3.1087,3.138,3.1898,3.194,3.2094,3.2382,3.379,3.4525,3.47,3.4651,3.4918,3.517,3.407,3.3781,3.4062,3.4929,3.5275,3.5375,3.5253,3.5024,3.4665,3.3786,3.3193,3.2841,3.2895,3.254,3.24,3.3208,3.3689,3.4186,3.5031,3.552,3.589,3.6241,3.6301,3.6301,3.6301,3.6301,3.6301,3.6301,3.6301,3.6301,3.6301,3.6301,3.6301,3.6301,3.6301,3.6301,3.6301,3.6301,3.6301,3.6301,3.6301,3.6301,3.6301,3.6301,3.6259,3.6131,3.5985,3.5633,3.5055,3.5038,3.4723,3.4101,3.4101,3.4151,3.425,3.425,3.4399,3.4643,3.4643,3.4475,3.4137,3.3889,3.3508,3.3061,3.3061,3.3359,3.3822,3.4024,3.4421,3.4804,0.0,0.0,0.0,0.0,0.0,0.0,0.0,0.0,2.7279,2.7971,0.0,0.0,0.0,0.0,0.0,2.9783,2.9913,3.0143,3.0323,2.9821,2.9824,3.0715,2.9722,2.9338,2.9808,2.9526,2.9477,2.9602,2.9699,2.9884,3.0111,3.0266,3.0568,3.1087,3.1087,3.1424,3.1996,3.1996,3.2135,3.2571,3.449,3.5052,3.4748,3.5155,3.5189,3.4811,3.3668,3.3594,3.4113,3.5132,3.5795,3.6025,3.5711,3.4903,3.4,3.345,3.3049,3.2641,0.0,0.0,0.0,3.2275,3.2299,3.2632,3.4445,3.4731,3.4964,3.6037,3.6259,3.6259,3.6301,3.6301,3.6301,3.6301,3.6301,3.6301,3.6301,3.6301,3.6301,3.6301,3.6301,3.6301,3.6301,3.6301,3.6301,3.6301,3.6301,3.6301,3.6301,3.6301,3.6131,3.5766,3.5407,3.5055,3.4691,3.4691,3.4497,3.4101,3.4101,3.4101,3.4101,3.4101,3.425,3.4497,3.4497,3.4643,3.4833,3.4121,3.3822,3.3822,3.3822,3.3822,3.3905,3.4492,3.4691,3.4643,0.0,0.0,0.0,0.0,0.0,2.4584,2.5189,2.5841,2.6494,0.0,0.0,0.0,2.8688,2.9033,2.9264,2.9374,2.9041,2.893,2.9185,2.8812,2.8934,2.9525,2.9245,2.9289,2.9665,2.9477,2.9415,2.9477,2.9699,2.9884,3.0111,3.0266,3.0507,3.0895,3.1014,3.1292,3.1667,3.1925,3.2094,3.2382,3.4137,3.4825,3.4795,3.5797,3.6079,3.5864,3.5459,3.5052,3.4903,3.5791,3.6091,3.614,3.5946,3.4897,3.3607,3.3346,3.2726,3.2089,3.1724,0.0,0.0,0.0,0.0,0.0,3.2776,3.3403,3.4072,3.4964,3.529,3.561,3.6199,3.6301,3.6301,3.6301,3.6301,3.6301,3.6301,3.6301,3.6301,3.6301,3.6301,3.6301,3.6301,3.6301,3.6301,3.6301,3.6301,3.6301,3.6301,3.6088,3.5766,3.5362,3.527,3.5055,3.4691,3.4691,3.4497,3.4101,3.4101,3.4151,3.425,3.4151,3.43,3.4643,3.4546,3.4643,3.4883,3.4667,3.4601,3.4584,3.449,3.4442,3.4459,3.4529,3.4497,3.4399,0.0,0.0,0.0,0.0,0.0,2.328,2.382,2.4594,2.5359,0.0,0.0,0.0,2.736,2.7933,2.8299,2.8176,2.7889,2.7716,2.7854,2.7827,2.8039,2.8651,2.8702,2.8894,2.9289,2.9162,2.9226,2.9415,2.9588,2.9775,2.9974,3.0158,3.0401,3.0702,3.1014,3.1234,3.1437,3.1811,3.2094,3.2327,3.4235,3.4885,3.4885,3.6177,3.6574,3.6381,3.6071,3.5759,3.5532,3.5958,3.5874,3.5605,3.5573,3.4594,3.345,3.3256,3.2563,3.1823,3.1595,3.1087,3.0628,3.0673,0.0,0.0,3.24,3.2988,3.3707,3.5073,3.5487,3.5742,3.6199,3.6301,3.6301,3.6301,3.6114,3.6071,3.6259,3.6114,3.6028,3.6028,3.5793,3.5749,3.5985,3.6028,3.6071,3.6301,3.6301,3.6259,3.6088,3.5766,3.5362,3.5008,3.4802,3.4675,3.4448,3.4448,3.4349,3.4101,3.4151,3.4201,3.4201,3.425,3.4349,3.4546,3.4546,3.4643,3.4739,3.4739,3.4756,3.4804,3.4594,3.4546,3.4497,3.43,3.4201,3.4101,0.0,0.0,1.9455,2.0889,2.1338,2.1695,2.2167,2.3232,2.3917,0.0,2.4542,2.5189,2.6157,2.6906,2.7191,2.6737,2.6615,2.659,2.6602,2.6837,2.7255,2.7947,2.8118,2.8365,2.8651,2.8716,2.8972,2.9352,2.9352,2.9526,2.9808,3.0036,3.0294,3.0568,3.0955,3.119,3.1292,3.1811,3.2135,3.2501,3.4442,3.5076,3.5048,3.6469,3.6914,3.6663,3.6195,3.6044,3.6071,3.5912,3.5371,3.4787,3.4932,3.4366,3.3539,3.3203,3.2508,3.1864,3.1595,3.1029,3.0507,3.0312,3.0158,0.0,3.2315,3.2676,3.3185,3.5239,3.5708,3.5708,3.5795,3.5795,3.5795,3.5795,3.5565,3.5554,3.6156,3.5793,3.5526,3.5526,3.5098,3.4975,3.5481,3.5526,3.5661,3.6114,3.6114,3.5985,3.5633,3.5316,3.4961,3.4643,3.43,3.4101,3.4101,3.4101,3.4101,3.4101,3.4201,3.4201,3.4101,3.4349,3.4399,3.43,3.4546,3.4546,3.4497,3.4448,3.4497,3.4643,3.4349,3.425,3.425,3.3949,3.3848,3.3848,0.0,1.749,1.8427,1.9886,2.0249,2.052,2.1427,2.1695,2.205,2.2473,2.2902,2.375,2.5189,2.5081,2.5239,2.6259,2.5985,2.5819,2.5779,2.6427,2.685,2.6998,2.7577,2.7908,2.7987,2.8457,2.8702,2.8931,2.9212,2.9526,2.9808,3.0036,3.0158,3.0387,3.0895,3.1132,3.119,3.1769,3.247,3.3339,3.4426,3.5059,3.5453,3.7011,3.7596,3.7578,3.7596,3.7097,3.6444,3.6282,3.5773,3.5232,3.4969,3.4691,3.4219,3.324,3.2571,3.2053,3.1637,3.097,3.0251,2.9993,2.9775,0.0,2.9875,2.9968,3.0319,3.1434,3.1824,3.2207,3.2662,3.2751,3.2751,3.2751,3.3377,3.4267,3.5554,3.5299,3.4975,3.4975,3.4864,3.4816,3.4975,3.4975,3.5005,3.5098,3.5098,3.4927,3.4626,3.4626,3.4431,3.405,3.4101,3.4101,3.4101,3.4101,3.4101,3.4101,3.4151,3.4151,3.4101,3.4151,3.4201,3.43,3.425,3.425,3.43,3.4101,3.4151,3.4349,3.4101,3.4,3.3949,3.3797,3.3642,3.3555,1.5032,1.5893,1.6929,1.8211,1.878,1.9438,2.0167,2.061,2.0962,2.0962,2.1676,2.2473,2.3327,2.3474,2.3732,2.4513,2.4408,2.4492,2.4838,2.5417,2.5918,2.6346,2.7027,2.7443,2.7656,2.7987,2.8379,2.8688,2.8894,2.9226,2.9588,2.9789,3.0036,3.0447,3.0821,3.1058,3.1336,3.1868,3.264,3.3579,3.4659,3.5539,3.6387,3.7683,3.8183,3.8252,3.8119,3.7469,3.6615,3.6368,3.571,3.5041,3.5199,3.4759,3.4052,3.3351,3.2826,3.2305,3.1465,3.097,3.0493,2.9884,2.9713,0.0,0.0,2.985,3.011,3.0949,3.1291,3.1516,3.1772,3.1881,3.1881,3.1881,3.2545,3.3113,3.339,3.3989,3.4464,3.4464,3.4202,3.4168,3.4415,3.4464,3.4545,3.4769,3.4769,3.4642,3.43,3.4448,3.43,3.3899,3.405,3.4101,3.4101,3.4101,3.4151,3.4201,3.4201,3.4201,3.4201,3.425,3.425,3.4101,3.4151,3.4151,3.4,3.3848,3.3848,3.3899,3.3745,3.3694,3.3694,3.3555,3.345,3.3398,1.3307,1.428,1.5229,1.6149,1.7001,1.777,1.8334,1.9039,1.948,1.9422,2.0549,2.1398,2.1575,2.2429,2.3095,2.3472,2.3771,2.4074,2.4302,2.4886,2.5322,2.5755,2.6483,2.6973,2.7255,2.751,2.7908,2.8392,2.8457,2.8716,2.9212,2.9415,2.9837,3.0447,3.0881,3.1218,3.1595,3.2256,3.3072,3.399,3.5065,3.6128,3.7219,3.8162,3.8609,3.8658,3.8252,3.756,3.6786,3.6374,3.5599,3.4816,3.5098,3.469,3.3968,3.3355,3.3024,3.2648,3.1407,3.1029,3.0732,2.9775,2.9637,2.9827,0.0,0.0,0.0,3.0789,3.1004,3.1004,3.0817,3.0875,3.0959,3.0839,3.1358,3.152,3.0644,3.2121,3.3287,3.3339,3.3298,3.3382,3.3594,3.3646,3.3901,3.4496,3.4366,3.4219,3.4101,3.425,3.4151,3.3848,3.4,3.405,3.4101,3.4101,3.4151,3.43,3.425,3.425,3.425,3.4349,3.4201,3.3848,3.405,3.3949,3.3658,3.3642,3.3555,3.345,3.345,3.345,3.345,3.3346,3.3309,3.3309,1.1405,1.264,1.3505,1.416,1.4543,1.4924,1.5393,1.5576,1.6142,1.7382,1.8888,2.0219,2.1336,2.2964,2.4281,2.5156,2.6559,2.6824,2.5329,2.6251,2.6152,2.4696,2.5709,2.6358,2.6483,2.6905,2.7242,2.759,2.7908,2.817,2.843,2.8894,2.9401,2.9917,3.1411,3.1921,3.1781,3.3156,3.4297,3.5297,3.5608,3.6307,3.7237,3.8263,3.8707,3.8658,3.8252,3.7791,3.7266,3.6329,3.5769,3.5283,3.402,3.4464,3.4988,3.3093,3.2817,3.2882,3.1762,3.1029,3.0433,2.956,2.9498,2.9435,2.8546,0.0,2.8287,2.8038,0.0,2.7907,2.7591,0.0,0.0,2.7101,2.8098,2.8726,2.8263,2.9419,3.0424,3.0528,3.218,3.2926,3.1982,3.2084,3.2516,3.3382,3.268,3.2555,3.3346,3.3555,3.3658,3.3694,3.3848,3.4,3.4101,3.4101,3.4151,3.43,3.4201,3.4101,3.4101,3.4,3.3899,3.3694,3.3658,3.3555,3.3503,3.3398,3.3361,3.3309,3.3309,3.3309,3.3309,3.3309,3.3309,3.3309,0.944,1.0811,1.1744,1.2499,1.3373,1.4039,1.4415,1.464,1.5121,1.6062,1.7265,1.8304,1.8896,2.0624,2.2078,2.3101,2.4791,2.5534,2.4838,2.584,2.5795,2.4371,2.5087,2.5581,2.5721,2.6013,2.6427,2.6837,2.7027,2.7351,2.7815,2.817,2.8739,2.9608,3.118,3.2059,3.2346,3.3623,3.4615,3.5462,3.5872,3.6519,3.7327,3.8314,3.8707,3.8658,3.8252,3.7982,3.7756,3.7099,3.6187,3.5363,3.5408,3.4922,3.4202,3.3598,3.3255,3.2817,3.1694,3.1394,3.1161,3.0115,2.9856,2.9594,2.8688,2.8183,2.7789,2.7469,0.0,0.0,0.0,0.0,0.0,0.0,2.7761,2.8112,2.7471,2.8795,2.9911,2.9958,3.0808,3.1417,3.1573,3.166,3.2139,3.324,3.2336,3.221,3.324,3.345,3.3555,3.3607,3.3694,3.3797,3.3848,3.3848,3.3949,3.405,3.3949,3.3899,3.4,3.3848,3.3694,3.3607,3.3503,3.345,3.3398,3.3309,3.3309,3.3309,3.3309,3.3309,3.3309,3.3309,3.3309,3.3309,0.7155,0.8625,0.9912,1.0812,1.1599,1.2293,1.2836,1.357,1.4262,1.4937,1.5926,1.6663,1.7079,1.9312,2.1203,2.2178,2.4649,2.5785,2.4744,2.5952,2.6077,2.4554,2.4838,2.5346,2.5914,2.5627,2.5664,2.607,2.6139,2.6552,2.7297,2.7364,2.8143,2.9407,3.0791,3.1967,3.2982,3.404,3.5014,3.5914,3.6296,3.6844,3.7542,3.8364,3.8707,3.8658,3.8368,3.8186,3.8016,3.7596,3.6606,3.5702,3.6271,3.5391,3.417,3.4235,3.3921,3.3255,3.2018,3.1936,3.1879,3.0673,3.0101,2.9704,2.898,2.8222,2.7656,2.7335,2.7403,0.0,0.0,0.0,2.7082,2.6928,0.0,2.7591,2.6793,2.7983,2.8983,2.8996,2.9296,2.9897,3.1041,3.0852,3.1345,3.2749,3.1814,3.1814,3.324,3.3398,3.345,3.3503,3.3607,3.3658,3.3694,3.3694,3.3745,3.3899,3.3745,3.3745,3.3848,3.371,3.3555,3.345,3.345,3.3398,3.3309,3.3309,3.3309,3.3309,3.3309,3.3309,3.3309,3.3309,3.3309,3.3309,0.4389,0.6279,0.8103,0.8933,0.8671,0.8724,0.996,1.1444,1.2807,1.3806,1.4904,1.5881,1.6785,2.0449,2.3191,2.4143,2.8559,2.9629,2.571,2.7564,2.7733,2.5394,2.5155,2.5926,2.7564,2.5889,2.5087,2.5312,2.5535,2.6025,2.6714,2.6564,2.7604,2.9594,3.0382,3.1741,3.3441,3.4515,3.5771,3.7046,3.7046,3.7361,3.7861,3.8483,3.8707,3.8707,3.8676,3.8433,3.8016,3.7506,3.6996,0.0,0.0,3.564,3.5865,3.475,3.4607,3.451,3.3066,3.2563,3.2164,3.0896,3.004,2.9393,2.8917,2.8091,2.7469,2.7335,2.7268,2.7201,2.6782,2.6714,2.6536,2.6003,2.6304,0.0,0.0,2.6316,2.6658,2.6782,2.763,2.868,2.985,2.9045,2.9406,3.1516,3.072,3.1084,3.3187,3.3293,3.3361,3.3503,3.3503,3.3555,3.3694,3.3694,3.3745,3.3899,3.3745,3.3694,3.3694,3.3555,3.345,3.3309,3.3309,3.3293,3.3309,3.3309,3.3309,3.3309,3.3309,3.3309,3.3309,3.3309,3.3309,3.3309,0.3487,0.4611,0.5877,0.7389,0.7688,0.8027,0.8867,1.0082,1.1607,1.3421,1.5846,1.7985,1.9503,2.2282,2.4517,2.5492,2.7578,2.7889,2.5664,2.6595,2.6786,2.5784,2.4732,2.5121,2.7341,2.5706,2.4981,2.5182,2.5253,2.5734,2.6688,2.6756,2.7484,2.8776,3.0338,3.1882,3.3484,3.4526,3.5753,3.6914,3.6486,3.6742,3.7453,3.7771,3.8029,3.8216,3.8578,3.8627,0.0,3.8281,3.7471,3.6611,3.6681,3.5942,3.5031,3.5065,3.4767,3.4317,0.0,0.0,3.3431,3.2164,3.1444,3.0764,2.9442,2.8546,2.7908,2.7523,2.7255,2.7121,2.7134,2.6714,2.6377,2.6257,2.6258,2.6264,0.0,2.5995,2.6107,2.6521,2.7511,2.8373,2.8743,2.9171,3.0018,3.1516,3.1273,3.1758,3.324,3.3309,3.3309,3.3361,3.3361,3.3398,3.345,3.345,3.345,3.3503,3.345,3.345,3.345,3.3398,3.3346,3.3309,3.3309,3.3309,3.3309,3.3309,3.3309,3.3309,3.3309,3.3309,3.3309,3.3309,3.3309,3.3309,0.2685,0.3312,0.4232,0.6241,0.6833,0.7361,0.8122,0.9087,1.0825,1.3982,1.6335,1.8666,2.1132,2.3385,2.5113,2.6104,2.7683,2.759,2.5226,2.685,2.7523,2.6528,2.594,2.6652,2.8926,2.6917,2.5901,2.6027,2.5857,2.6239,2.7069,2.7258,2.792,2.8853,2.9872,3.1586,3.3681,3.4319,3.5659,3.7269,3.6284,3.6266,3.6823,3.6955,3.729,3.7789,0.0,3.8707,3.8707,3.8707,3.8062,3.7308,3.7614,3.6698,3.5569,3.5856,3.5459,3.4891,3.4607,3.4607,0.0,3.3244,3.26,0.0,3.0393,2.951,2.8757,2.796,2.7643,2.7443,2.7335,2.6782,2.644,2.6496,2.6327,2.6201,0.0,2.6107,2.6037,2.6465,2.6934,2.7551,2.8128,2.8566,2.9406,3.0968,3.1084,3.1573,3.2765,3.3134,3.3309,3.3309,3.3309,3.3309,3.3309,3.3309,3.3309,3.3309,3.3309,3.3309,3.3309,3.3309,3.3309,3.3309,3.3309,3.3309,3.3309,3.3309,3.3309,3.3309,3.3309,3.3309,3.3309,3.3309,3.3309,3.3309,0.197,0.2418,0.3243,0.5415,0.5991,0.6538,0.7775,0.8372,1.0428,1.5197,1.6274,1.8136,2.1829,2.3908,2.5397,2.6331,2.8889,2.8688,2.4685,2.8261,2.9608,2.7629,2.8567,3.0118,3.2199,2.9247,2.7706,2.7706,2.7288,2.7326,2.767,2.7984,2.8707,2.9685,2.9044,3.0703,3.3922,3.3843,3.5446,3.7915,3.6464,3.595,3.6052,3.6153,3.6628,3.7435,3.8346,3.8707,3.8707,3.8707,3.8676,3.8596,3.8219,3.7809,3.7395,3.7017,3.6597,3.6139,3.5352,3.5153,3.4951,3.4154,3.3355,0.0,0.0,0.0,2.9949,2.8721,2.8454,2.8195,2.751,2.704,2.6714,2.6658,2.6396,2.627,2.6465,2.6465,2.6452,2.6533,2.5968,2.6252,2.7933,2.7271,2.7683,2.9929,3.011,3.0675,3.1875,3.2765,3.324,3.3309,3.3309,3.3309,3.3309,3.3309,3.3309,3.3309,3.3309,3.3309,3.3309,3.3309,3.3309,3.3309,3.3309,3.3309,3.3309,3.3309,3.3309,3.3309,3.3309,3.3309,3.3309,3.3309,3.3309,3.3309,-0.0358,0.1431,0.296,0.3607,0.4499,0.5541,0.6849,0.7682,1.0329,1.612,1.8346,2.1334,2.6543,2.7668,2.8325,2.9214,2.9195,2.84,2.6771,2.7656,2.8685,2.9769,2.8904,2.9643,3.2369,2.9608,2.8082,2.7889,2.7683,2.7498,2.7351,2.8128,2.8465,2.8352,2.8675,2.9783,3.1409,3.2006,3.3534,3.5488,3.5304,3.5355,3.5598,0.0,3.6953,3.7271,3.8183,3.8496,3.8559,3.8559,3.8415,3.8252,3.8135,3.7614,3.7055,3.6939,3.6597,3.6241,3.6054,3.5994,3.5759,3.4858,3.4477,3.3974,0.0,0.0,0.0,0.0,0.0,0.0,0.0,2.7969,2.7152,2.6452,2.627,2.627,2.6465,2.5955,2.5816,2.6452,2.5816,2.5791,2.6824,2.7219,2.8074,2.9836,3.0214,3.1071,3.2834,3.2532,3.2586,3.3309,3.3309,3.3309,3.3309,3.3309,3.3309,3.3309,3.3309,3.3309,3.3309,3.3309,3.3309,3.3309,3.3309,3.3309,3.3309,3.3309,3.3309,3.3309,3.3309,3.3309,3.3309,3.3309,3.3309,3.3309,-0.1431,0.0984,0.2695,0.272,0.5204,0.7394,0.8098,0.8099,1.0268,1.6595,1.9451,2.2503,2.664,2.8673,2.9774,3.0025,2.9624,2.8911,2.7564,2.8795,2.9892,3.0654,3.0557,3.1485,3.3725,3.1652,3.0338,2.9878,2.9966,2.9274,2.7947,2.9261,2.9462,2.8776,2.8917,2.984,3.1293,3.2851,3.3923,3.4697,3.5505,3.5872,0.0,3.6724,3.7232,3.7632,3.8153,3.8368,3.8446,3.8446,3.835,3.8219,3.8068,3.7632,3.7094,3.6939,3.6597,3.6301,3.6301,3.6301,3.6156,3.5654,3.5504,3.5182,3.3941,3.3643,3.3393,0.0,3.1668,3.0949,0.0,0.0,2.7538,2.6396,2.6213,2.627,2.6339,2.5898,2.5746,2.6176,2.5594,2.537,2.5804,2.6637,2.7775,2.9108,2.942,3.0033,3.123,3.1603,3.2043,3.2656,3.2711,3.2888,3.3309,3.2888,3.2888,3.3309,3.3309,3.3309,3.3309,3.3309,3.3309,3.3309,3.3309,3.3309,3.3309,3.3309,3.3309,3.3309,3.3309,3.3309,3.3309,3.3309,3.3309,3.3309,-0.1973,0.0449,0.2173,0.2403,0.6533,0.9899,1.0399,0.9625,1.1135,1.7287,2.0279,2.2798,2.5059,2.8208,2.9929,2.9523,3.0037,2.9633,2.798,3.0543,3.1825,3.1069,3.2578,3.4018,3.5333,3.4072,3.2997,3.2222,3.2735,3.1591,2.8903,3.0556,3.0852,2.9983,2.9345,3.0141,3.2152,3.4346,3.5036,3.4743,3.622,3.6745,3.6689,3.6991,3.7542,3.8192,3.8192,3.8289,3.8401,3.8401,3.835,3.8318,3.8086,3.7685,3.7264,3.6978,3.6597,3.6301,3.6301,3.6301,3.6301,3.6301,3.6301,3.6097,3.5261,3.509,3.4714,3.3444,3.2735,3.2214,0.0,0.0,2.7828,2.6645,2.6452,2.6521,2.6633,2.6483,2.6346,2.6233,2.5709,0.0,2.5075,2.5861,2.6921,2.8023,2.8036,2.8309,2.8919,0.0,3.1562,3.2181,3.2104,3.2453,3.326,3.2453,3.2407,3.3134,3.324,3.3309,3.3309,3.3309,3.3309,3.3309,3.3309,3.3309,3.3309,3.3309,3.3309,3.3309,3.3309,3.3309,3.3309,3.3309,3.3309,3.3309,-0.3381,-0.1102,0.0648,0.151,0.5112,0.8905,1.2156,1.3762,1.6159,2.0483,2.213,2.4283,2.7714,2.8249,2.8679,2.9456,2.9481,2.9594,2.9827,3.0524,3.1492,3.2694,3.2879,3.3665,3.5224,3.4056,3.2954,3.1842,3.2641,3.1753,2.931,3.0259,3.0483,3.0036,2.8349,2.8886,3.1054,3.2198,3.3433,3.4697,3.5904,3.6479,3.6632,3.7632,3.8088,3.8192,3.8192,3.8241,3.834,3.834,3.8204,3.8052,3.8018,3.7523,3.6978,3.69,3.6597,3.6301,3.6301,3.6301,3.6301,3.6301,3.6301,3.6259,3.6097,3.6054,3.5994,3.5708,3.529,3.4525,3.3054,0.0,2.8128,2.788,2.7815,2.8193,2.9108,2.908,2.8639,2.7867,2.7433,2.6629,2.5358,2.5146,2.5426,2.6447,2.6096,2.7128,3.0189,0.0,3.097,0.0,3.3347,3.303,0.0,0.0,3.2765,3.217,3.2942,3.3309,3.3309,3.3309,3.3309,3.3309,3.3309,3.3309,3.3309,3.3309,3.3309,3.3309,3.3309,3.3309,3.3309,3.3309,3.3309,3.3309,-0.4051,-0.1675,0.0846,0.333,0.8106,1.2456,1.5068,1.7683,1.9713,2.0631,2.1883,2.3505,2.5611,2.7199,2.8391,2.8996,2.9491,2.9931,3.0251,3.0851,3.1807,3.323,3.3055,3.3735,3.5509,3.4795,3.404,3.3297,3.3411,3.2261,3.0004,3.0199,3.0033,2.9681,2.952,3.0176,3.1506,3.3187,3.4442,3.5437,3.677,3.7325,3.7434,3.7984,3.8192,3.8192,3.8192,3.8106,3.8002,3.8002,3.7915,3.781,3.7468,3.715,3.6799,3.6638,3.6451,3.6301,3.6301,3.6301,3.6301,3.6301,3.6301,3.6301,3.6301,3.6301,3.6301,3.6301,3.5941,3.5015,3.3034,3.0934,0.0,0.0,2.8488,2.8474,2.9563,2.9596,2.9274,2.8801,2.8099,2.7128,2.6002,2.5028,2.4755,2.5599,2.5475,2.6701,2.9924,0.0,3.1362,0.0,0.0,0.0,3.4177,0.0,3.3098,3.3153,3.3222,3.3309,3.3309,3.3309,3.3309,3.3309,3.3309,3.3309,3.3309,3.3309,3.3309,3.3309,3.3309,3.3309,3.3309,3.3309,3.3309,3.3309,-0.3417,-0.1595,0.1235,0.5916,1.1371,1.5562,1.6985,2.0149,2.1891,2.0685,2.1868,2.3067,2.3877,2.6439,2.8273,2.8576,2.9637,3.0312,3.0312,3.1263,3.2327,3.3335,3.3198,3.3971,3.5732,3.5436,3.5048,3.4584,3.4105,3.2856,3.0837,3.0199,2.9667,2.9434,3.0994,3.1982,0.0,0.0,3.5752,3.6249,3.7434,3.7898,3.7933,3.802,3.7985,3.7951,3.8054,3.7863,3.7559,3.7504,3.7504,3.7431,3.6935,3.6736,3.6615,3.6385,3.6301,3.6301,3.6301,3.6301,3.6301,3.6301,3.6301,3.6301,3.6301,3.6301,3.6301,3.6301,3.5941,3.4968,3.284,3.1612,0.0,0.0,0.0,2.899,2.9915,3.0127,3.0053,2.9811,2.876,2.7748,2.6958,2.5238,2.4492,2.5322,2.5322,2.6471,2.9224,0.0,0.0,0.0,0.0,3.4163,3.4891,0.0,3.3645,3.3983,3.3698,3.3435,3.3309,3.3309,3.3309,3.3309,3.3309,3.3309,3.3309,3.3309,3.3309,3.3309,3.3309,3.3309,3.3309,3.3309,3.3309,3.3309,-0.0741,-0.0755,0.0855,0.7994,1.1538,1.4012,1.6096,1.9475,2.2158,2.3203,2.3879,2.4891,2.6551,2.7039,2.7618,2.8498,2.9637,3.0312,3.0312,3.1595,3.2602,3.3177,3.3459,3.4087,3.5253,3.5345,3.4875,3.3892,3.4137,3.3355,0.0,3.0409,2.9736,2.9597,0.0,0.0,0.0,3.4908,3.5839,3.6671,3.6921,3.7017,3.7055,3.7432,3.7321,3.7111,3.7577,3.7468,3.7129,3.6935,3.6895,3.6856,3.6816,3.6574,3.6343,3.6301,3.6301,3.6301,3.6301,3.6301,3.6301,3.6301,3.6301,3.6301,3.6301,3.6301,3.6301,3.6301,3.5941,3.5061,3.3326,3.2529,3.1647,0.0,0.0,3.1273,3.1387,3.2305,3.2555,3.1516,3.0216,2.9184,2.8524,2.5721,2.4434,2.5684,2.5465,2.6395,2.8862,0.0,0.0,3.433,3.3833,3.3496,3.3296,3.4539,3.4457,3.3062,3.381,3.3878,3.3309,3.3309,3.3309,3.3309,3.3309,3.3309,3.3309,3.3309,3.3309,3.3309,3.3309,3.3309,3.3309,3.3309,3.3309,3.3309,0.1559,0.2323,0.4576,1.0606,1.296,1.5048,1.8341,2.0135,2.1565,2.2564,2.3466,2.468,2.6499,2.6577,2.7041,2.8314,2.9373,3.0007,3.0007,3.1392,3.2516,3.3161,3.3547,3.4202,3.5316,3.5195,3.5021,3.4875,3.3371,3.26,3.254,3.1023,0.0,0.0,0.0,3.4038,3.471,3.5581,3.6212,3.6591,3.6746,3.6803,3.6803,3.7038,3.7055,3.6939,3.7132,3.6995,3.6678,3.6696,3.6736,3.6776,3.6574,3.6426,3.6301,3.6301,3.6301,3.6301,3.6301,3.6301,3.6301,3.6301,3.6301,3.6301,3.6301,3.6301,3.6301,3.6301,3.5941,3.5311,3.43,3.3133,3.2245,3.1998,0.0,3.183,3.2501,3.2996,3.2873,3.1758,3.0543,2.961,2.9307,2.6362,2.485,2.544,2.4753,2.5637,2.8736,0.0,0.0,3.3864,0.0,3.5493,3.454,3.5486,3.5666,3.4992,3.4518,3.4146,3.3878,3.3482,3.3309,3.3309,3.3309,3.3309,3.3309,3.3309,3.3309,3.3309,3.3309,3.3309,3.3309,3.3309,3.3309,3.3309,0.3901,0.542,0.7931,1.3215,1.4818,1.6436,1.9656,2.0628,2.1234,2.1873,2.309,2.4522,2.6025,2.6333,2.6934,2.843,2.9373,2.9917,3.0115,3.1592,3.2718,3.3251,3.3818,3.448,3.5241,3.5024,3.5118,3.5532,3.3351,3.2692,0.0,0.0,0.0,0.0,3.4308,3.4843,3.5307,3.5968,3.6172,3.6113,3.6215,3.6316,3.6357,3.658,3.662,3.6539,3.6661,3.6516,3.6241,3.6326,3.6468,3.6591,3.6385,3.6301,3.6301,3.6301,3.6301,3.6301,3.6301,3.6301,3.6301,3.6301,3.6301,3.6301,3.6301,3.6301,3.6301,3.6301,3.5941,3.5436,3.4927,3.3705,3.2808,3.2788,0.0,0.0,3.2749,3.3118,3.2873,3.163,3.0498,2.9883,3.0096,2.7301,2.597,2.7007,2.6019,2.6445,0.0,0.0,0.0,0.0,0.0,0.0,3.5522,3.6286,3.6627,3.6421,3.5394,3.4699,3.4273,3.3609,3.3309,3.3309,3.3309,3.3309,3.3309,3.3309,3.3309,3.3309,3.3309,3.3309,3.3309,3.3309,3.3309,3.3309,0.6579,0.7771,0.9795,1.5726,1.6947,1.7572,1.9083,2.0547,2.1471,2.1471,2.339,2.4992,2.5755,2.6526,2.7577,2.8972,2.967,3.0269,3.097,3.2501,3.3387,3.3387,3.4366,3.4899,3.4899,3.4899,3.5071,3.5424,3.4495,0.0,3.4468,0.0,3.386,3.4402,3.4923,3.5346,3.5616,3.5766,3.5515,3.5135,3.5245,3.54,3.5566,3.5958,3.5898,3.5667,3.6131,3.6105,3.5817,3.5817,3.5993,3.6208,3.6259,3.6301,3.6301,3.6301,3.6301,3.6301,3.6301,3.6301,3.6301,3.6301,3.6301,3.6301,3.6301,3.6301,3.6301,3.6301,3.5941,3.5436,3.4927,3.4415,3.3527,3.187,0.0,0.0,3.1758,3.261,3.2803,3.1444,3.0276,3.0036,3.12,2.8515,2.8025,3.1183,3.0038,2.9251,0.0,0.0,0.0,3.5364,3.5522,0.0,3.5522,3.6829,3.7117,3.6421,3.6406,3.5663,3.4273,3.3609,3.3309,3.3309,3.3309,3.3309,3.3309,3.3309,3.3309,3.3309,3.3309,3.3309,3.3309,3.3309,3.3309,3.3309,0.838,0.9652,1.1489,1.5336,1.624,1.698,1.8772,2.0226,2.1288,2.1941,2.3806,2.537,2.6126,2.6564,2.7364,2.8739,2.9345,2.995,3.0644,3.2305,3.3251,3.3251,3.4317,3.4899,3.4899,3.4899,3.5071,3.5424,0.0,0.0,0.0,3.4877,3.5307,3.6077,3.5647,3.5537,3.5571,3.5287,3.5118,3.4994,3.5105,3.5198,3.5245,3.5549,3.5594,3.5566,3.5701,3.5728,3.5667,3.5667,3.5756,3.5949,3.6062,3.6174,3.6301,3.6301,3.6301,3.6301,3.6233,3.6251,3.6251,3.6251,3.6251,3.6233,3.6301,3.6071,3.5793,3.5793,3.5161,3.4513,3.4366,3.3899,3.3382,3.2857,3.3049,0.0,3.2803,3.2376,3.1702,3.0498,2.9344,2.9094,3.0259,2.8611,2.8143,2.9614,2.8847,0.0,0.0,0.0,0.0,0.0,3.5932,0.0,3.5522,3.6845,3.737,3.7133,3.6658,3.5679,3.4273,3.4067,3.3719,3.3309,3.3309,3.3309,3.3309,3.3309,3.3309,3.3309,3.3309,3.3309,3.3309,3.3309,3.3593,3.3972,0.9144,1.0183,1.1712,1.5108,1.5786,1.6609,1.8674,1.9991,2.1058,2.179,2.3879,2.5453,2.5931,2.6564,0.0,2.8967,2.9331,2.9889,3.0837,3.2321,3.3182,3.3182,3.4301,3.4899,3.4899,3.4899,0.0,3.5424,3.4841,3.4818,3.5338,3.564,3.6002,3.6399,3.582,3.5498,3.5316,3.5024,3.4899,3.4899,3.4994,3.5058,3.5105,3.5291,3.54,3.5446,3.5354,3.5429,3.5549,3.5503,3.5639,3.5817,3.5905,3.6062,3.6191,3.6191,3.6191,3.6191,3.6122,3.6122,3.6122,3.6122,3.6036,3.5888,3.5688,3.5448,3.522,3.522,3.4642,3.4101,3.4101,3.3658,3.3309,3.3309,3.3309,3.3118,3.261,3.1998,3.1142,2.9807,2.908,0.0,0.0,2.9685,2.9783,3.1209,3.094,0.0,0.0,0.0,0.0,3.5026,3.6646,3.7118,3.6276,3.7058,3.748,3.7464,3.6753,3.5963,3.5078,3.4525,3.4067,3.3656,3.3419,3.3309,3.3309,3.3309,3.3309,3.3309,3.3309,3.3451,3.3672,3.3672,3.4115,3.4699,0.9056,0.957,1.0833,0.0,1.5644,0.0,1.8594,1.9915,2.0824,2.1217,2.357,2.5192,2.5332,2.6587,2.7919,2.9324,0.0,0.0,3.1409,3.2571,3.3182,3.3182,3.4301,3.4899,3.4899,3.4899,3.5071,3.5424,3.5837,3.6097,3.6097,3.6105,3.5933,3.5616,3.5588,3.5316,3.4899,3.4899,3.4899,3.4899,3.4899,3.4994,3.5105,3.5105,3.5198,3.5245,3.5135,3.5245,3.5446,3.5337,3.552,3.5773,3.5773,3.5844,3.5975,3.5975,3.6019,3.5975,3.5932,3.5932,3.5915,3.5871,3.5605,3.5207,3.4688,3.4576,3.4528,3.4528,3.4251,3.405,3.405,3.3642,3.3309,3.3309,3.324,3.2749,3.1501,3.1387,3.0939,2.9492,0.0,0.0,3.12,3.1315,3.2418,0.0,3.525,0.0,0.0,0.0,3.383,3.7405,3.748,3.748,3.748,3.748,3.748,3.7464,3.6742,3.6411,3.6374,3.4991,3.436,3.4336,3.3656,3.3372,3.3372,3.3324,3.3324,3.3372,3.3372,3.3783,3.4367,3.4367,3.4841,3.5458,0.0,0.0,1.0248,1.4335,1.4809,1.5506,1.7939,1.8985,2.0119,2.1952,2.3155,2.4329,2.5562,2.5961,2.6943,2.8741,2.9251,3.0072,3.1409,3.2571,3.3182,3.3182,3.4301,3.4899,3.4899,3.4899,3.5071,3.5424,3.5793,3.5994,3.6097,3.5749,3.5571,3.5571,3.5241,3.4977,3.4899,3.4899,3.4899,3.4899,3.4899,3.4899,3.4947,3.5041,3.5105,3.5152,3.5088,3.5198,3.5337,3.5291,3.5429,3.5566,3.5639,3.5667,3.5756,3.5932,3.6019,3.5888,3.5362,3.527,3.5161,3.4736,3.4624,3.4592,3.4479,3.4202,3.3969,3.3836,3.3646,3.345,3.3361,3.3309,3.3309,3.3309,3.2431,3.1687,3.1315,3.0587,2.9915,0.0,2.9685,3.0259,3.1387,3.1516,3.2116,0.0,0.0,3.4273,3.567,3.4951,3.5383,3.7464,3.748,3.748,3.748,3.748,3.748,3.748,3.672,3.6422,3.6348,3.5506,3.5143,3.5094,3.4367,3.4051,3.402,3.3514,3.3593,3.4051,3.4051,3.4494,3.5126,3.5126,3.5568,3.6184,0.8365,0.8699,0.9858,1.378,1.4374,1.5111,1.7737,1.8618,1.9663,2.1611,2.2717,2.3755,2.4975,2.5434,2.6352,2.7991,2.8759,2.9786,3.1394,3.2571,3.3182,3.3182,3.4301,3.4899,3.4899,3.4899,3.4977,3.5148,3.5362,3.5481,3.5543,3.5287,3.5195,3.5287,3.5024,3.4899,3.4899,3.4899,3.4899,3.4899,3.4899,3.4899,3.4899,3.4994,3.4994,3.4994,3.4994,3.5088,3.5198,3.5291,3.54,3.5537,3.5594,3.5424,3.527,3.5407,3.5453,3.5345,3.5021,3.4721,3.4431,3.3986,3.3869,3.3786,3.3598,3.3423,3.323,3.3161,3.3156,3.3203,3.3096,3.3203,3.3309,3.3309,3.218,3.1315,3.1315,3.0335,2.9779,3.0321,3.0528,3.1099,3.225,3.2638,3.3183,3.4081,3.445,0.0,3.6199,3.6245,3.6615,3.748,3.748,3.748,3.748,3.748,3.7345,3.7029,3.6952,3.675,3.6375,3.5689,3.5602,3.5821,3.4783,3.4469,3.4762,3.4399,3.4462,3.4794,3.4794,3.5221,3.5868,3.5868,3.6311,3.6911,0.791,0.829,0.947,1.3386,1.3994,1.4881,1.7548,1.8429,1.9258,2.0781,2.2105,2.3197,2.3876,2.4735,2.5871,2.7232,2.7984,2.9199,3.1215,3.2509,3.3182,3.3182,3.4301,3.4899,3.4899,3.4899,3.4899,3.4899,3.4899,3.4899,3.4899,3.4899,3.4899,3.4899,3.4899,3.4899,3.4899,3.4899,3.4899,3.4899,3.4899,3.4899,3.4899,3.4899,3.4851,3.4804,3.4804,3.4835,3.4899,3.5041,3.5135,3.5291,3.535,3.5021,3.4673,3.4673,3.4625,3.4577,3.4577,3.4169,3.3681,3.3435,3.3193,3.3002,3.2617,3.2578,3.2578,3.2578,3.2827,3.3058,3.3058,3.315,3.3187,3.2911,3.1799,3.0939,3.0924,0.0,2.9947,3.1155,3.1615,3.225,3.3187,3.3909,3.4604,3.5331,3.6026,3.6738,3.7433,3.748,3.748,3.748,3.748,3.748,3.748,3.7405,3.7013,3.643,3.6815,3.6754,3.6228,3.5646,3.5765,3.6342,3.514,3.4961,3.5537,3.5426,3.5458,3.5552,3.5552,3.5979,3.6595,3.6595,3.6959,3.748,0.791,0.8108,0.9178,1.2995,1.3479,1.4244,1.7064,1.7571,1.8301,2.0161,2.116,2.2001,2.2726,2.3498,2.4649,2.6406,2.6761,2.7983,3.047,3.223,3.3182,3.3182,3.4301,3.4899,3.4899,3.4899,3.4899,3.4899,3.4899,3.4899,3.4899,3.4899,3.4899,3.4899,3.4899,3.4899,3.4899,3.4899,3.4899,3.4899,3.4899,3.4899,3.4899,3.4899,3.4691,3.4399,3.4399,3.4201,3.3949,3.405,3.4151,3.4134,3.4251,3.4185,3.4119,3.4119,3.3802,3.3443,3.3443,3.3055,3.2656,3.2547,3.2563,3.2492,3.2453,3.2523,3.2578,3.2453,3.2703,3.2951,3.2951,3.2951,3.2532,3.1297,3.0009,2.9156,2.91,0.0,2.9647,3.1113,3.2305,3.3118,3.3293,3.3909,3.4604,3.5331,3.6026,3.6738,3.7433,3.748,3.748,3.748,3.748,3.748,3.748,3.6892,3.6492,3.6368,3.5305,3.5044,3.5529,3.5424,3.5761,3.6369,3.6182,3.6132,3.6216,3.5631,3.5742,3.6263,3.6263,3.669,3.7322,3.7322,3.7385,3.748,0.7636,0.796,0.8817,1.1878,1.2742,1.3723,1.586,1.6872,1.7969,1.9552,2.0602,2.1502,2.2224,2.3005,2.4119,2.5615,2.623,2.7428,2.9578,3.1573,3.2803,3.3166,3.4301,3.4899,3.4899,3.4899,3.4899,3.4899,3.4899,3.4899,3.4899,3.4899,3.4899,3.4899,3.4899,3.4899,3.4899,3.4899,3.4899,3.4899,3.4899,3.4787,3.4594,3.4594,3.4349,3.4,3.4,3.3848,3.3694,3.3848,3.3899,3.3882,3.4002,3.3818,3.3563,3.3563,3.3391,3.3145,3.2841,3.2602,3.2398,3.2398,3.2398,3.2398,3.2398,3.2453,3.2453,3.2398,3.2578,3.2718,3.2718,3.2843,3.2437,3.0967,3.0306,0.0,0.0,3.0069,3.0661,3.218,3.2926,3.3309,3.3309,3.4273,3.5015,3.5363,3.639,3.7133,3.7464,3.748,3.748,3.748,3.748,3.7285,3.6892,3.6569,3.6039,3.524,3.4978,3.4846,3.4795,3.4795,3.519,3.5834,3.5437,3.5691,3.6393,3.6066,3.6381,3.699,3.699,3.7196,3.748,3.748,3.748,3.748,0.7561,0.7783,0.8537,1.0956,1.2211,1.3361,1.4863,1.6367,1.7774,1.8834,2.0215,2.1313,2.1803,2.275,2.3793,2.4851,2.5656,2.6807,2.8487,3.0547,3.2076,3.2886,3.4102,3.4787,3.4899,3.4899,3.4899,3.4899,3.4899,3.4899,3.4899,3.4899,3.4899,3.4899,3.4899,3.4899,3.4899,3.4804,3.4739,3.4739,3.4643,3.4448,3.4151,3.4151,3.3899,3.3539,3.3539,3.3487,3.3419,3.3523,3.3575,3.3575,3.363,3.3355,3.2986,3.2986,3.2986,3.2933,3.2492,3.2398,3.2398,3.2398,3.2398,3.2398,3.2398,3.2398,3.2398,3.2398,3.2453,3.2578,3.2578,3.2703,3.2312,3.0939,0.0,0.0,0.0,3.0982,3.1615,3.3118,3.3309,3.3309,3.3309,3.4573,3.5394,3.5394,3.669,3.748,3.748,3.748,3.748,3.748,3.7345,3.6892,3.6165,3.5976,3.537,3.4312,3.4728,3.461,3.4056,3.4245,3.4581,3.5124,3.4714,3.5175,3.6165,3.6368,3.6754,3.727,3.7405,3.748,3.748,3.748,3.748,3.748,0.7561,0.7783,0.8537,1.0956,1.2063,1.3142,1.4649,1.6228,1.7432,1.8037,1.9879,2.1123,2.1187,2.2322,2.3424,2.4118,2.4892,2.5841,2.7073,2.9053,3.0769,3.2124,3.3439,3.4399,3.4899,3.4899,3.4899,3.4899,3.4899,3.4899,3.4899,3.4899,3.4899,3.4899,3.4899,3.4899,3.4899,3.4497,3.4349,3.43,3.3949,3.3745,3.3745,3.3745,3.3487,3.3033,3.3033,3.2819,3.2508,3.2508,3.2492,3.2492,3.2508,3.2492,3.2437,3.2437,3.2437,3.2437,3.2382,3.2398,3.2398,3.2398,3.2398,3.2398,3.2398,3.2398,3.2398,3.2398,3.2398,3.2453,3.2578,3.2523,3.1987,3.0588,0.0,0.0,3.0514,3.0734,3.1429,3.3118,3.3309,3.3309,3.3309,3.4573,3.5394,3.5394,3.669,3.748,3.748,3.748,3.748,3.748,3.6831,3.618,3.5464,3.478,3.4365,3.4312,3.377,3.3452,3.3382,3.4002,3.4312,3.4447,3.5059,3.54,3.5529,3.6165,3.643,3.6554,3.721,3.748,3.748,3.748,3.748,3.748,0.7099,0.7625,0.8385,0.9674,1.1385,1.2785,1.3361,1.5579,1.7285,1.7609,1.941,2.0805,2.1262,2.2087,2.3065,2.4002,2.435,2.5208,2.6779,2.7966,2.9822,3.2548,3.3459,3.4052,3.4399,3.4756,3.4899,3.4899,3.4899,3.4899,3.4899,3.4899,3.4899,3.4899,3.4899,3.4707,3.4399,3.425,3.4034,3.3713,3.3559,3.3403,3.3261,3.3261,3.2996,3.2617,3.2617,3.2563,3.2398,3.2398,3.2398,3.2398,3.2398,3.2398,3.2398,3.2398,3.2398,3.2398,3.2398,3.2398,3.2398,3.2398,3.2398,3.2398,3.2398,3.2398,3.2398,3.2398,3.2398,3.2398,3.2453,3.2453,3.1931,3.0573,0.0,3.1417,3.0676,3.1459,3.2367,3.3081,3.3256,3.3467,3.3878,3.481,3.5568,3.5995,3.6927,3.748,3.748,3.748,3.7089,3.6243,3.5913,3.5657,3.54,3.4647,3.4056,3.3687,3.3437,3.3326,3.3326,3.3563,3.3687,3.3687,3.3962,3.4341,3.4714,3.4963,3.537,3.5785,3.6117,3.643,3.6831,3.6831,3.7089,3.748,0.6791,0.7548,0.8313,0.8922,1.0938,1.2505,1.2505,1.5138,1.7129,1.7257,1.9145,2.0688,2.1325,2.1975,2.2775,2.3708,2.3956,2.474,2.6161,2.7371,2.9459,3.2439,3.3235,3.3716,3.4018,3.4431,3.4739,3.4899,3.4739,3.4739,3.4899,3.4899,3.4787,3.4643,3.4643,3.4333,3.3815,3.3662,3.3455,3.3124,3.3018,3.2873,3.2672,3.2672,3.2563,3.2342,3.2342,3.2342,3.2398,3.2398,3.2398,3.2398,3.2398,3.2398,3.2398,3.2398,3.2398,3.2398,3.2398,3.2398,3.2398,3.2398,3.2398,3.2398,3.2398,3.2398,3.2398,3.2398,3.2398,3.2398,3.2398,3.2398,3.2074,3.1187,3.1819,3.213,3.1345,3.213,3.2897,3.3112,3.3203,3.3508,3.4225,3.4968,3.5679,3.6374,3.7069,3.748,3.748,3.7285,3.6693,3.5721,3.5255,3.5059,3.5059,3.4327,3.3756,3.3326,3.3326,3.3326,3.3326,3.3326,3.3326,3.3326,3.3326,3.3563,3.4002,3.4177,3.4581,3.5059,3.5335,3.5657,3.6117,3.6117,3.643,3.6831,0.671,0.7548,0.8313,0.8922,1.0801,1.2305,1.2305,1.5059,1.7101,1.7101,1.9135,2.0764,2.1325,2.1963,2.2592,2.3078,2.3721,2.435,2.4964,2.7315,2.9616,3.1618,3.2501,3.3235,3.3786,3.4018,3.4349,3.4899,3.4349,3.4349,3.4899,3.4899,3.4594,3.4101,3.4101,3.3764,3.3198,3.2803,3.2602,3.2547,3.2135,3.1996,3.1996,3.1996,3.2094,3.2191,3.2191,3.2287,3.2398,3.2398,3.2398,3.2398,3.2398,3.2398,3.2398,3.2398,3.2398,3.2398,3.2398,3.2398,3.2398,3.2398,3.2398,3.2398,3.2398,3.2398,3.2398,3.2398,3.2398,3.2398,3.2398,3.2398,3.2398,3.2398,3.2398,3.2453,3.2578,3.2594,3.2703,3.3043,3.3096,3.3417,3.4241,3.4968,3.5679,3.6374,3.7085,3.748,3.748,3.6815,3.6368,3.6368,3.5044,3.4312,3.4312,3.3632,3.3326,3.3326,3.3326,3.3326,3.3326,3.3326,3.3326,3.3326,3.3326,3.3326,3.3382,3.4002,3.4312,3.438,3.5124,3.54,3.54,3.54,3.54,3.54,0.5948,0.7165,0.8161,0.8313,1.0571,1.2305,1.2305,1.4522,1.6437,1.7033,1.8267,1.9694,2.1262,2.1639,2.2199,2.3017,2.3245,2.4053,2.5548,2.7556,2.9157,3.0191,3.1423,3.2226,3.2594,3.3093,3.3475,3.3716,3.3968,3.3968,3.3716,3.4118,3.4018,3.3475,3.3475,3.3161,3.2641,3.2492,3.2287,3.2053,3.1898,3.1898,3.1996,3.1996,3.2038,3.2038,3.2038,3.215,3.2247,3.2247,3.2342,3.2398,3.2398,3.2398,3.2398,3.2398,3.2398,3.2398,3.2398,3.2398,3.2398,3.2398,3.2398,3.2398,3.2398,3.2398,3.2398,3.2398,3.2398,3.2398,3.2398,3.2398,3.2398,3.2398,3.2398,3.2398,3.2453,3.2523,3.2648,3.2757,3.2881,3.3459,3.4785,3.51,3.577,3.7085,3.737,3.7285,3.6754,3.6492,3.5976,3.4978,3.4514,3.4056,3.3632,3.3382,3.3326,3.3326,3.3326,3.3326,3.3326,3.3326,3.3326,3.3326,3.3326,3.3326,3.3326,3.3507,3.3632,3.3632,3.3839,3.4206,3.4647,3.4647,3.4993,3.54,0.5562,0.6861,0.8008,0.808,1.0415,1.2305,1.2305,1.4314,1.6158,1.6964,1.7939,1.9166,2.088,2.1313,2.1877,2.2775,2.3245,2.3968,2.5119,2.6932,2.8211,2.8857,3.0176,3.1195,3.1905,3.2391,3.2826,3.3145,3.3335,3.3335,3.3198,3.3578,3.3439,3.2895,3.2895,3.2586,3.2064,3.2064,3.1925,3.167,3.167,3.1712,3.1826,3.1826,3.1826,3.194,3.194,3.1996,3.215,3.2191,3.2302,3.2398,3.2398,3.2398,3.2398,3.2398,3.2398,3.2398,3.2398,3.2398,3.2398,3.2398,3.2398,3.2398,3.2398,3.2398,3.2398,3.2398,3.2398,3.2398,3.2398,3.2398,3.2398,3.2398,3.2398,3.2398,3.2398,3.2453,3.2523,3.2578,3.2718,3.3372,3.4914,3.5169,3.5865,3.737,3.748,3.715,3.643,3.6165,3.5514,3.4312,3.4056,3.3687,3.3312,3.3326,3.3326,3.3326,3.3326,3.3326,3.3326,3.3326,3.3326,3.3326,3.3326,3.3326,3.3326,3.3326,3.3326,3.3326,3.3326,3.3577,3.3865,3.3865,3.4221,3.4558,0.5559,0.6788,0.7859,0.808,1.034,1.2231,1.2298,1.4299,1.607,1.6973,1.7872,1.8967,2.0442,2.1071,2.1714,2.2359,2.3424,2.4131,2.4131,2.5794,2.7102,2.775,2.8986,3.025,3.1549,3.1849,3.2296,3.2841,3.2532,3.2586,3.3039,3.3093,3.2841,3.2342,3.2342,3.2007,3.1482,3.1482,3.1482,3.1482,3.1482,3.1482,3.1482,3.1482,3.1597,3.1784,3.1784,3.1841,3.1981,3.2135,3.2302,3.2398,3.2398,3.2398,3.2398,3.2398,3.2398,3.2398,3.2327,3.2342,3.2398,3.2327,3.2342,3.2327,3.2398,3.2398,3.2398,3.2398,3.2398,3.2398,3.2398,3.2398,3.2398,3.2398,3.2398,3.2398,3.2398,3.2398,3.2453,3.2578,3.264,3.3237,3.4654,3.5034,3.5801,3.7385,3.7405,3.7013,3.6368,3.5657,3.4993,3.4245,3.3632,3.3326,3.3326,3.3326,3.3326,3.3326,3.3326,3.3326,3.3326,3.3326,3.3326,3.3326,3.3326,3.3326,3.3326,3.3326,3.3326,3.3326,3.3326,3.3326,3.3326,3.3326,3.3326,3.3326,0.5559,0.6788,0.7859,0.808,0.9895,1.1558,1.2224,1.331,1.4736,1.6715,1.7335,1.8345,2.0226,2.1123,2.1765,2.2359,2.3424,2.4131,2.4131,2.5794,2.7102,2.775,2.8986,2.9973,3.0837,3.097,3.1263,3.1652,3.1977,3.2033,3.1894,3.2382,3.2272,3.1697,3.1697,3.164,3.1482,3.1482,3.1482,3.1482,3.1482,3.1482,3.1482,3.1482,3.1539,3.1597,3.1597,3.1655,3.1898,3.215,3.2247,3.2247,3.2342,3.2398,3.2398,3.2398,3.2398,3.2287,3.1823,3.2048,3.2287,3.1823,3.1709,3.1823,3.2272,3.2398,3.2398,3.2398,3.2398,3.2398,3.2398,3.2398,3.2398,3.2398,3.2398,3.2398,3.2398,3.2398,3.2398,3.2453,3.2931,3.3391,3.3818,3.4665,3.5782,3.7389,3.6507,3.5785,3.5657,3.4912,3.4192,3.3577,3.3382,3.3326,3.3326,3.3326,3.3326,3.3326,3.3326,3.3326,3.3326,3.3326,3.3326,3.3326,3.3326,3.3326,3.3326,3.3326,3.3326,3.3326,3.3326,3.3326,3.3326,3.3326,3.3326,3.3382,0.5559,0.6707,0.7774,0.808,0.975,1.1335,1.215,1.2952,1.4171,1.6097,1.6862,1.7745,1.9299,2.0409,2.1376,2.2285,2.3125,2.3603,2.3603,2.4789,2.5813,2.6426,2.7933,2.9042,2.9671,3.0363,3.0821,3.1058,3.1495,3.161,3.1409,3.1796,3.1796,3.1482,3.1482,3.1482,3.1482,3.1482,3.1482,3.1482,3.1482,3.1482,3.1482,3.1482,3.1482,3.1482,3.1482,3.1597,3.1841,3.194,3.2094,3.2191,3.2302,3.2342,3.2398,3.2398,3.2398,3.2287,3.1652,3.1709,3.1823,3.1175,3.0999,3.1233,3.216,3.216,3.2048,3.2342,3.2398,3.2398,3.2398,3.2398,3.2398,3.2398,3.2398,3.2398,3.2398,3.216,3.1992,3.1992,3.2282,3.2871,3.3968,3.518,3.618,3.6831,3.6196,3.5529,3.4927,3.4514,3.4002,3.3312,3.3326,3.3326,3.3326,3.3326,3.3326,3.3326,3.3326,3.3326,3.3326,3.3326,3.3326,3.3326,3.3326,3.3326,3.3326,3.3326,3.3326,3.3326,3.3326,3.3326,3.3326,3.3326,3.3326,3.3382,0.5559,0.6626,0.7617,0.8003,0.9674,1.1186,1.2157,1.2879,1.389,1.5551,1.6446,1.7335,1.8365,1.9694,2.1008,2.2297,2.2787,2.3017,2.3065,2.3721,2.438,2.4943,2.6799,2.8015,2.8498,2.9875,3.0702,3.0821,3.1058,3.1219,3.1278,3.1409,3.1467,3.1482,3.1482,3.1409,3.1351,3.1351,3.1278,3.1161,3.1278,3.1351,3.1351,3.1467,3.1482,3.1482,3.1482,3.1539,3.1597,3.1482,3.1625,3.1823,3.1951,3.212,3.2216,3.2216,3.2231,3.2104,3.1349,3.1233,3.1175,3.051,3.0329,3.0629,3.1807,3.1709,3.1465,3.1977,3.216,3.2231,3.2231,3.2327,3.2398,3.2272,3.2231,3.2231,3.2231,3.1709,3.1409,3.1644,3.1582,3.2363,3.4568,3.5516,3.6054,3.6196,3.5864,3.5255,3.438,3.4177,3.3865,3.3326,3.3326,3.3326,3.3326,3.3326,3.3326,3.3326,3.3326,3.3326,3.3326,3.3326,3.3326,3.3326,3.3326,3.3326,3.3326,3.3326,3.3326,3.3326,3.3326,3.3326,3.3326,3.3326,3.3326,3.3326,0.5559,0.6626,0.7617,0.8003,0.915,1.0594,1.2077,1.2372,1.3244,1.548,1.6567,1.7453,1.8432,1.9901,2.1273,2.2297,2.2482,2.2653,2.3078,2.3721,2.438,2.4943,2.6799,2.7823,2.7845,2.9665,3.0702,3.0821,3.0821,3.0999,3.1278,3.1351,3.1409,3.1482,3.1482,3.1161,3.0644,3.0644,3.0329,2.9827,3.0389,3.0644,3.0703,3.1278,3.1482,3.1482,3.1482,3.1161,3.0584,3.0208,3.0072,3.0254,3.1102,3.1319,3.142,3.158,3.1595,3.1349,3.0119,3.0194,3.045,2.9813,2.9628,2.9813,3.0569,3.0689,3.0644,3.0748,3.1233,3.1595,3.1595,3.2048,3.2231,3.1709,3.1595,3.1595,3.1595,3.1058,3.1027,3.2139,3.219,3.2973,3.5224,3.3969,3.3905,3.607,3.4461,3.3728,3.4245,3.3756,3.3382,3.3326,3.3326,3.3326,3.3326,3.3326,3.3326,3.3326,3.3326,3.3326,3.3326,3.3326,3.3326,3.3326,3.3326,3.3326,3.3326,3.3326,3.3326,3.3326,3.3326,3.3326,3.3326,3.3326,3.3326,3.3326,0.5559,0.6707,0.7778,0.808,0.9079,1.0443,1.2077,1.2305,1.2952,1.4911,1.5886,1.6784,1.7745,1.9694,2.121,2.1889,2.2223,2.2604,2.3078,2.3365,2.3646,2.3901,2.5714,2.6681,2.6627,2.847,2.947,2.9532,3.0372,3.0881,3.0999,3.1132,3.1058,3.0807,3.0807,3.0478,2.995,2.995,2.9766,2.9504,2.9827,2.995,2.995,3.0269,3.0389,3.0389,3.0389,3.0208,2.9889,2.969,2.969,2.9889,3.0375,3.06,3.0704,3.0866,3.094,3.0748,2.9752,2.969,2.9766,2.917,2.8994,2.9058,2.9373,2.9435,2.9623,3.0329,3.0763,3.094,3.094,3.1175,3.1218,3.0999,3.094,3.094,3.094,3.0632,3.0799,3.1664,3.2044,3.2812,3.4158,3.3768,3.3837,3.4647,3.3919,3.3451,3.3575,3.3423,3.3326,3.3326,3.3326,3.3326,3.3326,3.3326,3.3326,3.3326,3.3326,3.3326,3.3326,3.3326,3.3326,3.3326,3.3326,3.3326,3.3326,3.3326,3.3326,3.3326,3.3326,3.3326,3.3326,3.3326,3.3326,3.3326]}]]